Date StartTime U_cm/s V_cm/s W_cm/s Ustd_cm/s Vstd_cm/s Wstd_cm/s Uvar_(cm/s)^2 Vvar_(cm/s)^2 Wvar_(cm/s)^2 KE_(m/s)^2 TurbulentKE_(m/s)^2 HorizWindSpeed_cm/s FrictionSpeec_cm/s DragCoef SpeedOfSound_m/s SonicTemperature_C Pressure_mb 
01/01/2014  00:00:00     -110.232      -66.965       -9.505       30.372       18.051       13.644      922.458      325.841      186.168        0.908        0.072      128.978       11.709        0.008      332.355        0.964      868.352
01/01/2014  00:01:00      -95.637      -63.299       -0.113       33.903       27.431       18.287     1149.385      752.438      334.432        0.769        0.112      114.687       13.832        0.015      332.306        0.883      868.352
01/01/2014  00:02:00      -97.486      -56.087        4.296       39.878       27.510       19.754     1590.289      756.821      390.223        0.770        0.137      112.468       19.847        0.031      332.272        0.828      868.366
01/01/2014  00:03:00     -116.778      -60.463       -0.502       42.983       28.212       21.550     1847.573      795.912      464.403        1.020        0.155      131.502       21.190        0.026      332.361        0.972      868.369
01/01/2014  00:04:00     -112.624      -40.371        2.534       30.028       23.602       16.324      901.675      557.076      266.458        0.802        0.086      119.641       17.749        0.022      332.297        0.867      868.364
01/01/2014  00:05:00     -122.083      -46.102       -1.040       28.434       26.622       13.842      808.469      708.733      191.590        0.937        0.085      130.498       12.926        0.010      332.449        1.118      868.356
01/01/2014  00:06:00      -98.821      -37.036        3.517       44.978       36.740       21.722     2023.050     1349.817      471.825        0.750        0.192      105.534       23.658        0.050      332.421        1.073      868.352
01/01/2014  00:07:00     -105.615      -40.512        3.962       38.760       30.361       19.204     1502.344      921.795      368.799        0.780        0.140      113.118       17.030        0.023      332.430        1.087      868.356
01/01/2014  00:08:00     -126.045      -14.583       -2.944       40.253       22.432       21.366     1620.306      503.210      456.519        0.934        0.129      126.886       23.395        0.034      332.298        0.870      868.355
01/01/2014  00:09:00     -141.344      -20.923       -8.733       28.733       19.879       18.978      825.564      395.180      360.158        1.104        0.079      142.884       16.177        0.013      332.319        0.905      868.346
01/01/2014  00:10:00     -137.606       -2.003      -10.002       35.460       22.091       20.031     1257.398      488.010      401.243        1.059        0.107      137.621       18.231        0.018      332.271        0.826      868.339
01/01/2014  00:11:00     -124.488      -19.484      -10.237       24.889       20.157       14.237      619.463      406.303      202.682        0.860        0.061      126.003       12.410        0.010      332.281        0.842      868.327
01/01/2014  00:12:00     -101.638      -44.031       -5.905       20.635       19.334       14.881      425.796      373.802      221.455        0.666        0.051      110.765       14.429        0.017      332.214        0.733      868.324
01/01/2014  00:13:00      -75.736      -38.617       -7.862       22.456       20.768       13.088      504.276      431.306      171.283        0.420        0.055       85.013        7.139        0.007      332.223        0.747      868.313
01/01/2014  00:14:00      -51.041      -48.431       -2.382       22.394       15.997       17.356      501.499      255.907      301.224        0.301        0.053       70.362       13.988        0.040      332.203        0.714      868.310
01/01/2014  00:15:00      -64.698      -31.996      -11.994       17.875       19.491       12.665      319.520      379.903      160.411        0.311        0.043       72.177        9.148        0.016      332.192        0.697      868.298
01/01/2014  00:16:00      -60.880      -24.275       -4.944       12.562       13.238        9.094      157.816      175.240       82.703        0.237        0.021       65.541        4.331        0.004      332.187        0.686      868.290
01/01/2014  00:17:00      -53.224      -33.830       -2.306       17.590       14.822       10.060      309.405      219.706      101.202        0.231        0.032       63.066       10.332        0.027      332.151        0.628      868.300
01/01/2014  00:18:00      -26.768      -28.317        3.637       18.837       14.718        8.686      354.823      216.631       75.448        0.109        0.032       38.966        8.327        0.046      332.238        0.770      868.302
01/01/2014  00:19:00       -4.140      -30.242       -0.289       12.079       12.348        8.706      145.891      152.474       75.792        0.065        0.019       30.524        6.133        0.040      332.360        0.970      868.304
01/01/2014  00:20:00      -29.700      -20.364       -2.816       17.377       15.329        6.627      301.971      234.993       43.913        0.094        0.029       36.011        6.630        0.034      332.501        1.204      868.303
01/01/2014  00:21:00      -61.958      -33.549       -9.573       16.910       18.713       10.623      285.962      350.168      112.853        0.290        0.037       70.458        8.862        0.016      332.527        1.247      868.296
01/01/2014  00:22:00      -75.911      -44.561      -10.494       16.615       18.944        9.854      276.064      358.876       97.100        0.430        0.037       88.023        8.670        0.010      332.494        1.193      868.292
01/01/2014  00:23:00      -50.032      -38.784        0.086       17.716       16.333       11.188      313.840      266.752      125.164        0.236        0.035       63.303        8.517        0.018      332.429        1.086      868.285
01/01/2014  00:24:00      -47.918      -43.475       -3.094       28.124       24.664       15.289      790.945      608.313      233.760        0.291        0.082       64.701       14.032        0.047      332.558        1.300      868.287
01/01/2014  00:25:00      -55.358      -27.800       -8.803       13.498       13.840       10.217      182.204      191.535      104.387        0.220        0.024       61.946        7.098        0.013      332.623        1.405      868.298
01/01/2014  00:26:00      -15.541      -19.492        3.097       12.055        8.658        8.396      145.320       74.954       70.500        0.046        0.015       24.929        7.891        0.100      332.619        1.400      868.314
01/01/2014  00:27:00      -31.600      -21.671       -6.138        6.706        7.488        5.562       44.968       56.074       30.941        0.082        0.007       38.317        3.543        0.009      332.651        1.453      868.320
01/01/2014  00:28:00      -52.277      -24.167       -5.807        9.671       10.328        6.704       93.534      106.669       44.939        0.180        0.012       57.592        5.294        0.008      332.711        1.551      868.318
01/01/2014  00:29:00      -50.729       -5.775       -4.687        8.878        8.051        6.002       78.826       64.826       36.022        0.140        0.009       51.057        4.958        0.009      332.533        1.256      868.316
01/01/2014  00:30:00      -49.456      -10.890       -5.488        5.634        6.101        4.932       31.737       37.221       24.329        0.134        0.005       50.640        1.450        0.001      332.416        1.065      868.318
01/01/2014  00:31:00      -22.040      -19.499        1.551       18.654        8.372        9.827      347.988       70.085       96.578        0.069        0.026       29.428       12.403        0.178      332.390        1.021      868.329
01/01/2014  00:32:00      -16.901      -15.188        0.707        9.748        6.738        5.523       95.029       45.402       30.500        0.034        0.009       22.722        4.225        0.035      332.470        1.152      868.345
01/01/2014  00:33:00       -7.227      -16.233       -0.308        8.124        9.095        6.117       66.007       82.711       37.414        0.025        0.009       17.769        6.509        0.134      332.620        1.400      868.367
01/01/2014  00:34:00        2.267        5.786        7.404        4.502        5.464        2.917       20.264       29.860        8.508        0.008        0.003        6.215        1.323        0.045      332.465        1.145      868.387
01/01/2014  00:35:00      -25.173       -5.110       -3.569       15.015        9.403        6.144      225.463       88.414       37.750        0.051        0.018       25.686        7.913        0.095      332.455        1.129      868.398
01/01/2014  00:36:00      -27.067      -18.115       -1.599       13.694        8.176        7.819      187.519       66.844       61.143        0.069        0.016       32.569        6.772        0.043      332.337        0.933      868.408
01/01/2014  00:37:00      -53.528      -25.219       -9.319        7.339        6.259        6.636       53.854       39.176       44.043        0.186        0.007       59.171        2.317        0.002      332.149        0.624      868.417
01/01/2014  00:38:00      -51.266      -20.965       -6.421        7.911        7.895        6.445       62.585       62.333       41.534        0.164        0.008       55.387        3.631        0.004      332.159        0.640      868.423
01/01/2014  00:39:00      -55.395       -7.112       -5.509        6.839        8.359        5.260       46.767       69.877       27.673        0.165        0.007       55.850        3.815        0.005      332.216        0.735      868.421
01/01/2014  00:40:00      -47.469       -7.060       -1.045        9.105        8.089        7.410       82.893       65.439       54.914        0.125        0.010       47.991        2.876        0.004      332.438        1.101      868.415
01/01/2014  00:41:00      -43.157       -0.358       -9.725       13.509        8.269        5.491      182.499       68.380       30.148        0.112        0.014       43.158        4.847        0.013      332.262        0.810      868.415
01/01/2014  00:42:00      -50.018      -18.970      -10.953        5.470        4.857        4.733       29.926       23.591       22.399        0.153        0.004       53.495        2.206        0.002      332.095        0.536      868.408
01/01/2014  00:43:00      -56.197      -19.944      -17.307        6.012        8.897        5.114       36.140       79.161       26.157        0.200        0.007       59.631        3.839        0.004      332.102        0.547      868.402
01/01/2014  00:44:00      -63.018      -12.802       -9.543        8.433       10.971        8.229       71.124      120.357       67.716        0.224        0.013       64.306        4.011        0.004      332.073        0.499      868.396
01/01/2014  00:45:00      -65.837       -3.005      -10.953       11.622        9.632        9.253      135.067       92.781       85.611        0.239        0.016       65.905        4.296        0.004      332.058        0.475      868.399
01/01/2014  00:46:00      -72.886      -10.822       -7.944       21.774       13.403       12.136      474.101      179.652      147.277        0.315        0.040       73.685       11.432        0.024      332.071        0.496      868.399
01/01/2014  00:47:00      -91.207       -2.328      -15.978       19.807        7.514        9.279      392.313       56.462       86.094        0.456        0.027       91.237        3.126        0.001      332.098        0.539      868.408
01/01/2014  00:48:00      -74.594       -7.221       -9.146       18.042       11.270       12.003      325.518      127.004      144.064        0.315        0.030       74.943        9.416        0.016      332.084        0.517      868.410
01/01/2014  00:49:00      -57.150       -4.126       -9.800        8.263        9.211        6.105       68.279       84.849       37.271        0.178        0.010       57.299        4.308        0.006      332.221        0.742      868.409
01/01/2014  00:50:00      -50.968      -23.913       -9.205        7.350        8.594        4.827       54.027       73.848       23.299        0.170        0.008       56.299        3.028        0.003      332.233        0.764      868.396
01/01/2014  00:51:00      -57.074      -25.754       -9.314       11.419       10.150        6.561      130.404      103.022       43.049        0.214        0.014       62.615        6.480        0.011      332.234        0.764      868.387
01/01/2014  00:52:00      -51.430      -21.675      -10.048        9.885       16.982       11.030       97.715      288.396      121.661        0.186        0.025       55.811        4.042        0.005      332.192        0.695      868.380
01/01/2014  00:53:00      -63.541      -28.652      -10.788       13.389       12.982        7.502      179.264      168.535       56.285        0.269        0.020       69.702        3.317        0.002      332.068        0.491      868.386
01/01/2014  00:54:00      -58.755      -31.770      -12.697       21.701        9.765        7.471      470.937       95.350       55.810        0.262        0.031       66.795        1.268        0.000      331.889        0.195      868.397
01/01/2014  00:55:00      -40.147      -31.930      -14.649       19.694       14.890       11.687      387.843      221.712      136.587        0.180        0.037       51.296        5.756        0.013      331.906        0.224      868.401
01/01/2014  00:56:00      -87.268      -24.151      -20.457       19.929       15.527        9.066      397.147      241.084       82.193        0.467        0.036       90.548       10.157        0.013      331.882        0.184      868.405
01/01/2014  00:57:00      -93.166      -13.588      -15.811       13.655       10.371        7.378      186.451      107.551       54.429        0.473        0.017       94.152        4.339        0.002      331.891        0.198      868.408
01/01/2014  00:58:00      -77.088       -9.374      -16.482        9.158       10.536        8.251       83.866      111.001       68.076        0.328        0.013       77.656        3.469        0.002      331.882        0.184      868.411
01/01/2014  00:59:00      -68.389      -15.700      -13.602        8.097        7.970        7.980       65.554       63.514       63.680        0.265        0.010       70.168        4.263        0.004      331.929        0.262      868.418
01/01/2014  01:00:00      -75.394      -10.964      -13.729       10.883        7.422        8.039      118.450       55.080       64.618        0.312        0.012       76.187        6.017        0.006      331.956        0.304      868.416
01/01/2014  01:01:00      -92.367      -11.163      -11.937       11.439        9.237       10.870      130.847       85.319      118.165        0.457        0.017       93.039        5.677        0.004      332.018        0.406      868.411
01/01/2014  01:02:00      -99.851      -11.245      -10.495       17.304       14.020       10.952      299.429      196.568      119.942        0.541        0.031      100.482        8.576        0.007      332.036        0.437      868.409
01/01/2014  01:03:00     -117.317      -12.872      -16.704       15.656       10.533        9.910      245.113      110.943       98.199        0.733        0.023      118.021        8.416        0.005      331.980        0.345      868.406
01/01/2014  01:04:00     -106.866      -22.721      -13.388       12.859       11.434        8.562      165.361      130.731       73.313        0.624        0.018      109.254        4.605        0.002      332.017        0.407      868.408
01/01/2014  01:05:00     -112.326      -17.836      -14.878        9.447       12.237        8.190       89.244      149.755       67.083        0.673        0.015      113.733        5.118        0.002      331.980        0.345      868.418
01/01/2014  01:06:00     -101.835      -23.268      -13.184       11.891       10.295        8.945      141.400      105.994       80.010        0.571        0.016      104.460        5.070        0.002      332.014        0.402      868.434
01/01/2014  01:07:00     -117.107      -13.686      -20.741       11.629       11.376       11.672      135.238      129.403      136.225        0.737        0.020      117.904        6.377        0.003      331.953        0.300      868.435
01/01/2014  01:08:00     -116.808      -15.687      -16.786       23.510       14.486       12.078      552.740      209.851      145.871        0.754        0.045      117.857       11.291        0.009      331.876        0.174      868.447
01/01/2014  01:09:00      -96.291      -29.217      -11.943       26.406       17.118       14.557      697.296      293.037      211.894        0.574        0.060      100.626       14.361        0.020      331.836        0.108      868.453
01/01/2014  01:10:00      -67.377      -54.480       -2.480       22.389       23.775       17.475      501.278      565.259      305.370        0.444        0.069       86.647       12.910        0.022      331.768       -0.003      868.452
01/01/2014  01:11:00      -99.317      -46.469      -11.363       20.052       26.082       14.251      402.068      680.293      203.078        0.672        0.064      109.651        9.337        0.007      331.769       -0.001      868.465
01/01/2014  01:12:00     -102.699      -33.564       -7.312       29.571       19.093       16.335      874.419      364.541      266.823        0.662        0.075      108.045       13.393        0.015      331.706       -0.105      868.465
01/01/2014  01:13:00      -74.415      -16.126        1.294       48.272       31.740       23.763     2330.180     1007.440      564.686        0.485        0.195       76.142       23.282        0.093      331.768       -0.004      868.449
01/01/2014  01:14:00     -114.334      -20.942      -10.681       30.364       24.586       17.892      921.968      604.447      320.120        0.774        0.092      116.236       13.448        0.013      331.811        0.066      868.434
01/01/2014  01:15:00      -90.551      -36.289       -3.292       25.883       25.637       14.449      669.909      657.242      208.772        0.553        0.077       97.552       12.893        0.017      331.783        0.021      868.424
01/01/2014  01:16:00      -85.460      -42.443       -6.511       27.025       19.876       13.106      730.354      395.069      171.764        0.522        0.065       95.419       11.995        0.016      331.766       -0.008      868.422
01/01/2014  01:17:00      -77.070      -41.739      -13.948       23.678       16.504       13.204      560.646      272.371      174.354        0.444        0.050       87.647        7.764        0.008      331.740       -0.050      868.424
01/01/2014  01:18:00      -64.916      -58.632       -7.306       28.366       25.191       21.187      804.644      634.574      448.889        0.480        0.094       87.475       19.473        0.050      331.774        0.004      868.428
01/01/2014  01:19:00      -29.015      -30.996        3.937       29.982       22.059       18.719      898.897      486.580      350.386        0.178        0.087       42.457       19.651        0.214      331.793        0.036      868.434
01/01/2014  01:20:00      -31.586      -27.328       10.598       28.039       25.157       15.608      786.192      632.879      243.619        0.176        0.083       41.767       11.299        0.073      331.819        0.080      868.430
01/01/2014  01:21:00      -58.465      -15.983       -2.417       34.081       22.567       16.782     1161.485      509.278      281.644        0.282        0.098       60.610       13.737        0.051      332.015        0.402      868.434
01/01/2014  01:22:00      -76.216      -11.872       -9.209       28.677       22.908       14.153      822.374      524.774      200.308        0.379        0.077       77.135       14.715        0.036      332.034        0.434      868.443
01/01/2014  01:23:00      -64.347      -38.601      -12.108       21.299       14.475       11.590      453.645      209.520      134.326        0.329        0.040       75.037        7.888        0.011      331.924        0.253      868.455
01/01/2014  01:24:00     -100.587      -35.501       -7.195       21.365       21.594       17.353      456.468      466.314      301.130        0.633        0.061      106.668       10.110        0.009      331.979        0.343      868.458
01/01/2014  01:25:00      -86.364      -23.180       -4.418       48.662       29.166       25.421     2367.977      850.662      646.225        0.594        0.193       89.421       27.800        0.097      332.000        0.377      868.456
01/01/2014  01:26:00      -96.770      -12.958       -4.954       42.534       33.321       26.970     1809.179     1110.281      727.380        0.660        0.182       97.634       27.461        0.079      331.966        0.322      868.449
01/01/2014  01:27:00     -104.769      -16.266       -0.184       61.217       31.592       24.160     3747.555      998.054      583.708        0.828        0.266      106.024       26.117        0.061      331.930        0.262      868.449
01/01/2014  01:28:00     -107.118       -2.618       -4.256       40.077       32.552       20.698     1606.200     1059.640      428.425        0.730        0.155      107.150       19.332        0.033      331.849        0.128      868.451
01/01/2014  01:29:00     -112.446        3.791       -3.073       53.406       27.683       24.042     2852.178      766.373      578.016        0.843        0.210      112.510       28.577        0.065      331.815        0.074      868.446
01/01/2014  01:30:00     -121.083        1.303       -7.996       40.823       29.992       21.798     1666.517      899.542      475.162        0.888        0.152      121.090       18.699        0.024      331.839        0.112      868.441
01/01/2014  01:31:00      -93.330      -10.843      -12.241       26.856       33.871       17.148      721.243     1147.243      294.047        0.557        0.108       93.958        6.189        0.004      331.800        0.049      868.440
01/01/2014  01:32:00      -82.716      -10.237       -4.497       30.306       33.987       17.671      918.468     1155.115      312.253        0.468        0.119       83.347       15.423        0.034      331.793        0.036      868.445
01/01/2014  01:33:00      -95.044      -44.713       -4.985       39.605       28.926       18.211     1568.562      836.713      331.650        0.690        0.137      105.037       19.248        0.034      331.788        0.028      868.457
01/01/2014  01:34:00     -133.911      -39.663       -7.619       26.379       22.325       18.087      695.859      498.424      327.153        1.054        0.076      139.661       15.387        0.012      331.778        0.012      868.464
01/01/2014  01:35:00     -140.531      -56.643       -2.370       23.155       20.381       15.906      536.139      415.377      253.014        1.208        0.060      151.517       13.885        0.008      331.793        0.037      868.463
01/01/2014  01:36:00      -97.648      -63.821        0.723       36.714       23.991       17.450     1347.912      575.545      304.516        0.792        0.111      116.654       16.838        0.021      331.849        0.129      868.459
01/01/2014  01:37:00      -47.488      -45.643        1.605       36.442       28.740       18.041     1328.044      825.979      325.478        0.341        0.124       65.866       11.806        0.032      331.841        0.117      868.455
01/01/2014  01:38:00      -28.217      -46.162        6.789       39.214       24.218       13.918     1537.766      586.529      193.711        0.265        0.116       54.103       14.787        0.075      331.862        0.151      868.470
01/01/2014  01:39:00      -29.941      -52.578        2.979       22.565       17.427       17.389      509.187      303.700      302.370        0.239        0.056       60.505       14.272        0.056      331.883        0.184      868.485
01/01/2014  01:40:00      -72.073      -87.159       -3.920       17.211       19.951       10.372      296.207      398.046      107.578        0.680        0.040      113.098        9.539        0.007      331.914        0.236      868.500
01/01/2014  01:41:00      -88.733      -77.041      -11.354       29.982       23.938       18.407      898.897      573.030      338.831        0.787        0.091      117.511       16.161        0.019      331.904        0.220      868.506
01/01/2014  01:42:00      -82.929      -72.720       -5.920       16.289       21.319       12.895      265.321      454.480      166.276        0.654        0.044      110.297        6.369        0.003      331.943        0.283      868.504
01/01/2014  01:43:00      -80.940      -64.650        1.647       30.196       26.459       21.235      911.801      700.064      450.915        0.640        0.103      103.590       18.139        0.031      331.906        0.222      868.507
01/01/2014  01:44:00     -107.316      -55.615        3.880       46.215       26.554       19.485     2135.831      705.133      379.652        0.892        0.161      120.871       23.820        0.039      331.883        0.186      868.513
01/01/2014  01:45:00      -74.135      -58.165        5.936       57.089       29.477       22.279     3259.116      868.900      496.374        0.677        0.231       94.229       23.655        0.063      331.923        0.250      868.519
01/01/2014  01:46:00      -86.638      -47.245        7.505       47.626       36.505       28.690     2268.209     1332.601      823.100        0.711        0.221       98.683       25.050        0.064      331.901        0.216      868.530
01/01/2014  01:47:00     -113.072      -59.097        2.949       41.172       32.222       26.583     1695.100     1038.287      706.670        0.986        0.172      127.584       22.786        0.032      331.944        0.285      868.531
01/01/2014  01:48:00     -115.314      -67.700       -1.508       26.236       26.981       20.686      688.317      727.959      427.906        0.986        0.092      133.718       15.949        0.014      331.968        0.324      868.541
01/01/2014  01:49:00      -84.403      -52.238        5.163       38.995       31.832       18.961     1520.580     1013.283      359.508        0.639        0.145       99.260       22.814        0.053      332.034        0.434      868.547
01/01/2014  01:50:00      -97.850      -52.767        2.772       38.786       26.839       21.270     1504.337      720.340      452.393        0.752        0.134      111.171       17.752        0.025      332.036        0.438      868.566
01/01/2014  01:51:00     -112.069      -42.346       -3.765       40.866       28.461       19.483     1670.041      810.030      379.594        0.861        0.143      119.802       19.320        0.026      332.033        0.433      868.586
01/01/2014  01:52:00     -105.696      -46.305        3.377       36.006       29.114       20.555     1296.452      847.651      422.503        0.795        0.128      115.395       22.132        0.037      332.078        0.507      868.592
01/01/2014  01:53:00      -82.619      -16.910        3.380       34.747       25.919       18.657     1207.356      671.780      348.076        0.467        0.111       84.331       18.664        0.049      331.988        0.357      868.594
01/01/2014  01:54:00     -111.404      -23.502       -3.236       30.371       19.690       17.953      922.414      387.705      322.315        0.730        0.082      113.856       15.963        0.020      331.934        0.269      868.593
01/01/2014  01:55:00     -117.934      -41.208      -10.293       19.688       16.317       12.008      387.616      266.241      144.194        0.826        0.040      124.926        9.595        0.006      331.860        0.148      868.587
01/01/2014  01:56:00      -83.021      -10.407        0.456       35.039       21.851       19.361     1227.737      477.454      374.855        0.454        0.104       83.671       17.648        0.044      331.774        0.006      868.584
01/01/2014  01:57:00      -88.706       -9.110       -4.207       34.728       26.559       18.459     1206.061      705.401      340.719        0.511        0.113       89.172       18.576        0.043      331.789        0.031      868.581
01/01/2014  01:58:00      -91.623      -16.572       -3.981       27.265       23.133       15.471      743.394      535.126      239.360        0.510        0.076       93.109       14.512        0.024      331.801        0.052      868.588
01/01/2014  01:59:00      -93.657       -3.807      -10.400       37.974       23.018       18.966     1442.017      529.815      359.709        0.561        0.117       93.734       21.354        0.052      331.891        0.199      868.589
01/01/2014  02:00:00      -98.723       20.030       -2.288       43.368       22.309       18.125     1880.788      497.708      328.515        0.643        0.135      100.735       21.171        0.044      332.327        0.918      868.592
01/01/2014  02:01:00      -80.135      -11.819       -3.525       43.280       25.481       19.925     1873.148      649.265      396.995        0.475        0.146       81.002       25.433        0.099      332.249        0.790      868.599
01/01/2014  02:02:00      -72.014        4.339      -10.674       28.001       36.407       22.728      784.073     1325.480      516.552        0.397        0.131       72.145       15.987        0.049      332.044        0.450      868.612
01/01/2014  02:03:00      -64.885      -12.867       -6.188       31.792       28.593       21.390     1010.714      817.578      457.511        0.335        0.114       66.149       18.162        0.075      331.904        0.219      868.612
01/01/2014  02:04:00      -32.528        6.124       -8.648       13.884       21.097       12.181      192.752      445.099      148.366        0.098        0.039       33.099        5.633        0.029      331.843        0.120      868.622
01/01/2014  02:05:00      -50.192       -2.381      -10.708       16.030       11.488       13.435      256.963      131.967      180.502        0.160        0.028       50.248        7.414        0.022      331.811        0.066      868.625
01/01/2014  02:06:00      -46.189      -19.295       -4.010       16.491       10.391       10.267      271.960      107.963      105.416        0.150        0.024       50.057        5.422        0.012      331.755       -0.026      868.637
01/01/2014  02:07:00      -29.838      -25.187       -7.935       20.848       12.094        9.663      434.647      146.274       93.382        0.113        0.034       39.047        4.627        0.014      331.733       -0.062      868.647
01/01/2014  02:08:00        2.471      -26.711       -7.157       18.096       13.829       16.614      327.465      191.232      276.014        0.078        0.040       26.825       13.813        0.265      331.947        0.291      868.665
01/01/2014  02:09:00       -1.632       -8.888        9.387        7.496        8.349        5.967       56.194       69.706       35.606        0.017        0.008        9.037        1.901        0.044      331.907        0.226      868.676
01/01/2014  02:10:00       -9.923      -11.254       -4.872       12.502       11.482        9.609      156.300      131.839       92.339        0.031        0.019       15.004        8.008        0.285      331.841        0.115      868.686
01/01/2014  02:11:00      -25.173      -17.264      -12.827       17.208       19.180       13.334      296.125      367.877      177.787        0.097        0.042       30.524        4.495        0.022      332.097        0.539      868.683
01/01/2014  02:12:00      -33.218      -29.268       -3.731       10.242       10.381        9.289      104.903      107.756       86.276        0.114        0.015       44.273        4.186        0.009      331.921        0.248      868.698
01/01/2014  02:13:00      -38.631      -31.009       -8.306        6.716        6.939        6.264       45.103       48.152       39.239        0.133        0.007       49.537        3.619        0.005      331.876        0.174      868.717
01/01/2014  02:14:00      -49.177      -26.208       -9.941        7.990        6.927        6.122       63.840       47.982       37.483        0.168        0.007       55.725        3.199        0.003      331.750       -0.033      868.741
01/01/2014  02:15:00      -55.180      -22.117       -5.889        6.974        6.813        6.861       48.636       46.417       47.075        0.186        0.007       59.447        1.789        0.001      331.605       -0.273      868.750
01/01/2014  02:16:00      -57.916      -33.986      -13.250       14.297        8.359        6.878      204.407       69.877       47.312        0.250        0.016       67.151        5.037        0.006      331.637       -0.219      868.750
01/01/2014  02:17:00      -63.620      -21.927       -6.830        7.715       14.124        7.323       59.526      199.487       53.627        0.244        0.016       67.293        3.669        0.003      331.641       -0.212      868.744
01/01/2014  02:18:00      -51.663      -13.185       -9.425       11.367        4.960        5.218      129.213       24.602       27.223        0.156        0.009       53.319        2.954        0.003      331.770       -0.000      868.742
01/01/2014  02:19:00      -43.034       -6.120       -6.236        7.161        7.082        5.211       51.283       50.153       27.157        0.103        0.006       43.467        3.176        0.005      331.850        0.131      868.743
01/01/2014  02:20:00      -45.282      -13.411       -5.421        9.244        6.772        8.356       85.455       45.866       69.829        0.123        0.010       47.227        6.838        0.021      331.931        0.264      868.745
01/01/2014  02:21:00      -50.001      -11.903       -8.102        7.902        5.579        5.191       62.439       31.124       26.943        0.141        0.006       51.399        1.617        0.001      331.798        0.046      868.752
01/01/2014  02:22:00      -70.772      -19.819       -5.554        9.066        6.760        6.744       82.196       45.694       45.475        0.280        0.009       73.495        4.866        0.004      331.799        0.047      868.766
01/01/2014  02:23:00      -67.118       -4.653      -12.088        8.398        6.355        5.882       70.531       40.387       34.604        0.241        0.007       67.279        3.993        0.004      331.667       -0.170      868.783
01/01/2014  02:24:00      -78.646       -4.699      -11.346        6.677        6.374        6.493       44.588       40.626       42.163        0.323        0.006       78.786        3.319        0.002      331.660       -0.180      868.797
01/01/2014  02:25:00      -72.175        0.401      -12.383        7.453        7.144        5.804       55.553       51.033       33.687        0.275        0.007       72.176        3.367        0.002      331.699       -0.114      868.811
01/01/2014  02:26:00      -62.548       -3.626      -10.161        6.562        9.715        5.526       43.063       94.377       30.539        0.210        0.008       62.653        3.994        0.004      331.666       -0.170      868.830
01/01/2014  02:27:00      -52.646       -5.002       -9.634        5.718        6.706        4.479       32.701       44.969       20.065        0.149        0.005       52.883        0.722        0.000      331.754       -0.027      868.836
01/01/2014  02:28:00      -19.824        2.772       -5.933       23.344       16.615        9.352      544.922      276.068       87.452        0.067        0.045       20.017        9.007        0.202      332.104        0.550      868.839
01/01/2014  02:29:00      -13.318        4.151       11.810       16.661        9.670        7.401      277.578       93.513       54.770        0.038        0.021       13.950        8.512        0.372      332.215        0.731      868.827
01/01/2014  02:30:00       -3.537        2.023        4.803        6.430        6.042        4.514       41.343       36.508       20.374        0.007        0.005        4.075        3.488        0.733      332.159        0.641      868.815
01/01/2014  02:31:00      -26.346      -15.873       -6.854       13.142       10.919        5.209      172.725      119.219       27.131        0.066        0.016       30.758        6.188        0.040      332.121        0.578      868.807
01/01/2014  02:32:00      -56.815      -24.073      -11.139       10.153        9.378        6.045      103.092       87.941       36.541        0.208        0.011       61.704        5.077        0.007      331.797        0.045      868.805
01/01/2014  02:33:00      -72.830        0.783      -13.214       13.619       10.908        7.199      185.468      118.989       51.827        0.292        0.018       72.835        3.281        0.002      331.804        0.055      868.806
01/01/2014  02:34:00      -68.245        6.443      -17.414       12.872        6.501        5.971      165.676       42.267       35.648        0.262        0.012       68.549        2.825        0.002      331.844        0.121      868.802
01/01/2014  02:35:00      -72.069        8.159      -13.573       10.575        9.782        7.943      111.829       95.694       63.091        0.286        0.014       72.529        2.228        0.001      331.642       -0.210      868.795
01/01/2014  02:36:00      -62.577       -4.503      -10.903       29.864       12.289       13.728      891.853      151.008      188.458        0.264        0.062       62.739       16.854        0.072      331.552       -0.360      868.778
01/01/2014  02:37:00      -81.295        0.013      -14.935       20.214       16.137       12.510      408.596      260.408      156.494        0.383        0.041       81.295       10.215        0.016      331.549       -0.364      868.763
01/01/2014  02:38:00      -91.598       -0.572      -18.645       18.735       10.838       10.485      350.983      117.459      109.934        0.466        0.029       91.600        6.998        0.006      331.842        0.118      868.755
01/01/2014  02:39:00      -59.484      -26.362       -7.108       18.816       16.629       10.958      354.025      276.513      120.076        0.252        0.038       65.064        7.066        0.012      331.639       -0.216      868.760
01/01/2014  02:40:00      -63.739       -9.242       -8.212       18.673        9.133        8.763      348.677       83.406       76.797        0.236        0.025       64.406        1.576        0.001      331.603       -0.276      868.769
01/01/2014  02:41:00      -67.116       -8.501      -12.464        9.379       14.970        7.840       87.956      224.109       61.470        0.255        0.019       67.652        4.672        0.005      331.687       -0.137      868.779
01/01/2014  02:42:00      -71.804      -19.871      -11.835       13.705       15.171        8.971      187.828      230.148       80.485        0.309        0.025       74.503        8.803        0.014      331.563       -0.341      868.789
01/01/2014  02:43:00      -91.437      -24.613      -13.405       13.139       18.147       11.133      172.632      329.297      123.938        0.489        0.031       94.692        7.716        0.007      331.496       -0.451      868.800
01/01/2014  02:44:00      -81.104      -23.427       -9.958       16.380       22.155        8.279      268.295      490.827       68.539        0.403        0.041       84.420        4.426        0.003      331.489       -0.464      868.819
01/01/2014  02:45:00      -82.208      -30.749      -11.190       16.348       17.745       10.492      267.267      314.893      110.078        0.426        0.035       87.771        5.231        0.004      331.428       -0.563      868.829
01/01/2014  02:46:00     -116.545      -16.932      -16.385       17.796       13.766       10.581      316.698      189.500      111.951        0.738        0.031      117.769        9.249        0.006      331.398       -0.612      868.842
01/01/2014  02:47:00     -100.371      -35.820      -10.916       20.712       20.892       14.647      428.970      436.461      214.531        0.628        0.054      106.572       14.392        0.018      331.305       -0.764      868.859
01/01/2014  02:48:00      -98.800      -36.892       -8.223       17.960       18.127       15.841      322.568      328.588      250.922        0.605        0.045      105.464       11.240        0.011      331.270       -0.822      868.865
01/01/2014  02:49:00      -85.693      -27.621       -1.748       34.842       19.728       14.639     1213.965      389.193      214.305        0.496        0.091       90.035       15.701        0.030      331.309       -0.758      868.860
01/01/2014  02:50:00      -58.543       -7.987       -2.433       28.814       28.379       15.338      830.248      805.357      235.269        0.268        0.094       59.085       13.544        0.053      331.377       -0.647      868.844
01/01/2014  02:51:00      -69.780       -5.493       -7.402       34.678       26.645       18.350     1202.574      709.972      336.721        0.360        0.112       69.995       15.268        0.048      331.488       -0.466      868.823
01/01/2014  02:52:00      -69.941       -0.202        2.386       30.513       35.243       19.829      931.022     1242.076      393.177        0.373        0.128       69.942       15.544        0.049      331.550       -0.363      868.809
01/01/2014  02:53:00      -86.553      -29.024       -7.988       18.408       21.278       13.086      338.861      452.755      171.242        0.468        0.048       91.290        8.285        0.008      331.413       -0.588      868.807
01/01/2014  02:54:00      -81.680      -41.269       -8.621       21.691       21.487       12.421      470.480      461.686      154.276        0.477        0.054       91.514       11.012        0.014      331.314       -0.749      868.805
01/01/2014  02:55:00      -82.981      -24.587       -3.106       27.639       24.510       16.728      763.917      600.717      279.821        0.457        0.082       86.547       15.254        0.031      331.423       -0.572      868.806
01/01/2014  02:56:00      -78.299       -0.502       -6.426       49.459       33.496       20.168     2446.203     1122.005      406.763        0.507        0.199       78.301       23.579        0.091      331.501       -0.444      868.806
01/01/2014  02:57:00      -71.251        3.612       -4.542       34.096       39.451       20.303     1162.508     1556.409      412.228        0.412        0.157       71.342       16.630        0.054      331.557       -0.351      868.801
01/01/2014  02:58:00      -34.527        0.267        2.061       60.695       30.466       25.384     3683.884      928.179      644.326        0.323        0.263       34.528       28.688        0.690      331.580       -0.312      868.794
01/01/2014  02:59:00      -23.453       -9.318        3.762       24.062       33.257       18.120      578.982     1106.033      328.326        0.133        0.101       25.236       14.596        0.335      331.548       -0.367      868.793
01/01/2014  03:00:00      -43.780      -19.378       -1.161       24.402       19.147       14.768      595.452      366.601      218.087        0.174        0.059       47.877        7.673        0.026      331.521       -0.412      868.798
01/01/2014  03:01:00      -44.250      -29.083       -3.750       20.321       18.776       11.364      412.952      352.526      129.136        0.186        0.045       52.952        8.977        0.029      331.460       -0.511      868.803
01/01/2014  03:02:00      -73.646      -12.518       -9.419       18.259       17.677       11.355      333.401      312.488      128.926        0.322        0.039       74.703        8.159        0.012      331.437       -0.551      868.800
01/01/2014  03:03:00      -70.680      -10.255      -10.731       19.258       16.942       13.885      370.881      287.044      192.803        0.303        0.043       71.420       11.508        0.026      331.505       -0.438      868.805
01/01/2014  03:04:00      -70.854      -10.953       -4.500       28.612       19.692       17.635      818.621      387.781      311.008        0.334        0.076       71.696       15.759        0.048      331.396       -0.616      868.818
01/01/2014  03:05:00      -90.582      -31.061      -18.239       16.997       20.137       12.081      288.911      405.511      145.956        0.517        0.042       95.759       10.028        0.011      331.298       -0.776      868.819
01/01/2014  03:06:00     -106.093      -20.250      -11.992       38.911       23.586       19.738     1514.049      556.279      389.593        0.713        0.123      108.008       21.580        0.040      331.231       -0.887      868.816
01/01/2014  03:07:00     -108.840      -34.436      -12.824       21.298       20.514       13.715      453.618      420.805      188.106        0.713        0.053      114.158        9.368        0.007      331.224       -0.900      868.816
01/01/2014  03:08:00      -98.793      -35.045       -4.863       26.451       19.300       14.229      699.630      372.475      202.471        0.614        0.064      104.824       12.815        0.015      331.191       -0.954      868.813
01/01/2014  03:09:00      -91.660      -40.790      -10.368       16.177       20.362       13.580      261.680      414.601      184.414        0.552        0.043      100.326        8.258        0.007      331.202       -0.935      868.812
01/01/2014  03:10:00      -86.684      -28.391      -12.530       15.329       12.762        9.314      234.965      162.865       86.759        0.448        0.024       91.214        4.854        0.003      331.223       -0.899      868.820
01/01/2014  03:11:00      -75.716      -29.792       -8.327       15.678       16.037        9.149      245.812      257.201       83.699        0.364        0.029       81.366        6.863        0.007      331.218       -0.908      868.834
01/01/2014  03:12:00      -91.208      -18.514      -15.246       12.105       11.344        8.501      146.527      128.684       72.268        0.462        0.017       93.068        6.934        0.006      331.339       -0.708      868.846
01/01/2014  03:13:00      -87.885      -13.351      -11.117       10.839       10.255        7.686      117.484      105.172       59.080        0.415        0.014       88.893        5.627        0.004      331.422       -0.574      868.856
01/01/2014  03:14:00      -84.395      -11.625      -10.000       13.655       11.597        9.066      186.459      134.495       82.191        0.388        0.020       85.192        7.725        0.008      331.424       -0.570      868.855
01/01/2014  03:15:00      -67.334      -16.264       -5.911       13.945        9.913        9.647      194.465       98.276       93.074        0.261        0.019       69.271        5.700        0.007      331.473       -0.489      868.850
01/01/2014  03:16:00      -49.231      -19.818       -9.647        8.381        7.530        5.624       70.248       56.706       31.634        0.153        0.008       53.070        4.462        0.007      331.520       -0.413      868.840
01/01/2014  03:17:00      -48.380      -22.892       -6.091        6.272        7.048        5.110       39.332       49.678       26.108        0.151        0.006       53.523        1.883        0.001      331.506       -0.434      868.838
01/01/2014  03:18:00      -55.215      -24.233       -8.360       11.373       10.529        6.867      129.352      110.856       47.153        0.200        0.014       60.299        4.100        0.005      331.502       -0.442      868.844
01/01/2014  03:19:00      -68.889      -32.236       -7.727        8.569       13.983        8.834       73.430      195.516       78.042        0.310        0.017       76.058        6.663        0.008      331.425       -0.568      868.856
01/01/2014  03:20:00      -76.371      -17.333      -14.522        5.847        7.234        5.280       34.187       52.333       27.881        0.323        0.006       78.313        3.844        0.002      331.405       -0.602      868.868
01/01/2014  03:21:00      -68.183      -16.861      -13.397        9.862        7.894        6.974       97.261       62.310       48.635        0.266        0.010       70.237        3.795        0.003      331.364       -0.669      868.874
01/01/2014  03:22:00      -70.024      -17.388       -9.225       11.105        9.989        7.978      123.330       99.785       63.643        0.279        0.014       72.151        5.107        0.005      331.328       -0.727      868.877
01/01/2014  03:23:00      -88.220       -4.577       -9.225       14.068        7.765        6.816      197.919       60.300       46.455        0.410        0.015       88.339        3.935        0.002      331.304       -0.766      868.872
01/01/2014  03:24:00      -83.390       -9.166      -11.716       13.289        9.874        9.172      176.587       97.496       84.126        0.377        0.018       83.892        6.529        0.006      331.247       -0.861      868.863
01/01/2014  03:25:00      -70.517      -12.317      -12.874       10.428        8.112        7.585      108.744       65.805       57.525        0.276        0.012       71.585        3.680        0.003      331.218       -0.909      868.855
01/01/2014  03:26:00      -78.111       -6.675      -14.646       15.267       11.334       10.227      233.079      128.454      104.589        0.341        0.023       78.396        7.433        0.009      331.243       -0.866      868.850
01/01/2014  03:27:00     -103.278       -6.578      -15.611       11.302        9.845       12.486      127.729       96.925      155.894        0.567        0.019      103.487        6.128        0.004      331.245       -0.863      868.851
01/01/2014  03:28:00     -107.822      -10.264       -9.109       19.252       11.881       12.105      370.624      141.155      146.532        0.624        0.033      108.310       13.378        0.015      331.256       -0.844      868.849
01/01/2014  03:29:00     -111.069      -13.137      -15.625        6.932        8.518        5.545       48.054       72.560       30.749        0.645        0.008      111.843        2.468        0.000      331.253       -0.850      868.846
01/01/2014  03:30:00      -75.592      -13.050      -17.193       13.825       11.846        8.053      191.132      140.321       64.855        0.329        0.020       76.710        6.614        0.007      331.151       -1.020      868.848
01/01/2014  03:31:00      -67.478      -14.744       -9.187       13.603       14.167        8.765      185.033      200.709       76.817        0.266        0.023       69.070        7.353        0.011      331.155       -1.013      868.847
01/01/2014  03:32:00      -78.969      -16.195      -10.778       10.856       16.042       10.113      117.854      257.357      102.281        0.355        0.024       80.612        8.756        0.012      331.098       -1.106      868.862
01/01/2014  03:33:00      -79.911      -32.647       -9.202       16.451       13.960       12.846      270.620      194.890      165.013        0.408        0.032       86.322        8.152        0.009      331.095       -1.112      868.876
01/01/2014  03:34:00      -67.638      -21.577      -12.784       15.815       11.019        9.429      250.101      121.423       88.907        0.283        0.023       70.996        7.883        0.012      331.062       -1.166      868.886
01/01/2014  03:35:00      -92.739      -21.815      -14.703       11.871       11.627        8.595      140.928      135.198       73.877        0.482        0.018       95.270        4.139        0.002      331.136       -1.044      868.894
01/01/2014  03:36:00      -87.274      -10.368       -8.708       12.808       11.595        8.446      164.036      134.440       71.333        0.408        0.018       87.888        5.184        0.003      331.142       -1.033      868.890
01/01/2014  03:37:00      -91.088      -34.873       -5.281       15.634       14.831        7.805      244.424      219.944       60.920        0.503        0.026       97.535        6.171        0.004      331.209       -0.923      868.887
01/01/2014  03:38:00      -98.141      -10.978       -7.767       15.447       11.080       12.213      238.618      122.772      149.164        0.516        0.026       98.753        9.827        0.010      331.267       -0.827      868.884
01/01/2014  03:39:00      -78.383       -7.091       -4.290       22.699       11.749        9.456      515.259      138.050       89.413        0.348        0.037       78.703        8.596        0.012      331.344       -0.703      868.873
01/01/2014  03:40:00      -26.619      -32.170       -3.743       15.914       10.909        8.778      253.259      119.013       77.049        0.110        0.022       41.755        4.532        0.012      331.374       -0.653      868.868
01/01/2014  03:41:00      -11.081       -3.492        2.455       12.120       10.309       10.536      146.895      106.278      111.007        0.025        0.018       11.619        9.486        0.667      331.340       -0.708      868.860
01/01/2014  03:42:00      -51.388       -8.352       -6.239       23.765        8.230        6.646      564.764       67.740       44.169        0.171        0.034       52.062        6.165        0.014      331.420       -0.576      868.849
01/01/2014  03:43:00      -47.693      -23.773       -6.813       12.139       14.749        9.285      147.352      217.533       86.210        0.167        0.023       53.289        9.444        0.031      331.425       -0.568      868.838
01/01/2014  03:44:00      -62.710      -32.717       -7.743       12.654        8.185        8.695      160.123       66.987       75.604        0.268        0.015       70.732        6.103        0.007      331.279       -0.807      868.835
01/01/2014  03:45:00      -92.795      -39.799       -5.986        9.803        8.236        6.062       96.097       67.832       36.750        0.522        0.010      100.970        2.696        0.001      331.193       -0.949      868.832
01/01/2014  03:46:00      -90.044      -36.019       -2.363       26.029       22.447       13.363      677.509      503.868      178.568        0.539        0.068       96.981       14.943        0.024      331.091       -1.118      868.827
01/01/2014  03:47:00      -83.791      -12.188       -1.872       28.675       13.406       12.197      822.241      179.718      148.760        0.416        0.058       84.673       11.120        0.017      331.088       -1.122      868.826
01/01/2014  03:48:00      -63.404        0.501       -2.824       22.094       13.965        9.046      488.148      195.016       81.833        0.240        0.038       63.406        9.046        0.020      331.080       -1.135      868.835
01/01/2014  03:49:00      -71.063        7.068       -6.213       16.153       12.365        8.870      260.934      152.897       78.669        0.282        0.025       71.414        8.905        0.016      331.095       -1.110      868.843
01/01/2014  03:50:00      -59.410       -2.126       -6.576       19.024       12.551       11.095      361.912      157.521      123.099        0.211        0.032       59.448        6.240        0.011      331.192       -0.951      868.841
01/01/2014  03:51:00      -52.923      -21.486       -6.076       10.918       12.496        8.878      119.211      156.139       78.819        0.183        0.018       57.118        8.183        0.021      331.184       -0.964      868.840
01/01/2014  03:52:00      -39.018      -39.139       -2.914       10.138       12.042        9.369      102.789      145.010       87.785        0.170        0.017       55.265        2.364        0.002      331.199       -0.939      868.828
01/01/2014  03:53:00      -53.984      -26.475      -13.658       11.622       12.589        8.424      135.078      158.478       70.970        0.208        0.018       60.127        2.969        0.002      331.197       -0.943      868.819
01/01/2014  03:54:00      -83.731       -5.594      -13.404       12.991       13.947        9.231      168.757      194.523       85.209        0.384        0.022       83.917        8.224        0.010      331.027       -1.223      868.815
01/01/2014  03:55:00      -81.711      -33.126      -11.516       16.940       21.289       12.277      286.978      453.230      150.732        0.440        0.045       88.170        8.163        0.009      330.965       -1.324      868.811
01/01/2014  03:56:00      -88.326      -39.221      -14.125       18.059       14.859       11.207      326.111      220.784      125.588        0.511        0.034       96.643        7.900        0.007      330.872       -1.475      868.814
01/01/2014  03:57:00      -66.473      -25.315       -9.184       34.213       22.732       14.725     1170.538      516.746      216.825        0.352        0.095       71.130       11.404        0.026      330.857       -1.501      868.821
01/01/2014  03:58:00      -58.321      -10.252       -1.746       18.176       23.027       15.085      330.380      530.221      227.545        0.230        0.054       59.216       14.536        0.060      330.804       -1.589      868.833
01/01/2014  03:59:00      -35.151       -4.709       -2.316       12.779       13.587        8.442      163.295      184.603       71.275        0.084        0.021       35.465        2.367        0.004      330.845       -1.521      868.845
01/01/2014  04:00:00      -35.347       -4.544       -2.504       13.325       14.432        9.204      177.546      208.282       84.722        0.087        0.024       35.638        8.932        0.063      331.105       -1.095      868.855
01/01/2014  04:01:00      -38.586       -8.196       -8.648        9.777        8.848        7.617       95.585       78.281       58.024        0.093        0.012       39.447        5.923        0.023      331.069       -1.153      868.863
01/01/2014  04:02:00      -51.698      -10.281      -11.719       15.539        8.914        5.967      241.445       79.467       35.608        0.164        0.018       52.710        4.977        0.009      331.084       -1.130      868.871
01/01/2014  04:03:00      -71.575      -23.972       -9.398       11.064       11.672        8.682      122.406      136.247       75.373        0.306        0.017       75.483        2.773        0.001      331.065       -1.161      868.875
01/01/2014  04:04:00      -94.442      -12.494      -12.394       15.460       13.983        9.984      239.002      195.517       99.685        0.488        0.027       95.265        5.561        0.003      330.909       -1.415      868.881
01/01/2014  04:05:00      -96.424       -7.598       -8.882       19.650       14.487       14.249      386.129      209.885      203.041        0.512        0.040       96.723        9.784        0.010      330.861       -1.495      868.889
01/01/2014  04:06:00      -76.056      -14.463       -9.909       25.410       16.101       13.009      645.662      259.243      169.234        0.358        0.054       77.419       10.768        0.019      330.859       -1.498      868.893
01/01/2014  04:07:00      -79.768        2.926      -11.152       23.758       14.604       12.840      564.464      213.265      164.857        0.372        0.047       79.822       10.940        0.019      330.870       -1.480      868.896
01/01/2014  04:08:00      -55.905      -12.819       -7.447       15.844       18.120       11.170      251.032      328.324      124.777        0.202        0.035       57.356        9.468        0.027      330.902       -1.426      868.897
01/01/2014  04:09:00      -44.115       -5.902       -9.920       12.821       14.394       11.632      164.366      207.195      135.297        0.129        0.025       44.508       10.441        0.055      331.077       -1.141      868.895
01/01/2014  04:10:00      -26.556      -10.600       -5.140       11.573       10.425        7.562      133.931      108.675       57.181        0.057        0.015       28.594        6.624        0.054      331.230       -0.891      868.895
01/01/2014  04:11:00        5.591       14.764        0.726       12.101       12.602        6.476      146.440      158.799       41.940        0.030        0.017       15.788        7.383        0.219      331.483       -0.472      868.908
01/01/2014  04:12:00       18.620       33.209        6.894        9.546        7.847       10.004       91.133       61.581      100.072        0.087        0.013       38.073        4.466        0.014      331.934        0.269      868.924
01/01/2014  04:13:00        8.204       52.952       -6.994       10.488        9.534        7.165      109.996       90.895       51.343        0.159        0.013       53.584        5.693        0.011      331.942        0.283      868.942
01/01/2014  04:14:00       -5.801       47.343       -7.383       17.070       16.363        8.970      291.397      267.758       80.463        0.148        0.032       47.697        7.699        0.026      331.791        0.035      868.941
01/01/2014  04:15:00      -26.854        9.017       -5.322        9.033       10.760        9.164       81.591      115.783       83.981        0.056        0.014       28.327        4.281        0.023      331.342       -0.705      868.941
01/01/2014  04:16:00      -52.484        7.117        1.420       17.550       16.568       12.912      307.995      274.504      166.729        0.178        0.037       52.965        8.094        0.023      331.395       -0.617      868.940
01/01/2014  04:17:00      -53.190      -24.950       -3.225       15.722       23.063       13.499      247.172      531.898      182.211        0.221        0.048       58.751        5.614        0.009      331.302       -0.770      868.940
01/01/2014  04:18:00      -43.383      -31.514       -5.483       16.327       22.169       14.388      266.574      491.481      207.006        0.193        0.048       53.621        3.979        0.006      331.256       -0.846      868.940
01/01/2014  04:19:00      -31.086      -13.962       -5.430       15.993       16.875       12.438      255.767      284.768      154.701        0.094        0.035       34.077        5.204        0.023      331.252       -0.853      868.944
01/01/2014  04:20:00       -4.246      -18.677       -1.348       12.808       11.359        9.023      164.049      129.030       81.419        0.037        0.019       19.154        6.321        0.109      331.347       -0.698      868.954
01/01/2014  04:21:00      -26.635      -26.494       -4.522        8.308       12.486        6.640       69.023      155.889       44.087        0.085        0.013       37.568        4.424        0.014      331.208       -0.926      868.958
01/01/2014  04:22:00      -40.707      -30.578       -7.614       13.396        9.432       10.649      179.453       88.960      113.409        0.152        0.019       50.912        2.436        0.002      331.051       -1.183      868.953
01/01/2014  04:23:00      -33.773      -26.684       -1.545       15.820       10.865        7.751      250.279      118.042       60.079        0.114        0.021       43.043        5.555        0.017      331.099       -1.103      868.942
01/01/2014  04:24:00      -40.469      -20.384       -5.008       13.941        8.977        8.654      194.364       80.591       74.900        0.121        0.017       45.313        6.051        0.018      331.093       -1.115      868.939
01/01/2014  04:25:00      -69.755       -8.500       -6.757       16.998       14.017       11.399      288.932      196.468      129.928        0.280        0.031       70.271        1.760        0.001      330.947       -1.354      868.936
01/01/2014  04:26:00      -60.322       -0.735      -10.604       21.103        8.631        8.301      445.321       74.501       68.902        0.217        0.029       60.326        5.497        0.008      330.923       -1.393      868.936
01/01/2014  04:27:00      -62.628       -3.964       -8.148       11.540        8.474        6.555      133.171       71.809       42.974        0.213        0.012       62.754        2.842        0.002      330.954       -1.342      868.933
01/01/2014  04:28:00      -60.760      -22.382      -13.055        8.102        8.886        6.818       65.647       78.960       46.481        0.228        0.010       64.752        1.348        0.000      330.954       -1.342      868.937
01/01/2014  04:29:00      -59.916      -31.953      -13.052       15.585       11.881       11.085      242.884      141.150      122.886        0.264        0.025       67.904        4.042        0.004      330.876       -1.471      868.938
01/01/2014  04:30:00      -73.115      -35.421      -11.922       11.242       11.270        9.881      126.390      127.017       97.644        0.355        0.018       81.243        6.675        0.007      330.771       -1.643      868.947
01/01/2014  04:31:00      -68.032      -21.859       -8.871       14.300       13.729        8.926      204.493      188.485       79.676        0.283        0.024       71.457        7.228        0.010      330.827       -1.552      868.949
01/01/2014  04:32:00      -55.301       -7.260       -7.096       11.289        8.321        8.418      127.451       69.241       70.856        0.171        0.013       55.775        5.451        0.010      330.856       -1.501      868.955
01/01/2014  04:33:00      -47.072       -6.493       -8.015       10.802        8.341        8.875      116.675       69.567       78.767        0.129        0.013       47.517        6.476        0.019      330.988       -1.288      868.963
01/01/2014  04:34:00      -26.305      -13.453        0.311       21.944        8.869        8.005      481.549       78.655       64.084        0.075        0.031       29.545        3.658        0.015      331.138       -1.041      868.969
01/01/2014  04:35:00      -34.343      -15.954       -2.647       10.798       13.751       10.442      116.593      189.088      109.036        0.093        0.021       37.868        3.269        0.007      331.166       -0.995      868.977
01/01/2014  04:36:00      -19.788      -27.652        6.658       15.841       18.187        9.931      250.947      330.752       98.626        0.094        0.034       34.003        7.864        0.053      331.120       -1.069      868.999
01/01/2014  04:37:00      -14.532      -13.088       -4.584       18.072       15.635       10.264      326.594      244.459      105.344        0.054        0.034       19.557        5.643        0.083      331.050       -1.185      869.011
01/01/2014  04:38:00      -19.853      -13.741       -8.844       18.524       14.087       12.050      343.137      198.456      145.193        0.067        0.034       24.145        9.897        0.168      331.128       -1.055      869.018
01/01/2014  04:39:00      -61.905      -30.801      -14.134       18.628       12.557        8.209      346.989      157.682       67.379        0.278        0.029       69.144        4.952        0.005      330.812       -1.574      869.013
01/01/2014  04:40:00      -77.124      -15.992      -12.951       18.301       20.992       12.276      334.924      440.673      150.697        0.365        0.046       78.765       11.038        0.020      330.761       -1.662      869.016
01/01/2014  04:41:00      -62.384      -20.092      -10.923       16.381       11.051        9.904      268.336      122.135       98.092        0.245        0.024       65.540        8.816        0.018      330.758       -1.664      869.018
01/01/2014  04:42:00      -51.422      -25.007      -11.983        9.484       13.859        7.709       89.943      192.069       59.427        0.188        0.017       57.180        6.334        0.012      330.858       -1.500      869.026
01/01/2014  04:43:00      -71.159       -7.080       -9.018        9.894        5.200        6.445       97.882       27.042       41.543        0.268        0.008       71.510        2.941        0.002      330.975       -1.307      869.031
01/01/2014  04:44:00      -73.462      -15.074       -8.363        6.800       11.566        6.425       46.246      133.783       41.277        0.296        0.011       74.993        3.033        0.002      330.968       -1.320      869.026
01/01/2014  04:45:00      -74.119      -23.517       -9.772       10.643        9.085        4.999      113.274       82.546       24.987        0.318        0.011       77.761        2.530        0.001      330.978       -1.304      869.019
01/01/2014  04:46:00      -78.305      -29.821       -9.348        9.738        7.083        5.685       94.822       50.173       32.321        0.364        0.009       83.791        2.217        0.001      330.923       -1.392      869.011
01/01/2014  04:47:00      -73.773      -16.927       -8.930        7.403        9.467        4.779       54.807       89.632       22.843        0.299        0.008       75.690        3.199        0.002      330.893       -1.439      869.002
01/01/2014  04:48:00      -76.182      -22.061       -4.990        9.039       14.407        8.669       81.708      207.552       75.149        0.334        0.018       79.312        7.042        0.008      330.920       -1.398      869.000
01/01/2014  04:49:00      -61.951      -17.176       -7.938       10.493       10.103        8.345      110.103      102.068       69.643        0.224        0.014       64.288        4.859        0.006      330.904       -1.426      868.997
01/01/2014  04:50:00      -56.032      -21.268       -4.349        7.092       11.888        6.791       50.294      141.322       46.120        0.192        0.012       59.933        5.054        0.007      330.922       -1.395      869.005
01/01/2014  04:51:00      -55.341      -30.802       -5.543       14.053       11.833        8.723      197.494      140.023       76.086        0.223        0.021       63.336        1.823        0.001      330.900       -1.430      869.015
01/01/2014  04:52:00      -76.868      -30.323       -9.472        7.608        7.702        5.215       57.887       59.326       27.194        0.353        0.007       82.633        3.582        0.002      330.883       -1.459      869.014
01/01/2014  04:53:00      -88.917      -22.350       -6.069       13.436       12.855        8.760      180.534      165.258       76.745        0.443        0.021       91.683        6.890        0.006      330.851       -1.511      869.000
01/01/2014  04:54:00      -78.515      -16.573       -3.286       18.969       13.578       12.498      359.840      184.359      156.192        0.358        0.035       80.245       10.497        0.017      330.876       -1.469      868.999
01/01/2014  04:55:00     -101.942       -6.378       -7.903       16.243       11.410       13.642      263.835      130.184      186.107        0.554        0.029      102.142       11.607        0.013      330.818       -1.566      869.005
01/01/2014  04:56:00     -126.525      -10.267      -16.733       15.520       10.154        9.749      240.871      103.107       95.047        0.842        0.022      126.941        6.395        0.003      330.804       -1.589      868.997
01/01/2014  04:57:00     -115.685      -26.111      -15.676       17.904       20.360       16.048      320.568      414.540      257.540        0.765        0.050      118.595       13.007        0.012      330.657       -1.830      868.987
01/01/2014  04:58:00     -105.851      -31.499      -13.198       26.400       19.732       16.820      696.985      389.366      282.901        0.687        0.068      110.438       14.544        0.017      330.502       -2.084      868.977
01/01/2014  04:59:00     -109.750      -15.527       -8.719       16.374       15.259       12.229      268.106      232.845      149.538        0.651        0.033      110.843        8.352        0.006      330.531       -2.037      868.969
01/01/2014  05:00:00     -105.166       -3.774       -4.080       34.582       23.186       21.079     1195.911      537.582      444.331        0.663        0.109      105.234       20.370        0.037      330.536       -2.029      868.955
01/01/2014  05:01:00      -95.605       -2.596       -5.098       37.868       24.880       18.251     1433.965      619.021      333.112        0.578        0.119       95.640       16.563        0.030      330.618       -1.893      868.956
01/01/2014  05:02:00     -100.710      -18.592       -6.377       24.320       17.925       13.319      591.476      321.318      177.400        0.581        0.055      102.411       13.256        0.017      330.673       -1.803      868.964
01/01/2014  05:03:00     -110.543      -20.785       -7.805       22.466       14.420       12.243      504.715      207.938      149.891        0.679        0.043      112.480       10.581        0.009      330.748       -1.680      868.962
01/01/2014  05:04:00     -108.150      -22.174      -13.974       22.970       14.957       16.078      527.618      223.718      258.512        0.670        0.050      110.400       13.544        0.015      330.825       -1.554      868.957
01/01/2014  05:05:00      -97.843      -27.121      -12.154       14.777       17.172       11.338      218.371      294.894      128.546        0.555        0.032      101.532        7.347        0.005      330.824       -1.556      868.958
01/01/2014  05:06:00     -105.813       -8.487       -7.218       26.780       18.738       15.273      717.158      351.106      233.254        0.631        0.065      106.153       14.341        0.018      330.732       -1.707      868.959
01/01/2014  05:07:00     -113.562      -20.720      -13.086       14.506       12.905       11.584      210.427      166.537      134.196        0.700        0.026      115.437        7.605        0.004      330.711       -1.742      868.967
01/01/2014  05:08:00      -76.747      -21.437       -5.093       27.010       23.384       14.849      729.562      546.801      220.507        0.394        0.075       79.684       14.842        0.035      330.649       -1.842      868.978
01/01/2014  05:09:00      -41.209      -10.325       -0.059       30.919       20.690       14.209      956.011      428.079      201.893        0.170        0.079       42.482        9.447        0.049      330.690       -1.776      868.997
01/01/2014  05:10:00      -44.623        7.912      -11.231       15.592       15.346        8.500      243.099      235.489       72.258        0.137        0.028       45.319        6.254        0.019      330.846       -1.520      869.013
01/01/2014  05:11:00      -29.041      -16.770       -4.025        9.246        8.509        9.276       85.487       72.402       86.039        0.069        0.012       33.535        6.781        0.041      330.894       -1.441      869.018
01/01/2014  05:12:00      -50.883        1.517        2.676       15.852       14.835       10.439      251.301      220.064      108.966        0.159        0.029       50.906        9.296        0.033      330.978       -1.304      869.012
01/01/2014  05:13:00      -52.954      -20.706      -13.159        8.022       19.739        7.119       64.347      389.643       50.676        0.196        0.025       56.858        7.742        0.019      330.966       -1.323      868.997
01/01/2014  05:14:00      -49.622      -34.881      -17.355       14.470       17.228        8.462      209.375      296.809       71.603        0.228        0.029       60.655        3.826        0.004      330.876       -1.473      868.990
01/01/2014  05:15:00      -67.260      -29.654       -8.331       13.927       11.880        8.339      193.959      141.124       69.531        0.294        0.020       73.507        4.997        0.005      330.761       -1.659      868.989
01/01/2014  05:16:00      -78.567       -7.831      -12.916       13.052       10.479        8.531      170.358      109.808       72.771        0.338        0.018       78.957        2.154        0.001      330.675       -1.800      869.002
01/01/2014  05:17:00      -75.575       -8.015      -13.209       11.225        9.262        9.841      125.992       85.781       96.846        0.313        0.015       75.999        4.219        0.003      330.568       -1.974      869.016
01/01/2014  05:18:00      -87.487      -20.610      -16.666       13.731        8.935        8.691      188.528       79.835       75.525        0.435        0.017       89.882        3.024        0.001      330.583       -1.951      869.026
01/01/2014  05:19:00      -75.071       -9.823      -14.463        7.180        8.524        7.039       51.556       72.652       49.549        0.306        0.009       75.711        1.757        0.001      330.670       -1.808      869.025
01/01/2014  05:20:00      -74.764      -21.138       -9.638        8.973       11.513        8.758       80.520      132.558       76.708        0.321        0.014       77.695        7.872        0.010      330.594       -1.935      869.029
01/01/2014  05:21:00      -67.699      -18.333      -15.079        7.316       11.310        7.226       53.518      127.918       52.221        0.269        0.012       70.137        3.546        0.003      330.653       -1.835      869.022
01/01/2014  05:22:00      -63.143       -7.681      -14.911       10.064        8.602        9.239      101.282       73.989       85.357        0.226        0.013       63.609        6.033        0.009      330.876       -1.470      869.017
01/01/2014  05:23:00      -59.121       14.380      -10.203        7.024       10.949        8.691       49.343      119.878       75.541        0.203        0.012       60.845        6.964        0.013      331.139       -1.039      869.017
01/01/2014  05:24:00      -27.673      -15.291       -1.121       19.037       11.321       11.411      362.402      128.155      130.203        0.081        0.031       31.617        5.490        0.030      331.041       -1.200      869.020
01/01/2014  05:25:00      -32.494      -10.132       -8.806       12.959       13.524        7.101      167.934      182.907       50.421        0.082        0.020       34.037        6.598        0.038      331.037       -1.207      869.026
01/01/2014  05:26:00      -29.453       -5.454       -8.162       11.552       13.233        8.802      133.458      175.110       77.480        0.067        0.019       29.954        6.211        0.043      331.399       -0.611      869.026
01/01/2014  05:27:00      -42.886      -18.225        0.216        9.693       13.705       10.834       93.947      187.828      117.369        0.129        0.020       46.598        7.036        0.023      331.147       -1.025      869.024
01/01/2014  05:28:00      -55.509      -25.052      -16.351        8.116       10.668        7.425       65.863      113.797       55.136        0.211        0.012       60.900        5.715        0.009      330.769       -1.646      869.027
01/01/2014  05:29:00      -86.479      -10.428      -16.602       21.816       12.004       11.189      475.945      144.087      125.204        0.430        0.037       87.105        8.455        0.009      330.635       -1.866      869.024
01/01/2014  05:30:00     -115.453       -1.256      -19.332       15.700       12.957        9.245      246.475      167.889       85.475        0.710        0.025      115.460        4.162        0.001      330.604       -1.917      869.023
01/01/2014  05:31:00     -109.302       -9.008      -14.327       14.283       11.738       12.184      204.017      137.772      148.454        0.636        0.025      109.673        5.108        0.002      330.562       -1.987      869.022
01/01/2014  05:32:00     -109.912      -10.415      -15.805       17.470       13.286       17.024      305.189      176.516      289.824        0.661        0.039      110.404       11.531        0.011      330.560       -1.989      869.032
01/01/2014  05:33:00     -131.486       -0.436      -22.019        9.217        7.636        9.011       84.954       58.302       81.202        0.900        0.011      131.487        3.450        0.001      330.591       -1.938      869.032
01/01/2014  05:34:00     -132.630       -5.328      -19.488       10.056        9.832        7.154      101.130       96.668       51.176        0.912        0.012      132.737        4.025        0.001      330.647       -1.846      869.031
01/01/2014  05:35:00      -96.581      -32.710      -18.145       16.206       19.508       13.190      262.631      380.564      173.979        0.577        0.041      101.970       11.244        0.012      330.581       -1.955      869.028
01/01/2014  05:36:00     -114.044      -16.477      -16.642       24.527       23.671       17.941      601.580      560.317      321.881        0.752        0.074      115.228       15.586        0.018      330.563       -1.983      869.029
01/01/2014  05:37:00     -111.791      -12.765       -5.710       26.560       17.100       19.414      705.424      292.403      376.906        0.703        0.069      112.518       17.471        0.024      330.536       -2.028      869.037
01/01/2014  05:38:00     -106.272      -29.621      -12.183       19.962       19.632       15.310      398.497      385.405      234.385        0.667        0.051      110.323       10.390        0.009      330.627       -1.879      869.044
01/01/2014  05:39:00      -70.641      -23.419       -7.468       19.500       22.427       12.637      380.231      502.985      159.704        0.332        0.052       74.422       11.347        0.023      330.678       -1.795      869.066
01/01/2014  05:40:00      -71.892      -24.865       -3.352       22.166       17.490       13.797      491.345      305.904      190.357        0.339        0.049       76.070       12.584        0.027      330.613       -1.902      869.077
01/01/2014  05:41:00      -54.929      -37.078       -4.146       21.611       14.589        9.679      467.051      212.843       93.689        0.259        0.039       66.272        6.692        0.010      330.665       -1.816      869.080
01/01/2014  05:42:00      -74.611      -55.976      -12.326       23.483       21.374       14.144      551.460      456.846      200.060        0.503        0.060       93.274        9.714        0.011      330.653       -1.836      869.067
01/01/2014  05:43:00      -86.661      -78.038       -5.373       29.685       29.467       16.344      881.226      868.280      267.130        0.782        0.101      116.619       11.253        0.009      330.597       -1.928      869.045
01/01/2014  05:44:00      -94.279      -56.885        1.460       48.557       32.711       27.278     2357.757     1070.001      744.107        0.815        0.209      110.111       26.296        0.057      330.608       -1.910      869.034
01/01/2014  05:45:00      -92.677      -41.508        5.618       43.996       24.611       23.854     1935.606      605.700      569.031        0.673        0.156      101.548       26.212        0.067      330.698       -1.763      869.031
01/01/2014  05:46:00     -101.232      -41.044        3.709       30.322       22.553       18.264      919.441      508.626      333.562        0.685        0.088      109.236       11.179        0.010      330.759       -1.664      869.032
01/01/2014  05:47:00     -104.019      -44.416       -2.418       23.625       22.466       14.427      558.144      504.741      208.130        0.703        0.064      113.105       12.864        0.013      330.879       -1.465      869.033
01/01/2014  05:48:00      -73.218      -27.690        0.689       25.020       19.806       13.406      626.019      392.284      179.720        0.366        0.060       78.279       11.477        0.021      330.891       -1.445      869.031
01/01/2014  05:49:00      -44.699      -15.025        1.139       24.097       18.485       13.034      580.642      341.699      169.898        0.166        0.055       47.156       12.223        0.067      330.787       -1.618      869.040
01/01/2014  05:50:00      -70.419      -20.794       -6.766       17.930       16.054       10.780      321.469      257.737      116.201        0.307        0.035       73.425        7.609        0.011      330.825       -1.555      869.051
01/01/2014  05:51:00      -74.504      -10.644       -6.073       17.768       15.308       11.028      315.701      234.330      121.611        0.319        0.034       75.261        8.695        0.013      330.861       -1.494      869.065
01/01/2014  05:52:00      -84.704      -18.359       -9.681       18.694       13.479       12.032      349.472      181.681      144.777        0.414        0.034       86.671        9.603        0.012      330.918       -1.402      869.074
01/01/2014  05:53:00      -92.125      -15.723       -4.297       22.848       14.231       14.380      522.032      202.527      206.798        0.484        0.047       93.457       13.665        0.021      330.773       -1.640      869.081
01/01/2014  05:54:00     -116.371       -7.324       -7.477       16.214       14.648       10.542      262.909      214.561      111.129        0.712        0.029      116.601       10.290        0.008      330.752       -1.675      869.094
01/01/2014  05:55:00     -110.257       -1.445      -14.381       13.559       10.220        9.819      183.849      104.452       96.406        0.638        0.019      110.267        6.677        0.004      330.719       -1.726      869.113
01/01/2014  05:56:00      -91.564      -15.233      -12.373       13.435        9.832        8.443      180.492       96.675       71.283        0.456        0.017       92.822        7.484        0.007      330.802       -1.592      869.128
01/01/2014  05:57:00     -103.559       -4.782      -12.602       10.674       12.060        8.216      113.940      145.450       67.505        0.562        0.016      103.669        3.341        0.001      330.825       -1.555      869.146
01/01/2014  05:58:00     -121.351      -12.018      -19.945       11.546        8.404        8.432      133.317       70.622       71.094        0.777        0.014      121.945        2.434        0.000      330.698       -1.763      869.156
01/01/2014  05:59:00      -98.781      -37.053      -12.243       18.128       17.127       12.981      328.610      293.335      168.501        0.604        0.040      105.501       10.742        0.010      330.661       -1.823      869.174
01/01/2014  06:00:00      -98.765      -26.203       -5.970       24.370       20.093       17.860      593.889      403.712      318.978        0.590        0.066      102.182       16.260        0.025      330.576       -1.963      869.187
01/01/2014  06:01:00     -135.067      -19.445      -17.656       18.532       16.613       12.420      343.439      275.995      154.257        0.985        0.039      136.459       10.984        0.006      330.522       -2.050      869.196
01/01/2014  06:02:00     -126.273       -8.591       -4.482       35.718       20.102       16.584     1275.810      404.101      275.035        0.900        0.098      126.565       17.962        0.020      330.468       -2.140      869.197
01/01/2014  06:03:00     -114.487        6.724       -4.896       39.675       25.338       21.042     1574.105      642.000      442.747        0.792        0.133      114.684       23.689        0.043      330.513       -2.066      869.197
01/01/2014  06:04:00     -138.057       -4.317      -12.841       25.315       15.570       14.741      640.848      242.435      217.308        1.017        0.055      138.124       12.496        0.008      330.606       -1.913      869.191
01/01/2014  06:05:00     -132.980        4.261      -19.170       17.957       13.397       12.553      322.455      179.481      157.568        0.936        0.033      133.048       10.085        0.006      330.696       -1.767      869.192
01/01/2014  06:06:00     -104.667       -3.982      -12.381       25.436       22.493       17.061      646.992      505.932      291.093        0.628        0.072      104.743       17.012        0.026      330.635       -1.864      869.200
01/01/2014  06:07:00     -119.673        6.195      -19.283       25.717       15.845       12.282      661.371      251.064      150.849        0.790        0.053      119.833        9.464        0.006      330.615       -1.898      869.218
01/01/2014  06:08:00      -89.933       -9.757       -9.821       26.081       22.141       15.629      680.239      490.239      244.268        0.485        0.071       90.461       13.819        0.023      330.569       -1.974      869.252
01/01/2014  06:09:00      -93.263      -27.989      -12.720       27.750       20.040       16.495      770.053      401.591      272.091        0.554        0.072       97.372       16.868        0.030      330.489       -2.107      869.270
01/01/2014  06:10:00      -94.123      -20.749      -13.547       24.050       16.968       11.586      578.389      287.922      134.231        0.524        0.050       96.383       10.646        0.012      330.459       -2.155      869.278
01/01/2014  06:11:00      -95.417      -20.144      -14.843       21.001       20.114       14.513      441.037      404.588      210.630        0.539        0.053       97.520        5.782        0.004      330.413       -2.229      869.281
01/01/2014  06:12:00     -101.876      -17.891       -8.960       23.032       22.261       15.669      530.485      495.574      245.503        0.603        0.064      103.435       11.123        0.012      330.415       -2.228      869.284
01/01/2014  06:13:00      -88.068      -29.556      -14.368       15.931       18.651        9.389      253.785      347.871       88.154        0.476        0.034       92.896        4.745        0.003      330.347       -2.339      869.278
01/01/2014  06:14:00      -88.084      -14.399      -10.775       18.740       19.633       12.881      351.171      385.445      165.907        0.449        0.045       89.253        6.184        0.005      330.318       -2.386      869.279
01/01/2014  06:15:00      -62.923       -8.772       -8.266       17.402       22.037       16.635      302.815      485.643      276.720        0.258        0.053       63.531        3.697        0.003      330.328       -2.369      869.284
01/01/2014  06:16:00      -45.601      -15.830       -5.440       23.160       13.635       16.417      536.395      185.909      269.525        0.168        0.050       48.271       17.093        0.125      330.405       -2.244      869.286
01/01/2014  06:17:00      -76.948      -19.234      -17.689       16.868       23.238       19.917      284.537      540.019      396.675        0.391        0.061       79.315       12.010        0.023      330.453       -2.165      869.307
01/01/2014  06:18:00      -81.880      -27.260      -11.622       22.359       19.299       13.823      499.915      372.456      191.076        0.432        0.053       86.299        9.214        0.011      330.439       -2.188      869.323
01/01/2014  06:19:00     -113.295      -19.883      -19.434       14.368       17.323       10.603      206.447      300.070      112.429        0.711        0.031      115.027        2.778        0.001      330.355       -2.325      869.336
01/01/2014  06:20:00     -101.389      -15.274      -17.156       24.891       17.293       18.549      619.571      299.048      344.053        0.603        0.063      102.533       14.069        0.019      330.322       -2.379      869.348
01/01/2014  06:21:00      -79.279       -1.016       -7.606       28.495       21.505       17.871      811.981      462.486      319.373        0.397        0.080       79.286       18.357        0.054      330.331       -2.365      869.364
01/01/2014  06:22:00      -91.930       -5.238       -9.937       26.687       16.899       16.527      712.187      285.564      273.131        0.492        0.064       92.079       13.657        0.022      330.308       -2.403      869.376
01/01/2014  06:23:00      -87.463      -23.718      -14.943       19.233       17.324       15.287      369.927      300.108      233.693        0.467        0.045       90.622       14.437        0.025      330.383       -2.280      869.399
01/01/2014  06:24:00      -96.782      -19.127      -13.169       11.396       12.708       12.958      129.879      161.502      167.905        0.518        0.023       98.653        4.786        0.002      330.375       -2.294      869.399
01/01/2014  06:25:00      -85.819      -15.005      -13.745       20.244       19.593       15.418      409.827      383.885      237.703        0.441        0.052       87.121        7.651        0.008      330.423       -2.214      869.392
01/01/2014  06:26:00      -62.487      -21.909       -9.176       18.202       13.296       13.126      331.330      176.778      172.287        0.257        0.034       66.216       10.719        0.026      330.476       -2.127      869.384
01/01/2014  06:27:00      -81.236      -32.703      -19.447       15.321       17.609       12.021      234.724      310.062      144.503        0.437        0.034       87.572        3.570        0.002      330.473       -2.132      869.380
01/01/2014  06:28:00     -105.963      -31.285      -16.986       20.137       18.246       13.204      405.509      332.915      174.359        0.670        0.046      110.485        6.208        0.003      330.404       -2.244      869.390
01/01/2014  06:29:00      -97.882      -27.650      -13.527       26.557       24.416       16.854      705.275      596.159      284.053        0.606        0.079      101.712       12.948        0.016      330.398       -2.256      869.404
01/01/2014  06:30:00      -92.968      -31.008      -10.302       24.243       22.545       13.296      587.700      508.296      176.787        0.549        0.064       98.002        6.443        0.004      330.355       -2.326      869.408
01/01/2014  06:31:00      -78.498      -40.773      -11.032       27.146       28.594       18.761      736.901      817.634      351.969        0.493        0.095       88.456       17.839        0.041      330.359       -2.320      869.405
01/01/2014  06:32:00      -75.071      -57.763      -10.050       35.805       23.651       16.691     1282.005      559.359      278.592        0.560        0.106       94.722       17.216        0.033      330.394       -2.262      869.402
01/01/2014  06:33:00      -79.921      -24.048       -7.505       36.436       27.395       18.801     1327.591      750.509      353.489        0.473        0.122       83.460       16.126        0.037      330.467       -2.143      869.405
01/01/2014  06:34:00      -91.994      -16.092      -13.275       25.855       17.659       11.853      668.502      311.858      140.487        0.501        0.056       93.391       11.028        0.014      330.420       -2.219      869.423
01/01/2014  06:35:00      -81.509      -14.584       -9.521       30.293       19.540       15.601      917.662      381.812      243.399        0.424        0.077       82.803       15.768        0.036      330.444       -2.179      869.434
01/01/2014  06:36:00      -75.692      -29.608       -7.530       18.154       25.783       12.932      329.563      664.754      167.241        0.391        0.058       81.276        4.854        0.004      330.445       -2.178      869.435
01/01/2014  06:37:00      -84.769       -7.997      -14.372       22.918       12.533       11.234      525.254      157.083      126.202        0.413        0.040       85.145        9.927        0.014      330.417       -2.223      869.432
01/01/2014  06:38:00     -108.376       -5.827      -24.903       15.169       12.030       14.818      230.084      144.714      219.584        0.650        0.030      108.532        5.672        0.003      330.434       -2.197      869.430
01/01/2014  06:39:00     -112.546        0.203      -17.714       18.594       20.392       13.779      345.725      415.841      189.871        0.697        0.048      112.546        8.285        0.005      330.407       -2.240      869.433
01/01/2014  06:40:00      -98.522      -17.101      -15.342       18.721       21.682       15.749      350.484      470.092      248.028        0.565        0.053       99.995       14.523        0.021      330.394       -2.262      869.430
01/01/2014  06:41:00     -113.188       -7.813      -16.042       19.472       16.110       12.057      379.161      259.542      145.379        0.696        0.039      113.457        9.387        0.007      330.310       -2.399      869.423
01/01/2014  06:42:00     -116.381       -6.317      -16.405       24.539       14.252       13.936      602.177      203.111      194.222        0.743        0.050      116.553        4.921        0.002      330.318       -2.385      869.424
01/01/2014  06:43:00     -113.698      -18.562       -9.610       20.450       18.520       15.892      418.216      342.986      252.560        0.719        0.051      115.203       10.196        0.008      330.323       -2.376      869.428
01/01/2014  06:44:00      -87.493      -27.099      -12.021       17.248       22.264       15.763      297.496      495.690      248.456        0.479        0.052       91.594        9.342        0.010      330.357       -2.321      869.432
01/01/2014  06:45:00      -76.763      -15.298      -16.706       14.552       15.609       10.352      211.762      243.630      107.172        0.348        0.028       78.273        6.744        0.007      330.431       -2.200      869.447
01/01/2014  06:46:00      -68.079      -26.144      -12.302       22.476       20.888       13.190      505.168      436.318      173.985        0.329        0.056       72.926        4.457        0.004      330.433       -2.199      869.464
01/01/2014  06:47:00      -78.156      -41.110      -14.067       26.927       22.571       12.626      725.066      509.435      159.428        0.469        0.070       88.308        8.894        0.010      330.412       -2.233      869.468
01/01/2014  06:48:00      -97.782      -46.677      -10.798       14.324       13.973       12.019      205.189      195.252      144.448        0.620        0.027      108.351        9.078        0.007      330.388       -2.271      869.462
01/01/2014  06:49:00     -102.547      -40.150       -9.833       12.766       13.535        9.110      162.962      183.188       82.986        0.633        0.021      110.127        5.091        0.002      330.437       -2.192      869.459
01/01/2014  06:50:00     -106.718      -26.436      -10.354       18.436       16.268       13.119      339.878      264.633      172.107        0.649        0.039      109.944        8.457        0.006      330.611       -1.905      869.447
01/01/2014  06:51:00      -91.840      -43.376       -2.132       14.691       13.309       13.071      215.836      177.121      170.845        0.544        0.028      101.568        7.048        0.005      330.628       -1.876      869.422
01/01/2014  06:52:00      -84.646      -20.056       -0.100       26.583       21.924       16.639      706.682      480.659      276.844        0.452        0.073       86.990       16.578        0.036      330.578       -1.958      869.407
01/01/2014  06:53:00      -59.140      -12.123       -0.117       23.723       20.622       12.634      562.762      425.260      159.626        0.240        0.057       60.370       11.893        0.039      330.615       -1.899      869.389
01/01/2014  06:54:00      -67.188      -12.448       -3.203       20.502       15.700       10.420      420.343      246.485      108.567        0.273        0.039       68.331        7.252        0.011      330.489       -2.106      869.378
01/01/2014  06:55:00      -66.474      -16.684        2.245       23.066       15.903       13.173      532.048      252.911      173.530        0.283        0.048       68.536       13.446        0.038      330.418       -2.221      869.377
01/01/2014  06:56:00      -73.364      -18.099       -5.293       16.343       15.446       11.599      267.085      238.573      134.544        0.319        0.032       75.564        8.347        0.012      330.497       -2.093      869.383
01/01/2014  06:57:00      -80.527      -17.813       -7.921       15.758       16.837       12.403      248.312      283.479      153.823        0.378        0.034       82.474        8.348        0.010      330.503       -2.082      869.390
01/01/2014  06:58:00      -73.890      -19.619       -1.803       11.591       12.853        8.979      134.352      165.203       80.627        0.311        0.019       76.450        7.010        0.008      330.500       -2.088      869.404
01/01/2014  06:59:00      -65.857      -25.883       -3.992       13.450       12.430       10.613      180.915      154.516      112.629        0.274        0.022       70.760        7.107        0.010      330.533       -2.032      869.416
01/01/2014  07:00:00      -82.902      -11.982       -5.006       16.849       13.959       11.152      283.904      194.862      124.377        0.382        0.030       83.763        9.642        0.013      330.503       -2.082      869.434
01/01/2014  07:01:00      -79.458      -33.444       -9.115       11.829       13.933        8.017      139.919      194.126       64.277        0.396        0.020       86.209        6.278        0.005      330.539       -2.024      869.453
01/01/2014  07:02:00      -66.646      -10.111       -6.096       18.608       14.267       11.456      346.256      203.561      131.247        0.263        0.034       67.409       10.170        0.023      330.519       -2.056      869.462
01/01/2014  07:03:00      -87.982      -16.903       -4.579       18.380       12.717       12.076      337.816      161.730      145.826        0.435        0.032       89.591        5.663        0.004      330.513       -2.066      869.470
01/01/2014  07:04:00      -85.652      -11.177       -7.680       22.067       12.354       10.743      486.956      152.618      115.420        0.414        0.038       86.378       10.363        0.014      330.476       -2.127      869.474
01/01/2014  07:05:00      -68.792       -5.484       -1.324       25.739       17.771       14.005      662.502      315.793      196.130        0.297        0.059       69.011       13.108        0.036      330.415       -2.226      869.485
01/01/2014  07:06:00      -70.944      -18.260       -5.093       17.100       14.553       12.680      292.399      211.804      160.782        0.303        0.033       73.256       11.025        0.023      330.464       -2.147      869.492
01/01/2014  07:07:00      -66.778      -14.342        0.574       23.874       15.721       11.986      569.951      247.162      143.669        0.281        0.048       68.301       10.837        0.025      330.461       -2.152      869.491
01/01/2014  07:08:00      -47.412       -7.331       -3.215       16.907       12.834        8.963      285.848      164.721       80.339        0.142        0.027       47.975        5.075        0.011      330.412       -2.233      869.487
01/01/2014  07:09:00      -42.135      -13.167       -2.937       15.049       13.033        7.908      226.467      169.861       62.532        0.121        0.023       44.144        4.313        0.010      330.461       -2.152      869.490
01/01/2014  07:10:00      -26.444       -4.526       -3.157       10.294       10.298        6.995      105.964      106.052       48.932        0.050        0.013       26.829        7.276        0.074      330.457       -2.158      869.503
01/01/2014  07:11:00      -25.516       -4.358       -5.838        7.766        5.716        4.915       60.313       32.673       24.160        0.041        0.006       25.886        4.795        0.034      330.540       -2.021      869.526
01/01/2014  07:12:00      -23.344      -15.167       -4.258       11.971       11.521        5.924      143.299      132.741       35.097        0.055        0.016       27.839        4.243        0.023      330.839       -1.531      869.543
01/01/2014  07:13:00      -28.173        0.745        0.424       13.555        9.189        9.168      183.749       84.435       84.057        0.057        0.018       28.183        7.976        0.080      330.775       -1.637      869.557
01/01/2014  07:14:00        3.660       -2.267        8.559        4.696        4.821        5.886       22.054       23.238       34.645        0.009        0.004        4.305        2.555        0.352      330.738       -1.698      869.562
01/01/2014  07:15:00       -2.279        1.876        6.377        4.416        3.284        2.546       19.502       10.787        6.484        0.004        0.002        2.952        1.315        0.198      330.674       -1.803      869.560
01/01/2014  07:16:00      -11.360       -1.463        3.286        5.034        3.378        4.667       25.345       11.410       21.778        0.010        0.003       11.454        3.353        0.086      330.657       -1.830      869.558
01/01/2014  07:17:00       -4.736       -2.972        3.686        4.543        5.361        4.256       20.643       28.742       18.114        0.006        0.003        5.591        3.373        0.364      330.585       -1.948      869.556
01/01/2014  07:18:00        6.792        7.817        7.869        7.628        5.268        6.208       58.187       27.752       38.538        0.015        0.006       10.355        3.848        0.138      330.606       -1.913      869.560
01/01/2014  07:19:00        7.270       15.189        3.424        5.096        8.318        3.529       25.965       69.195       12.452        0.020        0.005       16.839        1.803        0.011      330.600       -1.923      869.564
01/01/2014  07:20:00       10.969       22.059       -2.493       10.380        7.232        8.102      107.739       52.308       65.636        0.042        0.011       24.636        5.041        0.042      330.526       -2.046      869.561
01/01/2014  07:21:00        2.243       13.476        2.081        4.631        3.998        4.544       21.442       15.985       20.646        0.012        0.003       13.662        3.631        0.071      330.628       -1.877      869.559
01/01/2014  07:22:00      -10.384        3.837       10.175        9.103        7.626        3.598       82.868       58.152       12.943        0.019        0.008       11.070        2.485        0.050      330.580       -1.956      869.561
01/01/2014  07:23:00      -22.988       -8.229       -4.465        9.193        7.323        8.378       84.504       53.632       70.194        0.041        0.010       24.416        6.646        0.074      330.519       -2.056      869.577
01/01/2014  07:24:00      -27.592        0.366       -4.100        5.273        4.344        4.218       27.801       18.873       17.789        0.042        0.003       27.595        2.819        0.010      330.583       -1.950      869.599
01/01/2014  07:25:00      -35.487        5.113       -4.348        4.202        3.262        3.769       17.660       10.638       14.207        0.067        0.002       35.853        1.057        0.001      330.487       -2.108      869.625
01/01/2014  07:26:00      -34.129        1.212       -4.767        4.351        3.260        3.043       18.934       10.625        9.260        0.061        0.002       34.151        1.055        0.001      330.537       -2.027      869.649
01/01/2014  07:27:00      -31.224      -19.442       -8.882        8.930       10.864        8.176       79.747      118.028       66.847        0.085        0.013       36.782        4.184        0.013      330.427       -2.206      869.668
01/01/2014  07:28:00      -36.246      -22.932       -8.792       12.564       10.404        9.763      157.848      108.243       95.309        0.114        0.018       42.891        4.303        0.010      330.236       -2.520      869.674
01/01/2014  07:29:00      -52.021      -31.505       -3.094       12.405       11.479        8.105      153.887      131.761       65.688        0.203        0.018       60.817        4.738        0.006      330.177       -2.618      869.678
01/01/2014  07:30:00      -60.412      -17.470       -6.438       10.160       10.424        6.525      103.220      108.665       42.576        0.213        0.013       62.887        2.783        0.002      330.211       -2.563      869.670
01/01/2014  07:31:00      -54.817      -15.283       -6.885        6.139        8.953        5.159       37.685       80.163       26.616        0.172        0.007       56.907        2.561        0.002      330.204       -2.574      869.672
01/01/2014  07:32:00      -57.921      -22.957       -9.197       17.179       12.229        9.612      295.135      149.544       92.388        0.225        0.027       62.305        7.976        0.016      330.137       -2.684      869.684
01/01/2014  07:33:00      -62.512      -11.363       -8.442       10.393       10.031        7.553      108.004      100.614       57.044        0.219        0.013       63.536        3.442        0.003      330.123       -2.707      869.685
01/01/2014  07:34:00      -37.187       -8.648       -4.294       13.597       14.478       11.934      184.891      209.616      142.426        0.101        0.027       38.180        7.868        0.042      330.108       -2.730      869.681
01/01/2014  07:35:00      -43.568        0.763        1.415       28.704       14.393       13.072      823.900      207.168      170.868        0.155        0.060       43.575       15.485        0.126      330.157       -2.650      869.669
01/01/2014  07:36:00      -64.717       -8.051       -3.781       16.726       15.757        8.986      279.749      248.270       80.756        0.244        0.030       65.216        7.488        0.013      330.142       -2.675      869.666
01/01/2014  07:37:00      -56.890       -1.948        2.630       32.263       15.289       15.196     1040.906      233.768      230.928        0.238        0.075       56.923       17.311        0.092      330.124       -2.704      869.666
01/01/2014  07:38:00      -35.919       -0.053        2.570       25.405       12.982       13.305      645.424      168.521      177.016        0.114        0.050       35.920       11.896        0.110      330.137       -2.684      869.674
01/01/2014  07:39:00      -20.639        7.051        6.384       22.822        9.696       10.000      520.841       94.003       99.993        0.062        0.036       21.810        9.791        0.202      330.323       -2.377      869.681
01/01/2014  07:40:00      -15.981       14.898       -3.483       12.881       13.618       10.885      165.912      185.438      118.478        0.048        0.023       21.848        9.271        0.180      330.543       -2.016      869.686
01/01/2014  07:41:00      -30.511       -0.704       -5.405       10.708        8.044        6.654      114.655       64.705       44.281        0.059        0.011       30.519        4.029        0.017      330.548       -2.008      869.689
01/01/2014  07:42:00      -53.469       -7.946       -4.882        9.367       11.749        8.214       87.739      138.035       67.472        0.162        0.015       54.056        5.943        0.012      330.445       -2.177      869.680
01/01/2014  07:43:00      -62.805       11.079      -10.491        7.000       10.549        5.845       48.995      111.291       34.169        0.219        0.010       63.775        1.262        0.000      330.395       -2.262      869.654
01/01/2014  07:44:00      -52.863       -0.046       -8.044        7.630       10.337        4.336       58.219      106.862       18.802        0.152        0.009       52.863        2.507        0.002      330.450       -2.171      869.643
01/01/2014  07:45:00      -33.307      -20.900       -3.783       12.353       11.183        8.772      152.602      125.062       76.948        0.096        0.018       39.321        5.987        0.023      330.402       -2.248      869.648
01/01/2014  07:46:00      -52.023      -21.845      -10.845       10.383       13.703        9.924      107.808      187.775       98.479        0.185        0.020       56.423        6.106        0.012      330.294       -2.425      869.647
01/01/2014  07:47:00      -59.092      -16.900       -6.887       12.354       11.666       10.389      152.633      136.098      107.928        0.211        0.020       61.461        6.196        0.010      330.292       -2.428      869.635
01/01/2014  07:48:00      -47.244       -9.345       -3.083       20.810       14.400       13.805      433.049      207.347      190.577        0.158        0.042       48.159       11.520        0.057      330.261       -2.480      869.642
01/01/2014  07:49:00      -73.834       -9.228       -9.483       20.625       12.474       10.083      425.394      155.598      101.673        0.315        0.034       74.409        8.931        0.014      330.218       -2.549      869.639
01/01/2014  07:50:00      -87.483       -7.091       -6.261       40.343       14.860       10.213     1627.596      220.806      104.308        0.485        0.098       87.770       14.310        0.027      330.239       -2.514      869.628
01/01/2014  07:51:00      -86.803       -2.559       -7.850       23.309       13.373       11.477      543.330      178.850      131.723        0.423        0.043       86.840       11.958        0.019      330.204       -2.575      869.630
01/01/2014  07:52:00      -83.132       -8.841       -9.456       23.408       15.395       11.905      547.933      237.007      141.718        0.400        0.046       83.601        7.913        0.009      330.154       -2.655      869.613
01/01/2014  07:53:00      -79.634       -5.261       -5.472       21.961       21.075       15.589      482.264      444.160      243.011        0.378        0.058       79.807       12.421        0.024      330.173       -2.624      869.612
01/01/2014  07:54:00      -71.628        2.984       -4.086       33.933       15.668       16.964     1151.447      245.472      287.776        0.342        0.084       71.690       17.590        0.060      330.270       -2.462      869.599
01/01/2014  07:55:00      -49.800       -3.126       -6.370       27.607       12.900       13.577      762.137      166.404      184.341        0.182        0.056       49.898       15.936        0.102      330.317       -2.387      869.609
01/01/2014  07:56:00      -47.650       -0.943       -6.107       10.463        9.396        7.825      109.464       88.288       61.227        0.128        0.013       47.660        6.278        0.017      330.424       -2.212      869.617
01/01/2014  07:57:00      -43.644       -0.615       -6.450       11.995       11.267        8.233      143.882      126.954       67.783        0.114        0.017       43.649        7.053        0.026      330.550       -2.005      869.619
01/01/2014  07:58:00      -49.538       -8.176       -8.582        7.147        9.862        6.224       51.078       97.249       38.744        0.139        0.009       50.208        4.774        0.009      330.641       -1.857      869.620
01/01/2014  07:59:00      -61.054      -20.988      -10.027        7.314       10.486        6.396       53.497      109.966       40.909        0.224        0.010       64.560        6.247        0.009      330.700       -1.759      869.621
01/01/2014  08:00:00      -62.899      -27.424       -8.037       15.651       15.235       12.546      244.944      232.116      157.410        0.270        0.032       68.618        8.602        0.016      330.653       -1.837      869.627
01/01/2014  08:01:00      -67.045      -17.505       -4.225       22.295       22.021       12.574      497.067      484.935      158.094        0.298        0.057       69.293        9.435        0.019      330.613       -1.902      869.624
01/01/2014  08:02:00      -77.925        8.151       -3.610       21.137       12.736       16.534      446.783      162.218      273.385        0.352        0.044       78.350       14.927        0.036      330.667       -1.815      869.633
01/01/2014  08:03:00      -89.639       -3.101      -10.790       10.038       10.239        9.925      100.758      104.828       98.498        0.423        0.015       89.693        6.002        0.004      330.739       -1.696      869.646
01/01/2014  08:04:00      -74.791       -6.946       -7.857       15.796       11.468       10.578      249.522      131.513      111.887        0.310        0.025       75.113        7.191        0.009      330.697       -1.763      869.660
01/01/2014  08:05:00      -65.135        1.919      -10.327       14.684       12.474       10.202      215.629      155.591      104.078        0.241        0.024       65.164        7.380        0.013      330.722       -1.722      869.669
01/01/2014  08:06:00      -64.543        0.918       -7.477       19.532       19.895       10.835      381.508      395.819      117.399        0.256        0.045       64.550        6.092        0.009      330.833       -1.543      869.685
01/01/2014  08:07:00      -83.673      -22.776      -10.775       17.377       14.762       10.950      301.945      217.912      119.910        0.414        0.032       86.717        7.109        0.007      330.849       -1.515      869.714
01/01/2014  08:08:00      -59.338       -8.818        0.623       35.080       18.583       19.106     1230.593      345.343      365.055        0.277        0.097       59.990       17.656        0.087      330.899       -1.433      869.757
01/01/2014  08:09:00      -44.390        1.935       -6.580       20.612       19.047       15.143      424.834      362.805      229.297        0.152        0.051       44.432        9.674        0.047      330.971       -1.314      869.781
01/01/2014  08:10:00      -85.822       -4.883      -10.548       24.099       22.460       17.961      580.760      504.465      322.608        0.445        0.070       85.961       14.729        0.029      331.036       -1.209      869.816
01/01/2014  08:11:00      -91.796      -16.667       -8.789       27.636       20.842       17.484      763.732      434.383      305.687        0.514        0.075       93.297       15.872        0.029      330.886       -1.453      869.834
01/01/2014  08:12:00      -84.980       -8.410       -4.048       21.946       22.905       13.234      481.638      524.640      175.133        0.424        0.059       85.395        7.945        0.009      330.922       -1.396      869.827
01/01/2014  08:13:00      -29.982       -9.485       -8.220       13.080       18.504       10.081      171.091      342.395      101.629        0.084        0.031       31.447        8.298        0.070      331.063       -1.163      869.813
01/01/2014  08:14:00      -21.795      -11.633        0.278       11.979       15.314       11.742      143.498      234.532      137.868        0.056        0.026       24.705        8.904        0.130      331.215       -0.914      869.791
01/01/2014  08:15:00      -25.127       -5.059       -3.711       12.238       11.072        9.701      149.758      122.594       94.111        0.052        0.018       25.631        9.712        0.144      331.227       -0.895      869.783
01/01/2014  08:16:00      -40.545       -3.453       -6.928       11.477        8.786        6.789      131.720       77.198       46.097        0.098        0.013       40.691        4.439        0.012      331.134       -1.046      869.771
01/01/2014  08:17:00      -30.657       -9.358       -2.769       10.316        6.584        5.912      106.417       43.344       34.950        0.061        0.009       32.053        3.552        0.012      331.371       -0.655      869.770
01/01/2014  08:18:00      -14.985       -4.356        3.482        7.241        6.836        6.509       52.433       46.737       42.366        0.020        0.007       15.605        5.375        0.119      331.655       -0.189      869.777
01/01/2014  08:19:00       11.130        7.410        6.800       18.042       10.796        8.685      325.514      116.560       75.435        0.037        0.026       13.371       11.541        0.745      331.999        0.377      869.790
01/01/2014  08:20:00       31.366       19.350        4.910       11.807        8.071        9.976      139.397       65.144       99.514        0.084        0.015       36.855        9.302        0.064      331.813        0.070      869.813
01/01/2014  08:21:00       43.130       13.389        1.186       17.364       17.545       14.047      301.496      307.819      197.319        0.142        0.040       45.160       11.543        0.065      331.784        0.021      869.823
01/01/2014  08:22:00       37.930       21.311       16.770       19.460       13.869       18.060      378.691      192.351      326.179        0.154        0.045       43.507       13.535        0.097      331.757       -0.021      869.834
01/01/2014  08:23:00       26.836       26.925       13.869       20.574       14.561       24.412      423.284      212.025      595.926        0.143        0.062       38.015       17.925        0.222      331.823        0.086      869.839
01/01/2014  08:24:00       20.255       30.154       14.801       17.913       13.546       19.509      320.863      183.491      380.615        0.121        0.044       36.325       14.011        0.149      331.879        0.180      869.848
01/01/2014  08:25:00        3.791       28.141       19.718       10.015       14.450       16.428      100.291      208.791      269.885        0.089        0.029       28.396        9.229        0.106      332.002        0.382      869.856
01/01/2014  08:26:00       33.653       29.614       27.860       29.224       19.076       20.090      854.040      363.887      403.616        0.220        0.081       44.828       17.415        0.151      332.026        0.420      869.859
01/01/2014  08:27:00       22.593       30.012       37.620       23.649       19.441       16.278      559.266      377.952      264.966        0.201        0.060       37.566        9.664        0.066      332.065        0.483      869.872
01/01/2014  08:28:00        3.364       36.509       47.875       21.866       20.261       14.720      478.104      410.498      216.674        0.237        0.055       36.663       14.637        0.159      332.079        0.509      869.887
01/01/2014  08:29:00        6.370       33.277       53.544       21.357       23.703       10.948      456.136      561.816      119.852        0.258        0.057       33.881       12.790        0.142      332.092        0.530      869.887
01/01/2014  08:30:00       -3.571       20.473       51.652       15.614       21.396       16.372      243.808      457.784      268.030        0.203        0.048       20.782       16.434        0.625      332.230        0.756      869.891
01/01/2014  08:31:00        4.897       23.168       45.524       27.721       21.554       16.514      768.432      464.577      272.719        0.207        0.075       23.680       15.191        0.412      332.265        0.815      869.883
01/01/2014  08:32:00        4.742       49.112       53.993       19.770       25.010       18.117      390.871      625.478      328.228        0.335        0.067       49.340       17.979        0.133      332.093        0.532      869.877
01/01/2014  08:33:00       36.455       53.600       51.903       20.290       14.908       10.828      411.688      222.245      117.253        0.382        0.038       64.822        7.423        0.013      332.008        0.390      869.884
01/01/2014  08:34:00        4.527       20.250       48.846       14.282       26.683       17.781      203.964      711.982      316.156        0.202        0.062       20.750       15.433        0.553      332.213        0.729      869.900
01/01/2014  08:35:00        1.696        0.018       40.977       18.609       30.713       18.777      346.288      943.309      352.573        0.166        0.082        1.696       17.589      107.534      332.510        1.219      869.922
01/01/2014  08:36:00        9.879       -2.102       32.128       19.719       28.954       26.613      388.854      838.351      708.253        0.153        0.097       10.101       22.243        4.849      332.493        1.192      869.939
01/01/2014  08:37:00       -0.834        7.358       35.538       16.783       16.032       12.660      281.658      257.011      160.287        0.101        0.035        7.405        9.284        1.572      332.597        1.364      869.949
01/01/2014  08:38:00       -3.776        1.214       33.687       12.671       17.457       15.737      160.559      304.735      247.654        0.093        0.036        3.967       12.798       10.410      332.694        1.523      869.948
01/01/2014  08:39:00       -7.070        3.811       26.647       16.560       21.131       14.236      274.219      446.525      202.665        0.085        0.046        8.031        8.740        1.184      332.494        1.193      869.955
01/01/2014  08:40:00      -16.985       15.769       41.129       14.053       19.738       21.048      197.490      389.598      443.030        0.163        0.052       23.177       14.900        0.413      332.566        1.313      869.957
01/01/2014  08:41:00      -11.767       12.005       40.024        9.914       22.420       24.824       98.295      502.641      616.236        0.155        0.061       16.810       17.531        1.088      332.500        1.203      869.958
01/01/2014  08:42:00       27.375       21.516       21.715       29.591       28.597       22.381      875.648      817.807      500.923        0.194        0.110       34.819       21.643        0.386      332.426        1.083      869.954
01/01/2014  08:43:00      -10.036       36.774       54.605       12.735       24.292       14.428      162.191      590.094      208.178        0.270        0.048       38.118       11.724        0.095      332.606        1.378      869.951
01/01/2014  08:44:00       -5.403       39.170       50.849       11.107       17.494       13.068      123.362      306.051      170.779        0.237        0.030       39.541        9.224        0.054      332.560        1.303      869.949
01/01/2014  08:45:00        1.292       43.539       64.218       33.552       32.398       19.422     1125.731     1049.651      377.206        0.429        0.128       43.559       15.524        0.127      332.476        1.163      869.948
01/01/2014  08:46:00        3.727       34.536       59.195       26.910       26.878       13.689      724.156      722.409      187.388        0.317        0.082       34.737        9.557        0.076      332.394        1.028      869.950
01/01/2014  08:47:00      -13.651        1.215       38.045       20.185       36.680       17.546      407.424     1345.420      307.877        0.185        0.103       13.705       19.973        2.124      332.438        1.101      869.950
01/01/2014  08:48:00      -12.738        8.195       38.144       15.812       25.515       22.385      250.031      651.000      501.101        0.154        0.070       15.147       21.194        1.958      332.741        1.600      869.964
01/01/2014  08:49:00       10.754      -38.022       29.965       19.355       43.810       32.360      374.630     1919.329     1047.164        0.290        0.167       39.514       25.021        0.401      332.674        1.489      869.984
01/01/2014  08:50:00       11.304        7.851       50.974       22.801       39.101       22.802      519.890     1528.898      519.922        0.268        0.128       13.763       26.921        3.826      332.661        1.469      869.993
01/01/2014  08:51:00       22.996       49.661       53.020       23.072       16.338       16.344      532.310      266.938      267.125        0.344        0.053       54.727       13.512        0.061      332.383        1.010      870.004
01/01/2014  08:52:00        6.041       22.795       32.295       20.157       21.588       10.678      406.320      466.027      114.028        0.129        0.049       23.582        1.938        0.007      332.585        1.345      870.017
01/01/2014  08:53:00       -0.157        1.989       24.545        8.869       16.220       10.706       78.655      263.075      114.613        0.053        0.023        1.995        9.207       21.305      332.991        2.013      870.037
01/01/2014  08:54:00      -13.287        2.096       10.046       12.730        7.969       16.977      162.059       63.511      288.208        0.040        0.026       13.451       11.920        0.785      332.772        1.653      870.054
01/01/2014  08:55:00      -34.112      -11.898       -0.228       13.672        9.714        5.727      186.921       94.359       32.795        0.081        0.016       36.127        5.581        0.024      332.288        0.854      870.085
01/01/2014  08:56:00      -27.466      -15.205        1.945       20.174       12.885       12.025      406.995      166.024      144.596        0.085        0.036       31.394       13.417        0.183      332.456        1.131      870.097
01/01/2014  08:57:00      -18.068      -23.982       -0.198       12.499        9.276        6.981      156.222       86.053       48.736        0.060        0.015       30.026        3.245        0.012      332.346        0.949      870.112
01/01/2014  08:58:00      -20.961      -19.792       -0.850       16.477       11.192        7.409      271.492      125.269       54.893        0.064        0.023       28.829        6.549        0.052      332.453        1.126      870.133
01/01/2014  08:59:00      -25.887       -8.724        0.100       19.366        8.597        9.403      375.026       73.909       88.418        0.064        0.027       27.318        5.645        0.043      332.469        1.151      870.144
01/01/2014  09:00:00      -37.341      -27.240        3.166       19.338       12.080       10.775      373.961      145.933      116.108        0.139        0.032       46.221        7.489        0.026      332.384        1.010      870.157
01/01/2014  09:01:00      -30.574      -31.507       -5.101       17.158       17.690       12.305      294.392      312.952      151.417        0.136        0.038       43.903        5.827        0.018      332.410        1.053      870.164
01/01/2014  09:02:00      -25.640      -37.155        7.085       28.443       23.911       12.547      808.981      571.740      157.432        0.181        0.077       45.143       14.334        0.101      332.573        1.324      870.178
01/01/2014  09:03:00      -54.592      -13.529        8.324       31.960       26.824       15.555     1021.433      719.504      241.971        0.261        0.099       56.243       20.074        0.127      332.587        1.346      870.175
01/01/2014  09:04:00      -49.881      -36.565        2.030       28.062       27.355       13.572      787.470      748.289      184.190        0.277        0.086       61.847       12.190        0.039      332.514        1.225      870.167
01/01/2014  09:05:00        0.386       13.108       25.254       15.131       16.126       14.952      228.957      260.052      223.563        0.076        0.036       13.114       10.476        0.638      333.391        2.675      870.157
01/01/2014  09:06:00      -16.241       22.207       31.931       17.553       19.267       17.605      308.100      371.220      309.937        0.138        0.049       27.513       13.445        0.239      333.181        2.328      870.149
01/01/2014  09:07:00       -4.078       11.554       33.375       10.640       19.775       11.219      113.213      391.058      125.864        0.095        0.032       12.252        6.728        0.302      333.528        2.902      870.141
01/01/2014  09:08:00       36.980       38.102       25.256       34.088       26.690       25.268     1161.961      712.378      638.473        0.298        0.126       53.097       21.710        0.167      333.208        2.373      870.138
01/01/2014  09:09:00      -13.664       27.021       70.429       17.497       28.301       21.658      306.148      800.974      469.072        0.373        0.079       30.280       16.471        0.296      333.361        2.626      870.150
01/01/2014  09:10:00       38.455       64.230       64.052       37.764       39.616       24.901     1426.082     1569.400      620.058        0.666        0.181       74.862       17.630        0.055      332.859        1.796      870.150
01/01/2014  09:11:00       19.509       62.321       73.521       30.776       34.633       22.088      947.190     1199.444      487.879        0.615        0.132       65.303       21.080        0.104      332.912        1.883      870.141
01/01/2014  09:12:00       81.331       90.498       63.479       35.603       24.765       32.789     1267.553      613.322     1075.112        1.089        0.148      121.674       23.377        0.037      332.775        1.657      870.134
01/01/2014  09:13:00       13.430       49.672       68.880       38.423       36.973       19.324     1476.364     1366.973      373.399        0.530        0.161       51.456       17.053        0.110      333.028        2.074      870.129
01/01/2014  09:14:00        1.363       72.765       87.442       27.360       32.415       19.562      748.567     1050.741      382.673        0.756        0.109       72.778       19.094        0.069      332.931        1.915      870.118
01/01/2014  09:15:00       13.463       44.244       61.078       28.385       23.287       17.964      805.688      542.298      322.718        0.377        0.084       46.247       11.912        0.066      333.041        2.097      870.112
01/01/2014  09:16:00       29.728       44.637       57.336       42.117       45.060       35.116     1773.809     2030.423     1233.101        0.560        0.252       53.631       27.969        0.272      333.007        2.042      870.109
01/01/2014  09:17:00       87.278       57.797       29.830       54.548       31.312       40.570     2975.474      980.430     1645.894        0.872        0.280      104.680       33.702        0.104      332.702        1.537      870.097
01/01/2014  09:18:00       98.504       74.851        6.782       27.763       25.947       32.353      770.795      673.267     1046.708        0.892        0.125      123.716       17.390        0.020      332.598        1.364      870.082
01/01/2014  09:19:00       86.942       80.807        2.481       30.839       31.408       23.679      951.048      986.460      560.683        0.830        0.125      118.696       20.504        0.030      332.723        1.571      870.062
01/01/2014  09:20:00       80.576       70.020        4.935       35.052       28.236       31.671     1228.657      797.251     1003.075        0.722        0.151      106.749       24.297        0.052      332.834        1.755      870.052
01/01/2014  09:21:00       84.932       69.340       -1.454       25.889       21.193       26.063      670.266      449.143      679.300        0.691        0.090      109.643       17.556        0.026      332.686        1.510      870.055
01/01/2014  09:22:00       83.189       69.793       34.263       35.835       29.849       30.125     1284.173      890.969      907.536        0.802        0.154      108.589       20.365        0.035      332.974        1.986      870.055
01/01/2014  09:23:00       94.365       74.302       10.971       36.584       37.204       31.072     1338.397     1384.160      965.474        0.912        0.184      120.106       23.721        0.039      332.922        1.899      870.054
01/01/2014  09:24:00       96.220       75.659        4.447       39.590       29.443       35.581     1567.379      866.911     1266.032        0.935        0.185      122.403       24.130        0.039      332.919        1.894      870.040
01/01/2014  09:25:00       39.562       73.761       81.233       60.008       42.654       31.185     3600.974     1819.341      972.490        1.000        0.320       83.701       28.948        0.120      333.161        2.294      870.026
01/01/2014  09:26:00       59.006       79.265       86.261       47.550       45.776       34.920     2260.995     2095.396     1219.424        1.139        0.279       98.817       31.744        0.103      332.869        1.814      870.013
01/01/2014  09:27:00       49.201       73.918       72.055       44.502       47.608       47.176     1980.418     2266.559     2225.565        0.977        0.324       88.795       39.310        0.196      332.904        1.871      870.009
01/01/2014  09:28:00       22.117       58.686       70.610       36.757       55.349       36.528     1351.058     3063.536     1334.321        0.733        0.287       62.715       36.255        0.334      333.063        2.134      870.008
01/01/2014  09:29:00       39.433       69.079       79.445       35.010       29.468       15.686     1225.674      868.336      246.042        0.749        0.117       79.542       13.142        0.027      332.959        1.961      870.004
01/01/2014  09:30:00       51.217       74.572       71.658       53.394       48.265       39.505     2850.928     2329.547     1560.633        1.003        0.337       90.467       33.356        0.136      332.879        1.828      870.009
01/01/2014  09:31:00       15.375       49.002       58.281       36.350       33.926       36.421     1321.311     1150.955     1326.461        0.492        0.190       51.358       27.041        0.277      333.103        2.199      870.005
01/01/2014  09:32:00       34.203       59.944       65.888       46.341       41.349       38.147     2147.507     1709.725     1455.175        0.721        0.266       69.015       37.233        0.291      333.184        2.333      870.005
01/01/2014  09:33:00       72.901       62.823       30.628       46.209       28.855       41.733     2135.261      832.593     1741.657        0.745        0.235       96.236       32.225        0.112      333.000        2.030      869.996
01/01/2014  09:34:00       16.193       44.923       53.261       44.150       30.656       30.418     1949.208      939.781      925.252        0.446        0.191       47.752       28.697        0.361      333.405        2.699      869.991
01/01/2014  09:35:00      112.705       70.639       12.881       46.620       34.987       30.314     2173.456     1224.108      918.927        1.109        0.216      133.012        8.165        0.004      333.216        2.385      869.986
01/01/2014  09:36:00        3.217       31.830       44.303       34.565       32.250       36.240     1194.768     1040.073     1313.307        0.327        0.177       31.992       18.670        0.341      333.458        2.786      869.993
01/01/2014  09:37:00       27.702       68.034       82.550       34.113       43.530       23.758     1163.707     1894.878      564.465        0.792        0.181       73.457       20.549        0.078      333.175        2.318      869.997
01/01/2014  09:38:00       51.708       78.413       59.963       36.067       26.448       27.772     1300.836      699.474      771.260        0.759        0.139       93.927        8.616        0.008      333.026        2.070      870.014
01/01/2014  09:39:00       11.080       71.209       62.874       33.195       37.578       31.446     1101.883     1412.104      988.823        0.632        0.175       72.066       20.406        0.080      333.156        2.286      870.028
01/01/2014  09:40:00       -5.955       45.239       80.703       23.719       37.427       18.106      562.605     1400.748      327.816        0.544        0.115       45.629       21.755        0.227      333.398        2.685      870.028
01/01/2014  09:41:00      103.647       76.283       39.695       29.321       22.683       33.267      859.704      514.511     1106.697        1.031        0.124      128.692       22.861        0.032      332.815        1.723      870.041
01/01/2014  09:42:00       68.094       52.016       33.232       36.636       41.992       37.847     1342.163     1763.290     1432.370        0.649        0.227       85.688       25.464        0.088      333.052        2.115      870.052
01/01/2014  09:43:00       16.672       36.678       41.802       30.687       26.842       17.371      941.722      720.516      301.744        0.267        0.098       40.290       14.558        0.131      333.507        2.868      870.071
01/01/2014  09:44:00       17.981       42.835       42.888       30.710       28.523       18.936      943.086      813.569      358.575        0.306        0.106       46.456       17.020        0.134      333.564        2.961      870.075
01/01/2014  09:45:00       66.775       69.095       17.866       41.702       38.945       33.445     1739.028     1516.714     1118.560        0.696        0.219       96.089       31.202        0.105      333.232        2.413      870.077
01/01/2014  09:46:00       81.374       48.175       14.324       35.488       29.636       25.460     1259.377      878.288      648.214        0.597        0.139       94.565       10.691        0.013      333.171        2.311      870.079
01/01/2014  09:47:00      101.210       75.940       18.652       35.198       29.672       31.069     1238.872      880.449      965.296        0.972        0.154      126.532       21.799        0.030      333.168        2.306      870.078
01/01/2014  09:48:00       64.317       57.218        5.298       32.151       24.179       21.159     1033.664      584.614      447.704        0.475        0.103       86.084       14.420        0.028      333.118        2.224      870.088
01/01/2014  09:49:00       54.386       34.020        0.640       15.616       11.341       17.605      243.869      128.616      309.937        0.240        0.034       64.150        5.637        0.008      332.996        2.021      870.105
01/01/2014  09:50:00       19.005       12.576       -6.684       10.971       10.023        8.820      120.363      100.454       77.793        0.043        0.015       22.789        4.533        0.040      333.178        2.323      870.111
01/01/2014  09:51:00      -16.478       13.498        1.533       16.997       11.683       14.852      288.901      136.494      220.570        0.055        0.032       21.301        5.931        0.078      333.442        2.760      870.105
01/01/2014  09:52:00        9.833        6.389       20.471       13.339       11.669       14.781      177.928      136.161      218.477        0.054        0.027       11.726        6.983        0.355      334.036        3.745      870.096
01/01/2014  09:53:00        6.064       22.826       10.093       15.687       22.868       19.191      246.077      522.962      368.301        0.090        0.057       23.618       16.362        0.480      333.880        3.485      870.080
01/01/2014  09:54:00       25.934       33.843       26.053       39.345       31.710       36.939     1548.027     1005.494     1364.471        0.321        0.196       42.637       22.301        0.274      333.834        3.410      870.073
01/01/2014  09:55:00       45.020       50.301       26.406       34.444       24.511       31.762     1186.395      600.780     1008.820        0.402        0.140       67.506       22.518        0.111      333.580        2.988      870.057
01/01/2014  09:56:00       32.896       59.361       16.597       27.160       35.318       29.220      737.690     1247.344      853.806        0.386        0.142       67.866       27.023        0.159      333.541        2.923      870.051
01/01/2014  09:57:00        6.130       32.233       34.118       22.976       19.841       28.056      527.904      393.666      787.166        0.197        0.085       32.811       14.912        0.207      333.874        3.476      870.031
01/01/2014  09:58:00       34.034       35.276       30.751       28.015       21.880       27.888      784.836      478.718      777.732        0.269        0.102       49.018       14.841        0.092      333.900        3.519      870.014
01/01/2014  09:59:00       47.335       46.950       16.777       37.030       17.002       24.780     1371.190      289.073      614.030        0.350        0.114       66.670       15.955        0.057      333.725        3.227      870.006
01/01/2014  10:00:00       24.714       41.867        4.948       22.190       31.047       21.708      492.395      963.933      471.236        0.216        0.096       48.617       13.797        0.081      333.872        3.472      870.013
01/01/2014  10:01:00       32.439       67.332       34.290       47.265       30.685       31.011     2233.965      941.595      961.667        0.545        0.207       74.739       32.919        0.194      333.832        3.407      870.010
01/01/2014  10:02:00       10.425       39.026       59.983       26.886       34.535       17.874      722.850     1192.636      319.484        0.373        0.112       40.394       12.562        0.097      334.169        3.965      870.002
01/01/2014  10:03:00       -2.464       30.784       47.206       10.931       25.079       17.144      119.483      628.980      293.932        0.211        0.052       30.882       13.759        0.199      334.259        4.113      869.988
01/01/2014  10:04:00        6.487       50.813       73.540       19.029       28.265       14.143      362.100      798.894      200.023        0.470        0.068       51.226       10.300        0.040      334.089        3.831      869.975
01/01/2014  10:05:00       22.627       43.908       59.379       24.606       21.838       13.779      605.473      476.914      189.857        0.362        0.064       49.395       10.124        0.042      333.859        3.451      869.965
01/01/2014  10:06:00       27.838       32.745       37.713       25.139       24.975       18.170      631.981      623.755      330.162        0.243        0.079       42.979        8.962        0.043      333.958        3.615      869.951
01/01/2014  10:07:00       -6.595      -11.795       18.677       15.056       29.137       14.646      226.685      848.983      214.496        0.091        0.065       13.513        7.076        0.274      334.159        3.948      869.923
01/01/2014  10:08:00       -7.670      -40.998       14.322       34.364       37.922       18.145     1180.859     1438.060      329.252        0.245        0.147       41.709       16.021        0.148      334.083        3.823      869.912
01/01/2014  10:09:00       43.185      -84.996       11.750       47.207       33.355       35.043     2228.511     1112.550     1228.004        0.690        0.228       95.338       29.355        0.095      333.905        3.527      869.902
01/01/2014  10:10:00       26.664       19.453       39.440       30.616       56.019       39.141      937.327     3138.113     1532.009        0.413        0.280       33.006       31.235        0.896      333.993        3.672      869.893
01/01/2014  10:11:00       47.573       86.327       85.691       41.792       36.175       23.596     1746.534     1308.600      556.750        1.033        0.181       98.568       21.865        0.049      333.849        3.434      869.893
01/01/2014  10:12:00       88.680       55.943       43.334       34.331       49.504       25.302     1178.595     2450.597      640.170        0.857        0.213      104.851       23.225        0.049      333.702        3.189      869.880
01/01/2014  10:13:00       25.960       85.183       77.384       31.847       39.415       24.402     1014.231     1553.548      595.446        0.854        0.158       89.051       19.835        0.050      334.087        3.829      869.863
01/01/2014  10:14:00       18.052       25.757       46.340       33.509       35.339       22.832     1122.849     1248.848      521.316        0.301        0.145       31.453       23.787        0.572      334.368        4.294      869.856
01/01/2014  10:15:00        1.277      -12.895       37.853       17.959       48.559       39.290      322.514     2357.994     1543.704        0.291        0.211       12.958       33.981        6.877      334.540        4.580      869.854
01/01/2014  10:16:00       11.209       18.000       47.143       32.166       47.087       30.961     1034.640     2217.213      958.614        0.344        0.211       21.205       27.672        1.703      334.526        4.555      869.852
01/01/2014  10:17:00       19.775       31.785       43.576       35.520       31.320       23.457     1261.675      980.935      550.252        0.305        0.140       37.434       22.787        0.371      334.485        4.490      869.848
01/01/2014  10:18:00        7.582       60.390       77.965       30.208       36.078       24.228      912.517     1301.614      587.016        0.629        0.140       60.864       21.441        0.124      334.414        4.371      869.839
01/01/2014  10:19:00       15.989       57.452       75.677       35.700       28.631       21.194     1274.502      819.745      449.202        0.591        0.127       59.635       15.052        0.064      334.332        4.235      869.836
01/01/2014  10:20:00       49.407       49.162       57.734       35.412       67.689       37.824     1254.023     4581.865     1430.677        0.773        0.363       69.699       45.193        0.420      334.125        3.891      869.826
01/01/2014  10:21:00       67.084       -5.585       22.877       35.713       61.563       44.732     1275.388     3790.002     2000.908        0.606        0.353       67.316       42.718        0.403      334.243        4.086      869.823
01/01/2014  10:22:00       10.133       27.666       54.920       28.530       53.557       33.640      813.945     2868.404     1131.662        0.435        0.241       29.463       38.712        1.726      334.531        4.564      869.824
01/01/2014  10:23:00       12.982       60.959       90.621       32.342       35.161       19.504     1046.010     1236.327      380.420        0.738        0.133       62.326       17.630        0.080      334.503        4.519      869.809
01/01/2014  10:24:00       25.611       68.478       95.078       47.997       35.465       26.110     2303.744     1257.798      681.752        0.931        0.212       73.110       26.432        0.131      334.474        4.470      869.807
01/01/2014  10:25:00       90.439       59.703        3.384       27.139       30.677       27.596      736.527      941.064      761.519        0.710        0.122      108.368       11.176        0.011      334.178        3.981      869.797
01/01/2014  10:26:00       79.098       76.890       62.178       46.827       37.367       29.422     2192.755     1396.298      865.658        1.024        0.223      110.312       23.185        0.044      334.248        4.094      869.783
01/01/2014  10:27:00       60.231       65.089       44.133       36.974       26.985       30.947     1367.048      728.195      957.720        0.643        0.153       88.681       26.172        0.087      334.196        4.009      869.782
01/01/2014  10:28:00        8.455       49.468       75.629       32.145       48.774       28.168     1033.308     2378.922      793.461        0.622        0.210       50.185       19.109        0.145      334.798        5.009      869.768
01/01/2014  10:29:00       21.526      -13.630       37.373       24.790       72.767       34.101      614.533     5295.012     1162.871        0.456        0.354       25.478       37.581        2.176      334.666        4.789      869.756
01/01/2014  10:30:00       21.469      -12.708       40.492       34.589       79.571       48.589     1196.401     6331.550     2360.879        0.607        0.494       24.948       53.698        4.633      334.677        4.808      869.738
01/01/2014  10:31:00       26.628       25.421       40.346       25.233       65.905       41.901      636.724     4343.446     1755.708        0.486        0.337       36.814       48.365        1.726      334.414        4.371      869.712
01/01/2014  10:32:00       42.997      -11.344       29.249       38.407       35.204       28.266     1475.133     1239.320      798.956        0.317        0.176       44.468       12.127        0.074      334.545        4.589      869.697
01/01/2014  10:33:00       42.748       44.793       25.007       27.322       39.308       26.534      746.483     1545.149      704.077        0.373        0.150       61.918       22.625        0.134      334.589        4.661      869.674
01/01/2014  10:34:00       53.302       79.135       58.945       48.096       32.435       36.861     2313.193     1052.001     1358.764        0.865        0.236       95.412       30.045        0.099      334.532        4.566      869.649
01/01/2014  10:35:00        4.627       48.950       72.888       27.196       40.324       20.857      739.635     1626.043      435.014        0.526        0.140       49.168       22.912        0.217      334.686        4.822      869.627
01/01/2014  10:36:00       -6.570      -10.636       21.750       31.134       41.277       39.755      969.349     1703.758     1580.422        0.244        0.213       12.502        7.744        0.384      334.787        4.990      869.607
01/01/2014  10:37:00        7.858       57.320       82.281       29.972       32.101       19.008      898.312     1030.452      361.291        0.620        0.115       57.856       16.115        0.078      334.736        4.905      869.595
01/01/2014  10:38:00        1.182       12.852       60.700       28.039       48.814       26.116      786.184     2382.853      682.039        0.385        0.193       12.906       30.131        5.450      334.981        5.312      869.572
01/01/2014  10:39:00       21.503      -27.469       14.974       34.293       54.277       24.878     1175.981     2946.025      618.927        0.309        0.237       34.884       22.743        0.425      334.894        5.167      869.559
01/01/2014  10:40:00       44.166       58.888       51.241       43.879       27.533       27.992     1925.392      758.044      783.528        0.575        0.173       73.610       17.493        0.056      334.930        5.228      869.536
01/01/2014  10:41:00       59.753       57.349       28.445       38.687       22.010       21.943     1496.691      484.429      481.478        0.507        0.123       82.821        8.978        0.012      334.583        4.653      869.529
01/01/2014  10:42:00       -3.189       15.758       43.227       19.001       34.555       20.680      361.037     1194.061      427.648        0.205        0.099       16.078       11.735        0.533      335.361        5.945      869.510
01/01/2014  10:43:00       -7.949      -25.352       40.774       31.971       52.197       24.329     1022.126     2724.522      591.896        0.335        0.217       26.569       20.842        0.615      335.173        5.631      869.494
01/01/2014  10:44:00       39.023      -61.420       14.407       47.939       53.444       39.052     2298.143     2856.240     1525.067        0.609        0.334       72.768       38.547        0.281      335.047        5.422      869.478
01/01/2014  10:45:00      -14.830      -34.522        9.233       27.936       25.201       25.810      780.432      635.087      666.147        0.179        0.104       37.573       20.983        0.312      335.135        5.568      869.460
01/01/2014  10:46:00       21.654       46.760       54.187       26.558       31.479       26.591      705.317      990.897      707.092        0.400        0.120       51.531       15.035        0.085      334.979        5.310      869.438
01/01/2014  10:47:00       -0.443       18.086       15.822       22.972       35.013       21.939      527.704     1225.918      481.318        0.141        0.112       18.091       17.811        0.969      335.352        5.930      869.406
01/01/2014  10:48:00       10.095       11.955       38.264       35.107       43.097       22.841     1232.470     1857.369      521.708        0.266        0.181       15.647       20.221        1.670      335.466        6.119      869.383
01/01/2014  10:49:00       12.767       58.142       57.691       20.947       28.576       16.718      438.779      816.615      279.475        0.420        0.077       59.528       10.109        0.029      335.287        5.822      869.349
01/01/2014  10:50:00      -16.107       12.221       25.275       12.048       24.293       26.014      145.156      590.164      676.734        0.123        0.071       20.218       17.485        0.748      335.310        5.859      869.325
01/01/2014  10:51:00      -18.715      -32.348       -3.923       19.519       20.030       17.804      381.001      401.204      316.978        0.126        0.055       37.372       13.342        0.127      335.037        5.405      869.294
01/01/2014  10:52:00       -0.539       43.959       63.276       22.743       55.438       34.550      517.225     3073.396     1193.709        0.536        0.239       43.963       41.375        0.886      335.563        6.279      869.272
01/01/2014  10:53:00       43.075       21.626       37.761       32.708       47.169       28.093     1069.824     2224.903      789.216        0.392        0.204       48.199       23.928        0.246      335.108        5.523      869.247
01/01/2014  10:54:00       13.552        7.312       46.661       29.171       43.110       25.881      850.954     1858.484      669.849        0.290        0.169       15.398       25.992        2.849      335.341        5.911      869.230
01/01/2014  10:55:00       32.530       56.513       72.187       51.738       38.417       26.708     2676.816     1475.846      713.321        0.716        0.243       65.207       23.732        0.132      335.385        5.984      869.194
01/01/2014  10:56:00       28.278       61.742       77.737       47.314       32.587       27.460     2238.584     1061.898      754.025        0.735        0.203       67.910       24.778        0.133      335.210        5.693      869.164
01/01/2014  10:57:00        3.846      -11.028       54.484       40.687       44.259       37.993     1655.413     1958.897     1443.446        0.408        0.253       11.679       25.594        4.803      335.610        6.359      869.137
01/01/2014  10:58:00       20.530       31.243       69.337       38.714       43.079       29.122     1498.759     1855.792      848.090        0.520        0.210       37.384       20.999        0.316      335.486        6.151      869.116
01/01/2014  10:59:00       -4.850       73.260       78.934       21.404       39.194       24.784      458.140     1536.136      614.239        0.711        0.130       73.420       16.573        0.051      335.419        6.041      869.092
01/01/2014  11:00:00        1.306       76.854       89.334       28.183       41.204       27.735      794.281     1697.742      769.223        0.857        0.163       76.865       13.839        0.032      335.394        5.999      869.059
01/01/2014  11:01:00       79.854      102.007       86.154       62.898       45.514       42.273     3956.107     2071.491     1786.984        1.601        0.391      129.545       29.639        0.052      335.212        5.696      869.040
01/01/2014  11:02:00       92.463       71.964       43.974       44.747       29.091       30.478     2002.267      846.266      928.898        0.972        0.189      117.167       24.720        0.045      335.028        5.390      869.017
01/01/2014  11:03:00       35.875       24.575       69.134       57.182       95.100       54.630     3269.762     9043.953     2984.421        1.098        0.765       43.485       65.127        2.243      335.210        5.693      869.002
01/01/2014  11:04:00       52.452       62.235       70.962       57.164       52.827       35.888     3267.769     2790.678     1287.935        0.950        0.367       81.390       28.581        0.123      335.171        5.629      868.997
01/01/2014  11:05:00       18.744       49.646       52.592       43.863       48.398       29.794     1923.995     2342.405      887.708        0.537        0.258       53.066       24.068        0.206      335.293        5.831      868.990
01/01/2014  11:06:00       98.614       83.446       19.156       69.336       43.382       38.765     4807.429     1881.966     1502.693        1.262        0.410      129.182       33.995        0.069      335.143        5.581      868.980
01/01/2014  11:07:00      132.638       95.787       13.646       55.442       47.221       34.233     3073.766     2229.817     1171.915        1.671        0.324      163.609       23.549        0.021      335.109        5.526      868.984
01/01/2014  11:08:00       86.061       87.399       58.233       65.027       60.745       58.235     4228.503     3689.974     3391.316        1.487        0.565      122.658       33.249        0.073      335.301        5.844      868.974
01/01/2014  11:09:00       29.218       15.288       59.405       47.313       82.306       59.133     2238.529     6774.279     3496.744        0.856        0.625       32.976       66.644        4.084      335.234        5.732      868.975
01/01/2014  11:10:00       36.347       90.906      104.827       43.474       52.020       27.712     1889.998     2706.074      767.958        1.297        0.268       97.903       30.317        0.096      335.134        5.566      868.951
01/01/2014  11:11:00       75.083       73.092       82.055       47.784       49.520       41.279     2283.304     2452.181     1703.985        1.208        0.322      104.785       38.234        0.133      335.188        5.655      868.938
01/01/2014  11:12:00       57.445       47.694       40.748       55.370       48.234       46.968     3065.888     2326.491     2205.991        0.742        0.380       74.663       40.241        0.290      335.425        6.050      868.909
01/01/2014  11:13:00       32.131       57.532       58.220       40.804       41.029       27.862     1664.935     1683.401      776.300        0.593        0.206       65.896       19.612        0.089      335.783        6.646      868.891
01/01/2014  11:14:00       48.786       69.102       80.221       57.490       51.985       44.869     3305.135     2702.464     2013.191        1.080        0.401       84.589       39.821        0.222      335.360        5.943      868.870
01/01/2014  11:15:00       46.799       54.936       33.294       43.482       51.749       62.287     1890.685     2678.005     3879.697        0.738        0.422       72.167       39.588        0.301      335.268        5.789      868.856
01/01/2014  11:16:00       19.549       45.640       51.759       38.849       38.993       41.794     1509.261     1520.425     1746.737        0.496        0.239       49.650       22.355        0.203      335.611        6.361      868.832
01/01/2014  11:17:00      107.620       79.457       35.177       48.927       23.571       26.368     2393.865      555.604      695.288        1.139        0.182      133.773       22.242        0.028      334.990        5.328      868.825
01/01/2014  11:18:00       20.205       37.912       33.227       46.079       45.740       45.026     2123.319     2092.185     2027.330        0.460        0.312       42.960       36.586        0.725      335.567        6.288      868.805
01/01/2014  11:19:00      -13.411       50.337       90.582       31.177       47.840       25.822      971.985     2288.697      666.777        0.742        0.196       52.093       27.939        0.288      335.523        6.213      868.787
01/01/2014  11:20:00       52.661      -14.483       28.007       47.379       55.920       44.815     2244.736     3127.016     2008.415        0.557        0.369       54.616       48.336        0.783      335.367        5.954      868.781
01/01/2014  11:21:00       52.554      -40.879       18.317       33.689       24.618       25.349     1134.977      606.063      642.566        0.358        0.119       66.580       17.531        0.069      335.217        5.704      868.765
01/01/2014  11:22:00       37.916       44.756       58.830       28.085       30.181       17.220      788.762      910.903      296.529        0.445        0.100       58.658       14.923        0.065      335.449        6.090      868.737
01/01/2014  11:23:00       15.223       47.365       60.782       28.060       31.462       22.645      787.380      989.858      512.775        0.423        0.115       49.751       18.062        0.132      335.588        6.322      868.713
01/01/2014  11:24:00       39.739       50.033       44.024       39.281       27.295       36.659     1542.968      745.032     1343.903        0.483        0.182       63.894       22.641        0.126      335.441        6.076      868.670
01/01/2014  11:25:00       64.797       43.098       21.512       48.601       33.749       38.218     2362.031     1138.972     1460.650        0.574        0.248       77.821       26.855        0.119      335.583        6.312      868.643
01/01/2014  11:26:00       58.412       73.465       47.457       66.069       41.756       43.590     4365.111     1743.524     1900.118        0.953        0.400       93.856       32.526        0.120      335.567        6.288      868.635
01/01/2014  11:27:00      109.265       98.941       78.917       51.178       44.360       39.886     2619.202     1967.853     1590.933        1.707        0.309      147.405       28.076        0.036      335.297        5.838      868.599
01/01/2014  11:28:00       70.973      103.158       81.177       57.259       48.504       41.299     3278.648     2352.658     1705.617        1.480        0.367      125.215       37.610        0.090      335.359        5.939      868.590
01/01/2014  11:29:00       76.666       76.582       34.738       39.538       32.395       38.485     1563.216     1049.419     1481.110        0.852        0.205      108.363       17.984        0.028      335.589        6.323      868.574
01/01/2014  11:30:00        7.555       39.648       34.320       33.611       33.767       26.658     1129.666     1140.232      710.630        0.289        0.149       40.361       20.013        0.246      336.040        7.075      868.560
01/01/2014  11:31:00       11.201       61.995       -0.320       32.671       32.297       26.971     1067.368     1043.095      727.455        0.340        0.142       62.999       16.032        0.065      335.870        6.792      868.545
01/01/2014  11:32:00       -3.285       89.950      105.075       34.726       70.903       52.695     1205.917     5027.272     2776.738        1.407        0.450       90.010       52.322        0.338      335.784        6.648      868.528
01/01/2014  11:33:00      110.867       95.129       33.161       40.329       39.086       51.789     1626.438     1527.711     2682.111        1.414        0.292      146.086       42.347        0.084      335.240        5.744      868.506
01/01/2014  11:34:00       95.890       71.268       12.645       32.116       21.921       32.905     1031.420      480.527     1082.730        0.851        0.130      119.474       10.230        0.007      335.334        5.898      868.494
01/01/2014  11:35:00       -2.811       25.032       -3.908       31.171       26.228       20.098      971.641      687.926      403.943        0.136        0.103       25.189       19.439        0.596      335.663        6.446      868.478
01/01/2014  11:36:00        7.320       40.346       51.412       19.274       36.118       32.815      371.488     1304.499     1076.838        0.354        0.138       41.005       31.054        0.574      335.889        6.823      868.451
01/01/2014  11:37:00       41.214       47.527       64.031       51.358       38.812       36.262     2637.692     1506.381     1314.962        0.676        0.273       62.908       38.343        0.371      335.739        6.573      868.429
01/01/2014  11:38:00       40.203       56.031       68.139       35.136       29.424       29.447     1234.535      865.746      867.151        0.618        0.148       68.962       15.726        0.052      335.814        6.699      868.421
01/01/2014  11:39:00       28.364        3.993       18.378       37.957       48.930       30.839     1440.743     2394.187      951.056        0.297        0.239       28.644       26.617        0.863      335.954        6.932      868.396
01/01/2014  11:40:00        6.054       -4.332       13.721       39.695       51.638       21.946     1575.690     2666.519      481.646        0.248        0.236        7.445       12.091        2.638      335.792        6.662      868.374
01/01/2014  11:41:00       16.748       72.175       -3.054       23.125       35.101       21.467      534.780     1232.064      460.831        0.386        0.111       74.093       21.407        0.083      335.801        6.676      868.365
01/01/2014  11:42:00       28.981       57.432        4.818       26.725       37.962       27.243      714.229     1441.081      742.180        0.353        0.145       64.330       15.792        0.060      335.931        6.894      868.352
01/01/2014  11:43:00        4.953       59.131        1.676       22.611       42.062       30.457      511.244     1769.236      927.618        0.337        0.160       59.338       26.945        0.206      335.881        6.809      868.345
01/01/2014  11:44:00      -17.810       35.039       40.212       42.332       50.277       44.020     1791.993     2527.821     1937.733        0.471        0.313       39.305       17.574        0.200      336.075        7.135      868.332
01/01/2014  11:45:00      -10.325       65.166       91.012       16.655       55.765       46.105      277.383     3109.715     2125.674        0.907        0.276       65.978       46.967        0.507      336.032        7.061      868.319
01/01/2014  11:46:00       43.716       87.180       88.778       43.965       37.969       27.049     1932.935     1441.640      731.639        1.075        0.205       97.527       25.741        0.070      335.904        6.849      868.312
01/01/2014  11:47:00       30.920       72.310       81.551       40.071       52.592       31.892     1605.647     2765.963     1017.103        0.911        0.269       78.643       29.102        0.137      336.028        7.055      868.295
01/01/2014  11:48:00       13.743       68.848       86.046       34.628       41.776       24.326     1199.120     1745.268      591.768        0.793        0.177       70.206       22.734        0.105      336.040        7.075      868.282
01/01/2014  11:49:00        2.939       63.019       78.351       24.973       46.888       36.245      623.635     2198.520     1313.682        0.713        0.207       63.088       37.781        0.359      336.054        7.098      868.272
01/01/2014  11:50:00       71.222       58.736       63.499       34.711       32.980       35.229     1204.836     1087.709     1241.080        0.804        0.177       92.317       21.783        0.056      335.879        6.808      868.247
01/01/2014  11:51:00       24.194       44.486       57.980       32.129       32.442       25.627     1032.303     1052.472      656.749        0.433        0.137       50.639       17.538        0.120      336.134        7.233      868.231
01/01/2014  11:52:00       -2.344       59.411       93.831       29.118       38.461       21.586      847.859     1479.256      465.937        0.757        0.140       59.457       21.854        0.135      336.113        7.196      868.204
01/01/2014  11:53:00        9.355       83.304       89.492       23.990       39.236       20.699      575.522     1539.437      428.447        0.879        0.127       83.828       22.490        0.072      336.108        7.187      868.187
01/01/2014  11:54:00       18.414       73.110       82.609       38.451       34.647       23.919     1478.467     1200.428      572.141        0.788        0.163       75.393       26.201        0.121      336.180        7.307      868.171
01/01/2014  11:55:00       40.387       34.351       57.275       41.164       45.247       33.623     1694.471     2047.291     1130.484        0.548        0.244       53.020       31.900        0.362      336.132        7.229      868.150
01/01/2014  11:56:00       33.583       72.983       74.133       29.989       27.044       16.746      899.351      731.372      280.424        0.693        0.096       80.339       15.539        0.037      336.034        7.064      868.136
01/01/2014  11:57:00       15.974       40.880       68.975       23.454       24.465       13.052      550.081      598.549      170.348        0.400        0.066       43.890       14.791        0.114      336.194        7.332      868.118
01/01/2014  11:58:00       36.493       84.786       54.964       53.647       46.052       46.882     2877.995     2120.810     2197.904        0.937        0.360       92.306       43.184        0.219      336.180        7.309      868.087
01/01/2014  11:59:00       54.184       31.891        4.157       42.706       30.825       23.037     1823.800      950.175      530.717        0.364        0.165       62.873       21.526        0.117      336.047        7.086      868.079
01/01/2014  12:00:00        8.376       74.639       92.416       30.935       33.335       30.751      956.990     1111.199      945.632        0.860        0.151       75.107       26.140        0.121      336.359        7.607      868.065
01/01/2014  12:01:00       63.413       77.294       41.993       40.723       26.442       35.895     1658.369      699.199     1288.433        0.770        0.182       99.978        9.374        0.009      336.265        7.451      868.057
01/01/2014  12:02:00       55.920       58.570       31.465       31.235       17.038       25.901      975.627      290.294      670.843        0.474        0.097       80.978        8.692        0.012      336.115        7.199      868.047
01/01/2014  12:03:00       53.445       58.723       12.184       34.538       32.549       25.969     1192.839     1059.420      674.379        0.469        0.146       79.403       20.016        0.064      336.156        7.268      868.018
01/01/2014  12:04:00       28.962       44.103       14.120       30.599       43.841       27.036      936.284     1921.995      730.933        0.329        0.179       52.762       13.212        0.063      336.534        7.899      868.004
01/01/2014  12:05:00       54.351       18.200       35.105       44.717       78.485       46.576     1999.589     6159.968     2169.366        0.742        0.516       57.317       53.586        0.874      336.393        7.664      867.978
01/01/2014  12:06:00       82.229       74.948       52.983       46.509       34.977       40.127     2163.054     1223.406     1610.155        1.009        0.250      111.260       29.297        0.069      336.362        7.612      867.956
01/01/2014  12:07:00       22.164       71.487       75.929       43.706       35.822       44.964     1910.208     1283.232     2021.775        0.829        0.261       74.844       34.764        0.216      336.568        7.958      867.936
01/01/2014  12:08:00       55.728       59.027       83.848       67.313       49.190       38.345     4530.997     2419.644     1470.353        1.102        0.421       81.178       34.501        0.181      336.476        7.803      867.916
01/01/2014  12:09:00      128.327      103.936       28.572       45.550       38.946       36.523     2074.766     1516.763     1333.923        1.651        0.246      165.138       24.686        0.022      336.132        7.228      867.914
01/01/2014  12:10:00       52.250       82.555       17.048       53.990       47.304       43.354     2914.948     2237.635     1879.599        0.843        0.352       97.701       32.787        0.113      336.360        7.610      867.899
01/01/2014  12:11:00       34.681       67.097        5.638       32.389       49.573       36.686     1049.078     2457.437     1345.868        0.529        0.243       75.531       34.197        0.205      336.397        7.672      867.892
01/01/2014  12:12:00       51.882       26.997        3.915       42.638       29.516       34.241     1818.017      871.211     1172.427        0.365        0.193       58.485       21.589        0.136      336.564        7.951      867.896
01/01/2014  12:13:00       37.416       48.094       -3.744       36.889       40.623       28.149     1360.815     1650.254      792.364        0.376        0.190       60.934       14.721        0.058      336.599        8.009      867.880
01/01/2014  12:14:00       40.155       66.147       28.670       40.494       42.644       43.086     1639.801     1818.511     1856.429        0.606        0.266       77.381       12.508        0.026      336.605        8.019      867.865
01/01/2014  12:15:00       49.562       73.110       88.948       48.718       46.640       31.488     2373.405     2175.244      991.495        1.063        0.277       88.326       28.028        0.101      336.526        7.887      867.854
01/01/2014  12:16:00       64.509       82.588       67.918       58.332       48.784       43.391     3402.651     2379.868     1882.821        1.163        0.383      104.796       39.019        0.139      336.468        7.791      867.832
01/01/2014  12:17:00       54.797      -68.355        6.179       27.355       69.718       51.134      748.300     4860.534     2614.667        0.797        0.411       87.608       50.806        0.336      336.332        7.562      867.818
01/01/2014  12:18:00        0.644      -15.178       11.761       23.747       34.554       18.656      563.897     1194.003      348.030        0.124        0.105       15.192       21.391        1.983      336.729        8.226      867.786
01/01/2014  12:19:00       35.626       36.726       32.831       44.282       47.467       36.986     1960.899     2253.069     1367.950        0.464        0.279       51.167       30.145        0.347      336.681        8.147      867.754
01/01/2014  12:20:00       25.598       68.540       71.370       51.664       40.894       31.596     2669.213     1672.315      998.313        0.789        0.267       73.164       30.390        0.173      336.911        8.531      867.738
01/01/2014  12:21:00       72.017       89.503       82.172       68.276       51.239       44.719     4661.648     2625.477     1999.753        1.462        0.464      114.879       39.504        0.118      336.523        7.881      867.710
01/01/2014  12:22:00      113.225       56.727       35.347       33.539       39.788       34.086     1124.847     1583.097     1161.859        1.058        0.193      126.640       20.668        0.027      336.375        7.634      867.701
01/01/2014  12:23:00       89.765       88.573       61.248       40.378       32.229       34.045     1630.377     1038.732     1159.040        1.174        0.191      126.106       21.965        0.030      336.357        7.604      867.700
01/01/2014  12:24:00       23.601      -72.246       22.240       37.657       63.420       36.171     1418.015     4022.039     1308.334        0.651        0.337       76.004       29.775        0.153      336.775        8.301      867.688
01/01/2014  12:25:00       45.151      -65.697        2.086       28.141       33.271       27.026      791.931     1106.968      730.431        0.449        0.131       79.716       18.835        0.056      336.559        7.941      867.688
01/01/2014  12:26:00       25.916      -54.185        1.454       23.647       28.746       22.510      559.174      826.348      506.693        0.275        0.095       60.063        9.465        0.025      336.784        8.317      867.685
01/01/2014  12:27:00      -11.887      -19.442       12.797       34.773       38.970       21.338     1209.133     1518.653      455.322        0.193        0.159       22.788       20.251        0.790      337.029        8.727      867.671
01/01/2014  12:28:00      -12.809       -7.115       19.437       14.987       14.621       13.296      224.624      213.785      176.772        0.060        0.031       14.653       10.814        0.545      337.576        9.644      867.665
01/01/2014  12:29:00        2.108       -9.090        9.458       19.775       30.033       16.903      391.041      901.998      285.707        0.088        0.079        9.331       14.468        2.404      337.369        9.296      867.665
01/01/2014  12:30:00      -35.777       15.070       -2.449       31.738       38.939       14.062     1007.328     1516.230      197.749        0.212        0.136       38.821        9.128        0.055      336.897        8.506      867.644
01/01/2014  12:31:00      -36.116        2.112        7.853       25.405       24.595       22.561      645.430      604.891      509.010        0.156        0.088       36.178       18.294        0.256      337.159        8.945      867.622
01/01/2014  12:32:00       -9.136       -0.021        3.331       17.782        9.543       14.760      316.188       91.068      217.870        0.036        0.031        9.136       13.946        2.330      337.189        8.995      867.606
01/01/2014  12:33:00       -1.089       10.921       24.654       17.060       19.340       12.472      291.036      374.036      155.550        0.077        0.041       10.976        7.422        0.457      337.428        9.395      867.579
01/01/2014  12:34:00        9.704        6.557        9.976       30.313       21.246       20.417      918.874      451.413      416.869        0.101        0.089       11.712       16.670        2.026      337.144        8.920      867.547
01/01/2014  12:35:00       -6.700       23.751       28.437       17.221       23.341       23.406      296.559      544.786      547.843        0.140        0.069       24.678       17.477        0.502      337.546        9.594      867.535
01/01/2014  12:36:00       -9.516       34.398       58.673       21.217       37.121       29.708      450.149     1377.980      882.590        0.371        0.136       35.690       30.153        0.714      337.140        8.913      867.521
01/01/2014  12:37:00        4.522       31.521       69.194       21.753       41.212       21.781      473.206     1698.418      474.411        0.422        0.132       31.843       24.258        0.580      337.152        8.933      867.499
01/01/2014  12:38:00       29.421       19.063       46.633       29.593       24.338       29.378      875.716      592.316      863.093        0.287        0.117       35.057       23.004        0.431      337.123        8.886      867.504
01/01/2014  12:39:00       35.488        2.542       25.644       23.702       18.572       26.496      561.772      344.919      702.027        0.177        0.080       35.579       10.341        0.084      336.911        8.531      867.484
01/01/2014  12:40:00        6.578       25.383       22.889       19.099       11.998       15.277      364.763      143.952      233.384        0.098        0.037       26.221       12.858        0.240      337.024        8.719      867.465
01/01/2014  12:41:00       40.423       29.495       33.192       17.129       16.952       15.942      293.394      287.361      254.134        0.222        0.042       50.040       10.418        0.043      337.120        8.880      867.443
01/01/2014  12:42:00       10.295       21.593        9.667       25.224       13.838       19.298      636.229      191.499      372.410        0.093        0.060       23.922       10.882        0.207      337.145        8.922      867.427
01/01/2014  12:43:00        0.532        1.973       17.686       13.468       16.066       12.934      181.399      258.115      167.285        0.046        0.030        2.043        9.753       22.792      337.812       10.039      867.426
01/01/2014  12:44:00       18.963       17.709       27.508       32.914       26.621       30.971     1083.355      708.691      959.198        0.209        0.138       25.946       25.376        0.957      337.473        9.471      867.411
01/01/2014  12:45:00       31.690       71.977       78.314       54.718       37.507       34.617     2994.073     1406.768     1198.313        0.896        0.280       78.644       27.897        0.126      337.285        9.156      867.404
01/01/2014  12:46:00       67.668       61.601       64.947       44.424       40.400       35.284     1973.454     1632.133     1244.931        0.872        0.243       91.507       30.155        0.109      337.066        8.788      867.402
01/01/2014  12:47:00       63.077       30.700       47.762       31.867       42.259       38.920     1015.510     1785.796     1514.772        0.576        0.216       70.152       35.375        0.254      337.047        8.757      867.410
01/01/2014  12:48:00       15.461       38.747       52.533       40.933       41.878       40.406     1675.549     1753.729     1632.682        0.478        0.253       41.718       39.959        0.917      337.439        9.415      867.416
01/01/2014  12:49:00       21.842      -31.197       43.313       38.679       66.582       38.294     1496.050     4433.228     1466.461        0.536        0.370       38.083       40.142        1.111      337.424        9.390      867.416
01/01/2014  12:50:00       76.663       23.139       46.095       42.173       36.176       30.176     1778.521     1308.691      910.620        0.627        0.200       80.079        6.508        0.007      337.350        9.264      867.429
01/01/2014  12:51:00       70.265       36.388       25.816       58.561       37.842       37.785     3429.409     1432.039     1427.716        0.661        0.314       79.128       31.270        0.156      337.147        8.924      867.438
01/01/2014  12:52:00       29.582       32.695       27.795       30.448       32.779       28.612      927.077     1074.435      818.661        0.277        0.141       44.092       17.105        0.151      337.374        9.304      867.439
01/01/2014  12:53:00       53.714       21.987       -9.596       14.846       19.423       21.601      220.413      377.264      466.594        0.226        0.053       58.039        9.278        0.026      336.972        8.630      867.445
01/01/2014  12:54:00        7.980      -33.360      -13.254       16.231       20.721       14.100      263.449      429.376      198.815        0.112        0.045       34.301        9.857        0.083      337.154        8.935      867.435
01/01/2014  12:55:00       -0.276       71.311       -4.603       19.969       45.011       23.812      398.751     2026.022      567.015        0.405        0.150       71.311        9.246        0.017      337.289        9.162      867.445
01/01/2014  12:56:00        1.634       22.217       21.019       27.089       24.310       22.593      733.814      590.955      510.449        0.139        0.092       22.277       22.467        1.017      337.745        9.927      867.450
01/01/2014  12:57:00       22.322       31.610       19.395       23.671       25.645       16.428      560.308      657.685      269.868        0.168        0.074       38.698       12.037        0.097      337.612        9.703      867.453
01/01/2014  12:58:00        2.690       35.925       37.015       22.375       39.031       19.844      500.631     1523.456      393.766        0.254        0.121       36.026       17.797        0.244      337.840       10.086      867.463
01/01/2014  12:59:00        1.080        3.334       53.200       19.870       43.867       29.728      394.801     1924.278      883.780        0.302        0.160        3.505       30.521       75.843      337.787        9.997      867.454
01/01/2014  13:00:00       10.798       13.985       20.965       25.034       37.953       29.186      626.681     1440.396      851.840        0.183        0.146       17.668       17.025        0.929      337.397        9.344      867.467
01/01/2014  13:01:00       27.491       51.786        7.419       23.032       24.319       26.095      530.488      591.416      680.950        0.265        0.090       58.631       11.643        0.039      337.421        9.384      867.466
01/01/2014  13:02:00       18.666       31.926       38.809       31.478       24.145       18.080      990.857      583.004      326.871        0.239        0.095       36.983       13.371        0.131      337.753        9.940      867.465
01/01/2014  13:03:00       22.200       26.489       27.749       27.563       34.394       31.456      759.725     1182.955      989.463        0.245        0.147       34.562       26.516        0.589      337.566        9.627      867.476
01/01/2014  13:04:00       -8.201       23.417       33.062       11.408       28.202       22.645      130.150      795.361      512.793        0.157        0.072       24.812        7.327        0.087      337.883       10.158      867.476
01/01/2014  13:05:00        3.400        9.605       37.895       29.771       31.974       28.495      886.296     1022.364      811.947        0.213        0.136       10.189       25.204        6.119      337.915       10.212      867.477
01/01/2014  13:06:00       -6.178       20.989       50.924       23.876       37.686       27.337      570.061     1420.201      747.292        0.290        0.137       21.879       27.056        1.529      337.995       10.346      867.488
01/01/2014  13:07:00       11.661       33.537       50.971       41.800       24.672       28.413     1747.217      608.686      807.273        0.351        0.158       35.506        9.650        0.074      337.793       10.007      867.490
01/01/2014  13:08:00       -4.960      -11.899        9.261       18.591       24.308       12.822      345.629      590.878      164.414        0.068        0.055       12.891       13.261        1.058      337.873       10.142      867.500
01/01/2014  13:09:00       73.540       32.211       23.869       29.638       22.516       23.959      878.437      506.970      574.021        0.449        0.098       80.285        9.765        0.015      337.678        9.814      867.500
01/01/2014  13:10:00       45.451       34.996       20.743       28.323       16.747       20.498      802.168      280.449      420.152        0.261        0.075       57.363       12.406        0.047      337.445        9.424      867.496
01/01/2014  13:11:00       10.772       -2.960        6.547       16.366       26.970       18.141      267.861      727.383      329.093        0.075        0.066       11.171       16.849        2.275      337.691        9.837      867.488
01/01/2014  13:12:00       26.771      -21.813        0.374       16.001       21.227       17.534      256.028      450.585      307.440        0.110        0.051       34.532       12.461        0.130      337.559        9.614      867.471
01/01/2014  13:13:00      -11.059       -2.532        7.434       21.357       10.502       11.020      456.127      110.298      121.430        0.044        0.034       11.345        9.324        0.675      338.118       10.552      867.441
01/01/2014  13:14:00        8.740       16.893       11.212       28.128       25.222       14.926      791.194      636.157      222.787        0.107        0.083       19.020       14.093        0.549      338.411       11.043      867.427
01/01/2014  13:15:00       10.237       63.515       -3.430       26.466       28.872       18.187      700.447      833.574      330.767        0.301        0.093       64.334       14.938        0.054      337.862       10.123      867.418
01/01/2014  13:16:00       -4.168       44.847       -2.308       21.600       27.084       19.917      466.551      733.529      396.681        0.182        0.080       45.040       12.427        0.076      338.171       10.641      867.409
01/01/2014  13:17:00        4.737       32.068        3.860       18.866       33.287       22.485      355.929     1108.002      505.572        0.152        0.098       32.416       21.769        0.451      338.027       10.400      867.405
01/01/2014  13:18:00       -7.488       35.316       11.666       25.385       52.578       20.769      644.399     2764.491      431.351        0.264        0.192       36.101       24.485        0.460      338.092       10.508      867.381
01/01/2014  13:19:00      -46.245       71.311      -10.874       22.618       44.349       23.707      511.581     1966.813      562.003        0.519        0.152       84.994       15.387        0.033      337.733        9.907      867.373
01/01/2014  13:20:00      -24.178       46.273      -15.644       21.918       24.196       13.773      480.414      585.438      189.689        0.211        0.063       52.209        8.669        0.028      337.635        9.742      867.354
01/01/2014  13:21:00       18.230       48.237       -7.782       17.635       23.798       18.754      310.976      566.323      351.729        0.197        0.061       51.566        8.151        0.025      337.753        9.940      867.335
01/01/2014  13:22:00       17.347       25.670      -14.199       20.592       18.140       13.887      424.051      329.059      192.836        0.105        0.047       30.982       11.813        0.145      337.678        9.815      867.324
01/01/2014  13:23:00       68.735       43.670        5.561       20.747       13.720       20.999      430.445      188.229      440.969        0.386        0.053       81.434        9.954        0.015      337.592        9.669      867.291
01/01/2014  13:24:00       77.125       39.900       14.052       29.298       24.312       25.211      858.384      591.050      635.582        0.491        0.104       86.835       17.287        0.040      337.667        9.796      867.273
01/01/2014  13:25:00       50.064       17.682        2.097       18.953       20.736       18.746      359.224      429.980      351.423        0.198        0.057       53.094       11.366        0.046      337.835       10.078      867.258
01/01/2014  13:26:00       43.462       41.737       32.511       22.730       26.686       27.230      516.672      712.137      741.491        0.333        0.099       60.257       17.387        0.083      337.883       10.159      867.240
01/01/2014  13:27:00       19.860       49.299       57.821       34.460       34.277       35.393     1187.482     1174.930     1252.675        0.489        0.181       53.149       31.684        0.355      337.999       10.353      867.236
01/01/2014  13:28:00       56.297       41.483       27.492       29.255       25.100       34.989      855.859      630.014     1224.200        0.418        0.136       69.930       20.878        0.089      337.942       10.257      867.211
01/01/2014  13:29:00       14.790       56.600       74.439       40.520       43.501       35.087     1641.879     1892.296     1231.082        0.686        0.238       58.500       30.720        0.276      338.126       10.566      867.206
01/01/2014  13:30:00       29.882       44.036       54.175       55.251       33.045       31.436     3052.649     1091.983      988.236        0.545        0.257       53.217       21.229        0.159      338.289       10.839      867.203
01/01/2014  13:31:00       33.572       55.493        2.087       40.076       32.045       25.699     1606.062     1026.852      660.439        0.375        0.165       64.858       19.971        0.095      338.028       10.401      867.193
01/01/2014  13:32:00      101.648       54.326       26.495       59.638       39.816       32.804     3556.700     1585.320     1076.102        1.010        0.311      115.254       22.611        0.038      337.894       10.177      867.193
01/01/2014  13:33:00      132.179       90.462       33.624       39.554       25.885       21.455     1564.508      670.044      460.299        1.474        0.135      160.171       21.537        0.018      337.547        9.595      867.185
01/01/2014  13:34:00       69.393       -3.953       13.089       27.372       37.668       22.857      749.243     1418.911      522.461        0.385        0.135       69.505       18.707        0.072      337.704        9.858      867.177
01/01/2014  13:35:00        9.374       56.028        3.398       35.440       55.815       32.551     1256.007     3115.349     1059.600        0.433        0.272       56.807       25.791        0.206      337.878       10.149      867.163
01/01/2014  13:36:00        7.945       60.433      -12.220       34.924       49.553       20.289     1219.659     2455.500      411.663        0.398        0.204       60.953       13.066        0.046      338.040       10.423      867.148
01/01/2014  13:37:00       41.599       56.837       44.656       44.921       30.683       28.000     2017.870      941.445      784.026        0.535        0.187       70.434       24.344        0.119      338.195       10.682      867.136
01/01/2014  13:38:00       28.206       18.814       20.928       20.882       50.906       20.032      436.072     2591.414      401.295        0.251        0.171       33.905       21.389        0.398      338.241       10.759      867.130
01/01/2014  13:39:00       -2.053       40.921       52.355       20.182       37.662       23.508      407.312     1418.408      552.649        0.340        0.119       40.972       17.612        0.185      338.469       11.142      867.104
01/01/2014  13:40:00       83.818       70.403       64.028       63.326       40.881       38.964     4010.156     1671.235     1518.206        1.164        0.360      109.462       37.007        0.114      338.056       10.448      867.098
01/01/2014  13:41:00        6.040       40.045       61.106       25.973       35.416       43.390      674.575     1254.268     1882.651        0.459        0.191       40.498       33.503        0.684      338.408       11.041      867.091
01/01/2014  13:42:00       -4.317       -9.365       31.767       25.684       47.080       24.818      659.661     2216.534      615.929        0.230        0.175       10.312       19.184        3.461      338.662       11.466      867.069
01/01/2014  13:43:00       36.756       30.620       14.536       44.458       41.604       33.522     1976.547     1730.920     1123.708        0.366        0.242       47.839       15.244        0.102      338.427       11.071      867.065
01/01/2014  13:44:00        9.532       -3.775       11.816       36.123       29.182       31.306     1304.857      851.602      980.071        0.169        0.157       10.253       15.684        2.340      338.455       11.118      867.065
01/01/2014  13:45:00       11.898       39.982       67.793       35.401       57.682       32.535     1253.243     3327.193     1058.524        0.599        0.282       41.715       34.689        0.692      338.536       11.254      867.053
01/01/2014  13:46:00       12.362       28.448       44.842       24.706       42.234       32.937      610.411     1783.695     1084.845        0.323        0.174       31.017       17.471        0.317      338.621       11.398      867.046
01/01/2014  13:47:00       -0.529       14.262       57.521       18.919       57.460       30.504      357.911     3301.664      930.477        0.405        0.230       14.272       33.149        5.395      338.765       11.639      867.049
01/01/2014  13:48:00       19.598      -17.935       47.332       41.785       75.045       39.321     1746.024     5631.805     1546.176        0.593        0.446       26.566       44.447        2.799      338.461       11.128      867.056
01/01/2014  13:49:00       53.588      -19.878       32.663       42.481       59.189       40.072     1804.598     3503.325     1605.767        0.562        0.346       57.156       34.864        0.372      338.247       10.770      867.047
01/01/2014  13:50:00       52.173      -69.403       12.674       24.710       50.713       39.390      610.594     2571.821     1551.600        0.622        0.237       86.826       39.643        0.208      338.223       10.729      867.035
01/01/2014  13:51:00       30.966      -39.287        7.831       34.634       61.866       33.574     1199.517     3827.395     1127.239        0.436        0.308       50.024       28.291        0.320      338.474       11.150      867.022
01/01/2014  13:52:00       36.484      -48.747        4.201       25.209       47.877       20.111      635.514     2292.191      404.460        0.353        0.167       60.888       22.492        0.136      338.176       10.650      867.014
01/01/2014  13:53:00       10.220       15.220       53.674       36.363       63.744       35.588     1322.301     4063.357     1266.491        0.493        0.333       18.333       42.193        5.297      338.442       11.096      866.991
01/01/2014  13:54:00      113.634     -131.731       -1.054       72.183       70.574       43.954     5210.362     4980.679     1931.933        2.119        0.606      173.970       38.628        0.049      338.302       10.858      866.969
01/01/2014  13:55:00       13.229       -9.275       16.148       56.505       70.670       32.913     3192.827     4994.282     1083.234        0.489        0.464       16.157        9.999        0.383      338.589       11.344      866.970
01/01/2014  13:56:00        8.581      -43.233       -3.626       50.560       60.224       29.552     2556.345     3626.875      873.326        0.451        0.353       44.077       29.696        0.454      338.564       11.302      866.972
01/01/2014  13:57:00       63.990       -2.279       29.879       52.275       47.560       48.041     2732.680     2261.914     2307.932        0.615        0.365       64.030       37.994        0.352      338.503       11.199      866.956
01/01/2014  13:58:00       12.894       45.091       79.448       37.098       58.257       47.160     1376.279     3393.880     2224.112        0.775        0.350       46.899       41.744        0.792      338.467       11.137      866.937
01/01/2014  13:59:00       28.424       -1.297       49.104       67.712       54.983       30.208     4584.890     3023.127      912.506        0.587        0.426       28.453       29.990        1.111      338.594       11.352      866.919
01/01/2014  14:00:00      121.363       93.883       52.279       57.110       41.210       49.837     3261.504     1698.269     2483.695        1.686        0.372      153.437       30.276        0.039      338.261       10.792      866.923
01/01/2014  14:01:00      132.860       75.894       45.602       65.880       58.116       44.167     4340.156     3377.422     1950.753        1.758        0.483      153.009       34.346        0.050      338.293       10.845      866.929
01/01/2014  14:02:00       67.419       32.163       16.330       56.831       38.422       26.954     3229.775     1476.228      726.544        0.564        0.272       74.698       16.157        0.047      338.413       11.047      866.938
01/01/2014  14:03:00       12.240       31.227       28.306       25.800       27.973       24.139      665.657      782.506      582.701        0.198        0.102       33.540       19.469        0.337      338.645       11.439      866.943
01/01/2014  14:04:00       53.236       44.636       18.026       41.093       34.627       48.989     1688.659     1199.007     2399.884        0.522        0.264       69.473       33.291        0.230      338.365       10.967      866.946
01/01/2014  14:05:00       37.393       10.558       34.788       50.782       52.844       39.375     2578.856     2792.476     1550.360        0.482        0.346       38.855       32.735        0.710      338.530       11.243      866.946
01/01/2014  14:06:00       74.978       90.549       59.163       67.844       49.102       58.903     4602.744     2410.960     3469.609        1.390        0.524      117.561       45.519        0.150      338.563       11.299      866.939
01/01/2014  14:07:00      140.539      120.627       83.065       84.036       63.921       65.752     7062.004     4085.877     4323.366        2.833        0.774      185.208       52.210        0.079      338.308       10.869      866.939
01/01/2014  14:08:00      152.934      100.350       23.030       54.146       35.977       39.634     2931.795     1294.313     1570.824        1.989        0.290      182.918       31.384        0.029      338.213       10.709      866.942
01/01/2014  14:09:00       46.566       35.078       49.200       56.157       52.839       42.951     3153.601     2791.944     1844.751        0.680        0.390       58.300       37.265        0.409      338.418       11.054      866.938
01/01/2014  14:10:00       84.186       53.327       51.323       46.170       43.037       34.828     2131.631     1852.144     1213.020        0.888        0.260       99.654       30.010        0.091      338.313       10.881      866.939
01/01/2014  14:11:00       50.677       65.172       80.732       53.389       53.854       41.702     2850.340     2900.291     1739.047        1.041        0.374       82.556       41.345        0.251      338.427       11.072      866.940
01/01/2014  14:12:00       63.790      116.706      107.802       79.726       63.168       69.676     6356.194     3990.148     4854.787        2.225        0.760      133.002       68.391        0.264      338.302       10.860      866.938
01/01/2014  14:13:00       91.316       41.986       31.797       50.579       44.143       36.751     2558.194     1948.604     1350.621        0.848        0.293      100.506       35.017        0.121      338.256       10.783      866.948
01/01/2014  14:14:00       51.808       73.325       54.480       29.560       27.268       23.508      873.789      743.553      552.638        0.660        0.108       89.781       12.666        0.020      338.374       10.982      866.942
01/01/2014  14:15:00      117.018       66.860       35.854       66.879       47.512       56.856     4472.817     2257.402     3232.630        1.470        0.498      134.772       39.185        0.085      338.368       10.971      866.938
01/01/2014  14:16:00       87.288       49.272       45.999       48.445       51.357       55.084     2346.949     2637.520     3034.243        1.009        0.401      100.235       37.518        0.140      338.389       11.008      866.946
01/01/2014  14:17:00       66.542       48.989       58.202       62.947       47.234       39.211     3962.284     2231.043     1537.519        0.897        0.387       82.630       22.976        0.077      338.528       11.241      866.940
01/01/2014  14:18:00       43.340       37.289       10.080       40.151       31.543       28.343     1612.116      994.974      803.318        0.339        0.171       57.174        8.254        0.021      338.628       11.408      866.945
01/01/2014  14:19:00       21.253       23.206       25.716       32.414       35.241       35.281     1050.642     1241.904     1244.775        0.259        0.177       31.468       30.304        0.927      338.710       11.546      866.943
01/01/2014  14:20:00       92.394      119.707       94.418       84.501       45.276       45.726     7140.370     2049.895     2090.882        2.153        0.564      151.217       51.538        0.116      338.360       10.958      866.938
01/01/2014  14:21:00      108.354       91.652       60.003       63.223       54.239       64.055     3997.195     2941.885     4102.994        1.739        0.552      141.918       46.696        0.108      338.361       10.960      866.935
01/01/2014  14:22:00       88.458       33.885       29.450       89.566       66.018       46.173     8022.029     4358.442     2131.968        1.217        0.726       94.726       40.637        0.184      338.411       11.043      866.937
01/01/2014  14:23:00       43.696       67.234       73.230       43.940       39.544       32.611     1930.690     1563.766     1063.466        0.817        0.228       80.186       25.209        0.099      338.519       11.225      866.938
01/01/2014  14:24:00      111.013       73.073       30.255       32.303       22.399       28.815     1043.458      501.720      830.298        1.048        0.119      132.905       18.975        0.020      338.376       10.984      866.940
01/01/2014  14:25:00       50.234       31.746       37.542       26.272       39.739       36.510      690.238     1579.186     1332.973        0.427        0.180       59.424       31.876        0.288      338.586       11.339      866.946
01/01/2014  14:26:00       57.597       93.858       75.622       36.787       33.028       31.931     1353.273     1090.828     1019.619        1.065        0.173      110.121       25.122        0.052      338.499       11.191      866.952
01/01/2014  14:27:00       47.137       40.277       74.462       42.133       30.238       22.490     1775.198      914.345      505.780        0.629        0.160       62.002       14.931        0.058      338.600       11.361      866.956
01/01/2014  14:28:00       75.680      -98.720       15.307       45.958       50.553       32.291     2112.126     2555.653     1042.679        1.071        0.286      124.391       32.260        0.067      338.681       11.498      866.947
01/01/2014  14:29:00       12.314       -5.626       33.293       34.814       56.709       31.265     1212.040     3215.939      977.524        0.335        0.270       13.539       36.094        7.108      338.791       11.682      866.954
01/01/2014  14:30:00       32.898       45.641       46.244       42.939       41.945       42.384     1843.720     1759.363     1796.393        0.535        0.270       56.261       38.571        0.470      338.682       11.499      866.956
01/01/2014  14:31:00        8.469       18.077       22.341       20.455       29.788       27.057      418.405      887.312      732.086        0.147        0.102       19.962       25.449        1.625      338.871       11.816      866.960
01/01/2014  14:32:00       10.575       49.553       65.488       39.043       46.279       30.480     1524.342     2141.716      929.001        0.572        0.230       50.669       29.033        0.328      338.749       11.612      866.961
01/01/2014  14:33:00       30.671       61.168       72.903       72.135       73.961       54.778     5203.493     5470.266     3000.591        1.183        0.684       68.427       53.045        0.601      338.727       11.574      866.964
01/01/2014  14:34:00       98.552       59.118       21.644       52.625       24.134       25.956     2769.435      582.465      673.732        0.885        0.201      114.924        9.189        0.006      338.423       11.062      866.975
01/01/2014  14:35:00       26.398       39.288       56.573       32.901       46.822       38.998     1082.497     2192.341     1520.822        0.512        0.240       47.333       37.106        0.615      338.614       11.386      866.977
01/01/2014  14:36:00       30.795       -4.484       44.520       30.125       40.110       19.215      907.497     1608.775      369.208        0.292        0.144       31.119       16.067        0.267      338.683       11.500      866.982
01/01/2014  14:37:00       65.965      -43.649       21.830       44.819       24.816       22.500     2008.746      615.817      506.228        0.493        0.157       79.099       11.957        0.023      338.638       11.426      866.989
01/01/2014  14:38:00       40.536     -125.941       -9.113       39.248       50.234       31.154     1540.415     2523.472      970.542        1.131        0.252      132.304       24.020        0.033      338.573       11.314      866.993
01/01/2014  14:39:00       30.307      -60.739        9.506       15.100       41.444       22.631      228.016     1717.588      512.178        0.358        0.123       67.881       27.441        0.163      338.544       11.269      867.002
01/01/2014  14:40:00       62.745       50.646       31.907       52.341       38.182       35.337     2739.572     1457.847     1248.717        0.648        0.272       80.634       25.902        0.103      338.605       11.371      867.008
01/01/2014  14:41:00      109.463       35.842       28.193       53.684       34.550       34.499     2882.019     1193.698     1190.192        0.966        0.263      115.182       22.030        0.037      338.586       11.338      867.021
01/01/2014  14:42:00       63.189       56.488        2.860       46.844       32.683       25.021     2194.350     1068.178      626.043        0.554        0.194       84.757       24.000        0.080      338.598       11.358      867.019
01/01/2014  14:43:00      105.074       63.391       18.695       47.385       30.013       24.897     2245.339      900.781      619.885        0.959        0.188      122.715       20.776        0.029      338.669       11.477      867.016
01/01/2014  14:44:00       10.959       13.620        8.039       35.615       25.244       20.274     1268.431      637.271      411.024        0.134        0.116       17.482        5.538        0.100      338.987       12.012      867.004
01/01/2014  14:45:00       29.995      -11.690       28.691       37.063       65.510       32.388     1373.701     4291.516     1048.975        0.429        0.336       32.192       36.153        1.261      338.890       11.848      866.990
01/01/2014  14:46:00       55.074       66.883       61.354       54.971       44.176       39.838     3021.815     1951.498     1587.104        0.891        0.328       86.640       39.262        0.205      338.757       11.624      866.977
01/01/2014  14:47:00       51.410       27.291       53.872       44.955       59.678       36.127     2020.936     3561.406     1305.177        0.659        0.344       58.205       33.171        0.325      338.748       11.611      866.969
01/01/2014  14:48:00       26.583       64.473       85.025       46.857       54.328       40.343     2195.578     2951.529     1627.596        0.943        0.339       69.738       33.465        0.230      338.833       11.754      866.969
01/01/2014  14:49:00       12.457       35.112       64.195       27.677       43.709       25.783      766.043     1910.510      664.772        0.442        0.167       37.256       26.836        0.519      338.859       11.795      866.969
01/01/2014  14:50:00        7.962       69.915       83.047       36.240       42.719       44.449     1313.370     1824.926     1975.744        0.848        0.256       70.367       37.757        0.288      338.852       11.785      866.965
01/01/2014  14:51:00       64.644       89.253       65.641       56.491       44.824       30.572     3191.275     2009.150      934.678        1.129        0.307      110.204       20.012        0.033      338.613       11.384      866.976
01/01/2014  14:52:00      108.283       47.342       36.665       46.854       54.488       37.607     2195.262     2968.962     1414.302        1.094        0.329      118.180       30.135        0.065      338.587       11.341      866.982
01/01/2014  14:53:00       69.435       52.880       -2.831       41.721       30.345       30.151     1740.640      920.809      909.084        0.560        0.179       87.278       19.655        0.051      338.639       11.426      866.990
01/01/2014  14:54:00       38.863       70.398       -3.707       44.072       51.295       26.281     1942.363     2631.173      690.691        0.587        0.263       80.413       31.472        0.153      338.687       11.508      866.985
01/01/2014  14:55:00       17.695       59.141       15.969       21.790       29.953       33.097      474.793      897.211     1095.432        0.327        0.123       61.731       14.409        0.054      338.806       11.707      866.986
01/01/2014  14:56:00       23.401       36.889       62.250       64.599       48.070       34.375     4173.052     2310.718     1181.668        0.672        0.383       43.685       25.311        0.336      338.876       11.825      866.987
01/01/2014  14:57:00       26.696       43.297       62.951       38.139       34.973       28.253     1454.550     1223.141      798.236        0.501        0.174       50.865       26.034        0.262      338.756       11.624      867.000
01/01/2014  14:58:00       86.531       62.038       20.447       56.109       37.366       32.262     3148.254     1396.191     1040.822        0.867        0.279      106.472       29.982        0.079      338.730       11.580      867.016
01/01/2014  14:59:00       72.239       51.503       27.568       90.388       52.661       44.932     8170.019     2773.207     2018.927        1.079        0.648       88.719       19.487        0.048      338.716       11.556      867.024
01/01/2014  15:00:00       91.967       59.216       20.996       49.713       52.414       40.436     2471.372     2747.247     1635.075        0.963        0.343      109.382       25.696        0.055      338.636       11.422      867.032
01/01/2014  15:01:00      160.819       99.902        8.130       50.120       42.730       39.059     2512.035     1825.894     1525.595        2.089        0.293      189.323       30.893        0.027      338.567       11.305      867.036
01/01/2014  15:02:00       42.057       56.384       36.230       62.626       30.776       25.673     3922.021      947.134      659.095        0.589        0.276       70.342       35.464        0.254      338.655       11.455      867.041
01/01/2014  15:03:00       87.758       67.863       21.674       44.507       30.198       34.416     1980.898      911.925     1184.493        0.843        0.204      110.936       19.286        0.030      338.591       11.347      867.039
01/01/2014  15:04:00       27.672       76.108       -1.381       35.928       31.012       27.590     1290.825      961.724      761.225        0.479        0.151       80.982       22.273        0.076      338.596       11.355      867.037
01/01/2014  15:05:00      115.169       81.671       17.305       67.856       48.446       39.858     4604.467     2347.029     1588.650        1.439        0.427      141.187       24.434        0.030      338.655       11.454      867.023
01/01/2014  15:06:00       73.635       52.612       17.368       63.070       44.425       32.506     3977.852     1973.623     1056.642        0.775        0.350       90.500       35.827        0.157      338.713       11.553      867.012
01/01/2014  15:07:00       55.445       53.278       48.971       40.428       40.555       30.556     1634.460     1644.727      933.652        0.626        0.211       76.894       22.290        0.084      338.710       11.546      867.010
01/01/2014  15:08:00       80.056       46.499       23.675       32.094       35.268       29.790     1030.023     1243.805      887.422        0.615        0.158       92.580       20.601        0.050      338.648       11.442      867.008
01/01/2014  15:09:00        5.247       22.871       39.206       27.589       39.020       24.391      761.179     1522.591      594.924        0.248        0.144       23.465       27.329        1.356      338.857       11.793      867.005
01/01/2014  15:10:00       26.021       27.550       47.001       52.287       45.188       36.242     2733.969     2041.975     1313.517        0.487        0.304       37.896       39.574        1.090      338.884       11.838      867.004
01/01/2014  15:11:00        2.937       87.946       98.102       26.833       45.379       25.135      719.986     2059.214      631.788        1.039        0.171       87.995       21.534        0.060      338.822       11.736      867.001
01/01/2014  15:12:00       -3.122       73.006       87.344       14.310       36.697       23.940      204.781     1346.683      573.112        0.755        0.106       73.073       19.303        0.070      338.764       11.637      867.001
01/01/2014  15:13:00       50.369       63.508       44.644       58.610       35.283       35.528     3435.077     1244.915     1262.231        0.725        0.297       81.058       35.069        0.187      338.755       11.621      867.006
01/01/2014  15:14:00      130.106       46.267       22.084       56.401       47.216       36.850     3181.036     2229.314     1357.898        1.316        0.338      138.088       26.339        0.036      338.619       11.394      867.007
01/01/2014  15:15:00       63.555       76.343       -5.299       47.358       57.479       43.949     2242.749     3303.850     1931.497        0.869        0.374       99.335       33.577        0.114      338.550       11.278      867.006
01/01/2014  15:16:00       54.112       41.455       -5.168       30.912       22.257       19.374      955.581      495.379      375.345        0.325        0.091       68.166       12.559        0.034      338.588       11.341      867.002
01/01/2014  15:17:00       56.259       16.822        7.451       41.082       24.833       20.256     1687.694      616.684      410.315        0.311        0.136       58.720        9.895        0.028      338.540       11.262      866.994
01/01/2014  15:18:00      116.297       84.393       16.723       35.775       37.910       29.593     1279.820     1437.141      875.732        1.226        0.180      143.691        7.605        0.003      338.524       11.234      866.987
01/01/2014  15:19:00      108.625       71.109        2.393       27.848       25.104       16.047      775.484      630.194      257.498        0.926        0.083      129.830       12.117        0.009      338.478       11.156      866.986
01/01/2014  15:20:00       54.126       55.264        2.832       49.354       22.965       20.199     2435.859      527.380      408.015        0.468        0.169       77.355       14.505        0.035      338.543       11.266      866.982
01/01/2014  15:21:00       73.662       29.914       -2.051       27.005       23.525       19.351      729.257      553.427      374.480        0.399        0.083       79.504        7.005        0.008      338.484       11.167      866.980
01/01/2014  15:22:00       52.194       20.277        1.397       17.116       22.230       12.902      292.954      494.167      166.465        0.205        0.048       55.994       12.023        0.046      338.588       11.342      866.980
01/01/2014  15:23:00       12.974       37.877       -1.034       13.397       12.986       12.614      179.486      168.640      159.122        0.106        0.025       40.038        8.287        0.043      338.590       11.344      866.977
01/01/2014  15:24:00       12.198       31.515        6.537       18.600       27.675       13.697      345.947      765.926      187.613        0.124        0.065       33.794       15.028        0.198      338.575       11.319      866.978
01/01/2014  15:25:00        2.279       15.135       -7.083       10.612       25.159        8.215      112.604      632.962       67.489        0.055        0.041       15.306        9.894        0.418      338.657       11.457      866.975
01/01/2014  15:26:00       21.046       66.559       -7.666       19.041       31.583       14.078      362.553      997.479      198.188        0.324        0.078       69.807       11.337        0.026      338.582       11.333      866.968
01/01/2014  15:27:00      -25.095       -3.819      -10.995       14.589       12.483       12.259      212.830      155.830      150.295        0.064        0.026       25.384        5.333        0.044      338.691       11.516      866.958
01/01/2014  15:28:00       16.635       26.101        9.990       21.431       18.732       19.577      459.288      350.870      383.240        0.113        0.060       30.952       12.623        0.166      338.651       11.448      866.956
01/01/2014  15:29:00       50.761       31.317       10.496       19.909       22.032       22.554      396.386      485.390      508.697        0.253        0.070       59.644       17.500        0.086      338.506       11.205      866.947
01/01/2014  15:30:00       68.969       28.283       48.261       48.661       39.710       32.445     2367.887     1576.922     1052.646        0.644        0.250       74.543       25.992        0.122      338.569       11.311      866.948
01/01/2014  15:31:00       67.253       28.379       22.433       30.822       34.468       27.147      949.995     1188.009      736.937        0.435        0.144       72.996       21.899        0.090      338.528       11.240      866.956
01/01/2014  15:32:00       46.852       42.012       33.029       27.830       23.050       33.821      774.533      531.280     1143.860        0.375        0.122       62.930       23.145        0.135      338.541       11.262      866.957
01/01/2014  15:33:00       60.401      -56.409      -10.276       34.034       42.171       20.164     1158.321     1778.386      406.575        0.514        0.167       82.645       20.711        0.063      338.554       11.285      866.965
01/01/2014  15:34:00       38.057        0.252       28.839       26.483       56.155       33.370      701.367     3153.400     1113.583        0.362        0.248       38.058       41.881        1.211      338.567       11.304      866.964
01/01/2014  15:35:00       31.500       30.099       49.340       28.844       23.445       20.216      831.996      549.661      408.669        0.306        0.090       43.568       18.584        0.182      338.638       11.426      866.958
01/01/2014  15:36:00       27.297        7.661       40.736       26.628       35.618       25.955      709.071     1268.613      673.639        0.256        0.133       28.352       26.532        0.876      338.709       11.545      866.952
01/01/2014  15:37:00       23.795       53.307       61.486       28.941       29.359       16.668      837.566      861.945      277.824        0.458        0.099       58.377       10.496        0.032      338.731       11.582      866.957
01/01/2014  15:38:00       62.752       50.097       38.548       25.658       17.832       20.638      658.351      317.993      425.910        0.467        0.070       80.297       10.995        0.019      338.682       11.500      866.961
01/01/2014  15:39:00       49.081       45.638        7.027       28.406       21.461       19.672      806.894      460.589      386.986        0.310        0.083       67.021       19.300        0.083      338.569       11.308      866.958
01/01/2014  15:40:00       20.251       74.306       -5.153       18.577       37.222       13.177      345.114     1385.501      173.629        0.393        0.095       77.017       12.826        0.028      338.550       11.279      866.953
01/01/2014  15:41:00       19.366       35.531        0.436       19.228       33.533       16.408      369.728     1124.435      269.239        0.170        0.088       40.466       18.359        0.206      338.580       11.327      866.947
01/01/2014  15:42:00       25.322       12.491       16.373       33.270       16.115       14.536     1106.921      259.695      211.288        0.132        0.079       28.236       13.648        0.234      338.600       11.362      866.947
01/01/2014  15:43:00        5.130       19.006       26.714       19.540       20.619       11.752      381.822      425.154      138.114        0.102        0.047       19.687       11.755        0.357      338.614       11.385      866.947
01/01/2014  15:44:00       -3.435       39.823       51.992       11.530       18.307       11.562      132.948      335.153      133.681        0.245        0.030       39.971       10.990        0.076      338.733       11.586      866.946
01/01/2014  15:45:00       21.933       43.561       60.396       30.296       32.686       21.422      917.826     1068.377      458.908        0.424        0.122       48.772       22.399        0.211      338.707       11.541      866.947
01/01/2014  15:46:00       93.771       71.845       48.418       47.718       26.601       27.533     2277.044      707.595      758.082        1.002        0.187      118.130       26.957        0.052      338.533       11.250      866.939
01/01/2014  15:47:00       68.697       57.555       40.712       44.117       36.683       28.294     1946.322     1345.647      800.577        0.689        0.205       89.621       25.538        0.081      338.496       11.187      866.942
01/01/2014  15:48:00       61.286       37.481       26.713       30.949       28.873       25.530      957.813      833.662      651.786        0.416        0.122       71.839       25.348        0.124      338.529       11.242      866.938
01/01/2014  15:49:00       73.246       48.456       27.515       29.566       20.713       16.250      874.152      429.032      264.069        0.502        0.078       87.823       12.933        0.022      338.508       11.208      866.941
01/01/2014  15:50:00       15.311       28.086       22.319       22.294       18.201       12.417      497.005      331.286      154.194        0.125        0.049       31.988       11.970        0.140      338.572       11.316      866.936
01/01/2014  15:51:00       42.092       33.462        7.690       18.241       18.983       19.161      332.742      360.348      367.139        0.201        0.053       53.772        8.765        0.027      338.485       11.170      866.924
01/01/2014  15:52:00       63.225       35.513       14.422       12.335        9.935       12.825      152.159       98.705      164.481        0.294        0.021       72.516        6.144        0.007      338.519       11.225      866.919
01/01/2014  15:53:00       45.429       36.431       10.290       32.570       20.865       17.654     1060.814      435.344      311.678        0.265        0.090       58.232       17.222        0.087      338.487       11.172      866.907
01/01/2014  15:54:00       84.427       53.118       13.986       22.382       19.118       16.651      500.935      365.484      277.248        0.564        0.057       99.747        7.779        0.006      338.481       11.162      866.899
01/01/2014  15:55:00       53.765       31.014       11.559       19.723       18.102       20.203      388.990      327.696      408.151        0.256        0.056       62.069       16.600        0.072      338.479       11.158      866.892
01/01/2014  15:56:00       67.754       43.406        4.611       25.362       16.802       17.925      643.211      282.317      321.300        0.387        0.062       80.466       12.419        0.024      338.475       11.152      866.887
01/01/2014  15:57:00       63.479       36.880       25.044       29.610       28.875       20.449      876.776      833.743      418.182        0.407        0.106       73.415       14.702        0.040      338.416       11.054      866.886
01/01/2014  15:58:00       88.745       48.075       12.143       32.117       37.509       26.858     1031.484     1406.908      721.368        0.675        0.158      100.930        7.236        0.005      338.422       11.062      866.893
01/01/2014  15:59:00        3.133       10.164       32.279       20.913       29.086       25.644      437.346      846.022      657.623        0.155        0.097       10.635       20.782        3.818      338.525       11.235      866.903
01/01/2014  16:00:00       15.701       49.427       56.356       29.108       33.819       22.366      847.297     1143.730      500.217        0.418        0.125       51.861       16.984        0.107      338.635       11.421      866.911
01/01/2014  16:01:00       29.565       45.095       55.829       30.846       34.419       16.422      951.457     1184.679      269.679        0.421        0.120       53.922       17.936        0.111      338.587       11.339      866.916
01/01/2014  16:02:00       17.421       32.143       38.824       21.766       13.513       10.822      473.761      182.593      117.117        0.181        0.039       36.560        9.421        0.066      338.553       11.284      866.927
01/01/2014  16:03:00        3.781       19.809       26.325       13.831       17.890       15.145      191.293      320.038      229.371        0.092        0.037       20.167       14.787        0.538      338.582       11.330      866.933
01/01/2014  16:04:00        3.385       20.149       23.772       11.423       15.520       11.909      130.481      240.857      141.836        0.075        0.026       20.431        8.764        0.184      338.606       11.370      866.941
01/01/2014  16:05:00       -1.976       35.452       46.595       11.909       16.285       13.312      141.816      265.186      177.203        0.201        0.029       35.507        9.858        0.077      338.611       11.381      866.943
01/01/2014  16:06:00       17.961       27.085       37.879       41.706       36.931       28.953     1739.406     1363.926      838.288        0.322        0.197       32.499       29.751        0.838      338.550       11.278      866.948
01/01/2014  16:07:00       13.997       62.012       77.947       32.972       44.490       34.261     1087.176     1979.365     1173.827        0.718        0.212       63.572       35.426        0.311      338.548       11.275      866.950
01/01/2014  16:08:00       52.685      -42.505       37.945       48.074       92.442       41.996     2311.110     8545.469     1763.624        0.932        0.631       67.694       57.946        0.733      338.556       11.288      866.953
01/01/2014  16:09:00      111.802     -118.481      -19.322       55.316       79.336       36.540     3059.910     6294.204     1335.165        1.880        0.534      162.903       43.437        0.071      338.479       11.155      866.949
01/01/2014  16:10:00      126.975     -148.369      -21.035       34.893       55.752       26.074     1217.506     3108.341      679.846        2.179        0.250      195.285       13.676        0.005      338.478       11.153      866.972
01/01/2014  16:11:00       34.036      -18.532       32.689       50.826       57.763       44.727     2583.232     3336.552     2000.527        0.524        0.396       38.754       41.423        1.142      338.462       11.129      866.974
01/01/2014  16:12:00       55.635      -67.064        9.809       57.177       78.773       44.468     3269.211     6205.131     1977.394        0.957        0.573       87.137       49.350        0.321      338.455       11.117      866.976
01/01/2014  16:13:00      109.057      -68.954       22.630       68.060       66.380       40.352     4632.121     4406.321     1628.250        1.391        0.533      129.028       47.272        0.134      338.456       11.118      866.981
01/01/2014  16:14:00        6.751       17.874       53.595       26.279       56.628       30.733      690.574     3206.750      944.491        0.404        0.242       19.107       15.569        0.664      338.417       11.053      866.982
01/01/2014  16:15:00       72.691      -76.802       10.628       68.310       69.029       38.711     4666.259     4765.026     1498.569        1.111        0.546      105.748       40.619        0.148      338.362       10.961      866.985
01/01/2014  16:16:00      109.128     -127.483      -20.208       67.324       82.049       42.351     4532.515     6732.101     1793.618        2.081        0.653      167.812       48.735        0.084      338.304       10.864      866.976
01/01/2014  16:17:00      103.563     -138.490      -13.294       52.974       76.941       43.574     2806.228     5919.973     1898.695        2.035        0.531      172.930       35.043        0.041      338.259       10.787      866.989
01/01/2014  16:18:00       48.566       25.080       59.200       65.640       53.163       51.783     4308.615     2826.323     2681.472        0.815        0.491       54.659       55.639        1.036      338.181       10.657      866.983
01/01/2014  16:19:00       47.254      -15.350       67.011       66.326      132.748       77.321     4399.189    17621.966     5978.461        1.747        1.400       49.685      100.535        4.094      338.224       10.730      866.984
01/01/2014  16:20:00       82.942      -83.382       16.244       65.549       81.523       48.022     4296.737     6645.986     2306.145        1.367        0.662      117.609       49.402        0.176      338.216       10.714      866.987
01/01/2014  16:21:00       52.182      -48.947       20.132       43.810       56.339       44.263     1919.296     3174.136     1959.226        0.629        0.353       71.545       21.649        0.092      338.194       10.680      866.984
01/01/2014  16:22:00        1.559       69.629      104.083       45.784       50.694       42.775     2096.152     2569.849     1829.705        1.109        0.325       69.646       40.874        0.344      338.171       10.642      866.989
01/01/2014  16:23:00      101.643     -127.217      -16.294       48.750       66.244       37.755     2376.520     4388.201     1425.455        1.748        0.410      162.835       39.834        0.060      338.223       10.727      866.997
01/01/2014  16:24:00      141.783     -169.568      -31.285       56.710       47.958       29.712     3216.030     2299.985      882.820        2.812        0.320      221.033       20.673        0.009      338.228       10.733      866.993
01/01/2014  16:25:00      142.859     -131.707      -19.969       59.887       64.370       39.485     3586.463     4143.547     1559.045        2.372        0.464      194.307       37.145        0.037      338.175       10.644      866.999
01/01/2014  16:26:00      111.792      -95.237      -12.882       66.456       72.690       40.017     4416.419     5283.837     1601.390        1.652        0.565      146.859       46.003        0.098      338.185       10.662      867.015
01/01/2014  16:27:00       46.032      -89.428        2.879       47.674       67.642       38.445     2272.846     4575.439     1478.016        0.922        0.416      100.580       33.084        0.108      338.169       10.637      867.031
01/01/2014  16:28:00      136.948     -133.076      -24.795       39.812       40.672       22.371     1585.030     1654.187      500.444        2.041        0.187      190.955       10.503        0.003      338.153       10.609      867.038
01/01/2014  16:29:00      128.826     -127.512      -20.286       47.028       66.447       36.498     2211.677     4415.208     1332.085        2.061        0.398      181.261       28.284        0.024      338.117       10.549      867.040
01/01/2014  16:30:00       96.127      -68.278        4.080       53.910       58.139       48.256     2906.242     3380.162     2328.650        1.127        0.431      117.908       49.050        0.173      338.080       10.488      867.050
01/01/2014  16:31:00       46.389      -30.248       27.190       57.007       55.913       30.962     3249.803     3126.310      958.675        0.557        0.367       55.379       39.314        0.504      338.047       10.432      867.060
01/01/2014  16:32:00       48.582      -82.483        1.265       37.086       61.902       27.570     1375.385     3831.811      760.083        0.757        0.298       95.727       29.036        0.092      338.099       10.522      867.075
01/01/2014  16:33:00      113.509     -129.631       -9.799       44.924       57.292       31.693     2018.207     3282.411     1004.477        1.804        0.315      172.304       32.482        0.036      338.041       10.421      867.078
01/01/2014  16:34:00       54.908      -43.326       17.660       43.610       49.381       35.043     1901.863     2438.525     1228.036        0.539        0.278       69.943       36.897        0.278      337.949       10.268      867.090
01/01/2014  16:35:00       75.103      -60.084       12.135       53.147       58.501       29.728     2824.558     3422.349      883.781        0.826        0.357       96.180       38.358        0.159      337.984       10.328      867.091
01/01/2014  16:36:00       81.653      -70.278       -5.530       54.636       61.620       38.250     2985.048     3797.039     1463.083        0.994        0.412      107.732       42.346        0.155      337.984       10.327      867.083
01/01/2014  16:37:00      108.031      -91.918       -5.515       52.285       56.020       31.945     2733.741     3138.265     1020.480        1.352        0.345      141.843       21.410        0.023      337.996       10.347      867.080
01/01/2014  16:38:00      101.057      -88.712       -9.889       44.356       51.565       30.894     1967.433     2658.998      954.433        1.188        0.279      134.471       30.903        0.053      337.964       10.296      867.063
01/01/2014  16:39:00       19.980      -32.890       24.012       36.587       44.426       35.170     1338.630     1973.660     1236.937        0.330        0.227       38.484       31.671        0.677      337.913       10.209      867.061
01/01/2014  16:40:00       97.119     -113.324      -16.860       39.528       42.444       24.631     1562.435     1801.476      606.665        1.326        0.199      149.246       14.400        0.009      337.935       10.246      867.067
01/01/2014  16:41:00       77.651      -86.900       -1.966       30.681       40.670       28.867      941.314     1654.009      833.308        0.851        0.171      116.539       18.124        0.024      337.876       10.149      867.075
01/01/2014  16:42:00       60.482      -36.634        5.275       43.879       45.063       33.422     1925.400     2030.701     1117.028        0.505        0.254       70.711       37.023        0.274      337.847       10.097      867.083
01/01/2014  16:43:00        2.784       37.272       56.001       27.265       27.583       17.357      743.359      760.834      301.256        0.317        0.090       37.375       15.985        0.183      337.796       10.012      867.093
01/01/2014  16:44:00        6.910       88.364      104.628       34.432       57.700       29.350     1185.545     3329.281      861.424        1.209        0.269       88.634       34.974        0.156      337.863       10.124      867.089
01/01/2014  16:45:00       46.113      -11.943       36.211       42.410       40.067       29.559     1798.573     1605.403      873.706        0.393        0.214       47.634       26.783        0.316      337.850       10.101      867.085
01/01/2014  16:46:00       14.342       39.732       53.080       32.853       32.774       27.909     1079.330     1074.108      778.928        0.377        0.147       42.241       26.500        0.394      337.745        9.928      867.075
01/01/2014  16:47:00       90.372       71.068       67.820       57.068       42.977       39.450     3256.805     1847.017     1556.341        1.224        0.333      114.969       24.825        0.047      337.706        9.860      867.071
01/01/2014  16:48:00      112.523       34.092       16.218       67.671       57.392       37.311     4579.374     3293.808     1392.129        1.167        0.463      117.574       29.433        0.063      337.608        9.698      867.074
01/01/2014  16:49:00      114.890       65.876       18.559       35.441       33.178       32.023     1256.092     1100.801     1025.465        1.063        0.169      132.437       19.800        0.022      337.464        9.454      867.095
01/01/2014  16:50:00      112.965       74.481       13.019       49.736       43.814       32.706     2473.625     1919.638     1069.688        1.197        0.273      135.309       20.908        0.024      337.374        9.304      867.117
01/01/2014  16:51:00       73.225       40.191        6.924       34.638       32.778       23.710     1199.810     1074.429      562.174        0.493        0.142       83.530       10.819        0.017      337.321        9.215      867.119
01/01/2014  16:52:00       69.978       50.032       18.231       31.231       25.057       19.724      975.390      627.856      389.023        0.486        0.100       86.024       15.083        0.031      337.336        9.241      867.123
01/01/2014  16:53:00       72.798       29.730       22.797       26.422       22.023       16.783      698.110      485.019      281.681        0.408        0.073       78.635        5.704        0.005      337.342        9.250      867.130
01/01/2014  16:54:00       74.231       42.450       18.823       36.992       26.286       14.020     1368.379      690.961      196.569        0.496        0.113       85.511       13.023        0.023      337.401        9.350      867.125
01/01/2014  16:55:00       96.525       74.920       18.115       23.624       24.108       21.813      558.076      581.200      475.801        0.844        0.081      122.189       13.630        0.012      337.496        9.510      867.126
01/01/2014  16:56:00       74.615       59.493       18.297       32.225       22.318       19.155     1038.476      498.100      366.925        0.567        0.095       95.430       17.233        0.033      337.392        9.335      867.122
01/01/2014  16:57:00       94.930       78.344       11.505       28.192       32.311       29.246      794.800     1044.026      855.356        0.899        0.135      123.083       22.813        0.034      337.397        9.342      867.127
01/01/2014  16:58:00       81.335       68.930       -2.414       41.332       37.437       31.709     1708.309     1401.503     1005.486        0.774        0.206      106.615       19.831        0.035      337.390        9.332      867.126
01/01/2014  16:59:00      111.120       80.668       17.197       42.778       30.979       34.368     1829.985      959.703     1181.181        1.156        0.199      137.313       22.812        0.028      337.409        9.364      867.129
01/01/2014  17:00:00       46.449       53.741        3.339       37.584       33.160       26.999     1412.566     1099.600      728.925        0.415        0.162       71.033       22.422        0.100      337.322        9.218      867.140
01/01/2014  17:01:00       29.943       68.347       -8.075       29.189       32.613       20.124      852.024     1063.602      404.994        0.398        0.116       74.619       18.387        0.061      337.331        9.234      867.157
01/01/2014  17:02:00       47.850       49.288       13.971       38.869       36.815       29.552     1510.794     1355.316      873.302        0.433        0.187       68.694       21.942        0.102      337.343        9.251      867.168
01/01/2014  17:03:00       23.722       60.087       -8.329       32.839       33.154       21.803     1078.404     1099.212      475.392        0.345        0.133       64.600       19.936        0.095      337.358        9.278      867.178
01/01/2014  17:04:00       40.043       75.762        0.538       39.985       23.121       25.369     1598.821      534.572      643.569        0.506        0.139       85.693       16.170        0.036      337.313        9.204      867.179
01/01/2014  17:05:00       65.820       51.971        5.399       31.921       21.603       20.725     1018.982      466.709      429.520        0.449        0.096       83.865       10.364        0.015      337.273        9.137      867.193
01/01/2014  17:06:00       63.808       59.203       -4.457       32.082       21.224       16.968     1029.252      450.458      287.916        0.468        0.088       87.043       14.193        0.027      337.266        9.124      867.206
01/01/2014  17:07:00       15.638       52.624       -5.370       22.661       27.884       18.039      513.531      777.504      325.418        0.233        0.081       54.899       16.276        0.088      337.182        8.983      867.222
01/01/2014  17:08:00        6.107      118.870      -21.127       17.754       20.549        9.940      315.219      422.265       98.806        0.772        0.042      119.027        9.488        0.006      337.211        9.033      867.239
01/01/2014  17:09:00      -10.860      151.893      -23.531       23.561       27.081       10.555      555.121      733.360      111.418        1.257        0.070      152.280        4.935        0.001      337.350        9.264      867.260
01/01/2014  17:10:00       11.164      136.591      -25.529       23.434       22.372       15.678      549.166      500.525      245.799        1.036        0.065      137.046       13.574        0.010      337.380        9.316      867.287
01/01/2014  17:11:00       -9.268      145.864      -19.973       13.436       22.958       12.438      180.519      527.081      154.708        1.131        0.043      146.158       10.027        0.005      337.240        9.081      867.302
01/01/2014  17:12:00      -22.499      105.619      -17.634       22.231       24.792       10.957      494.205      614.635      120.048        0.660        0.061      107.989        7.136        0.004      337.220        9.048      867.318
01/01/2014  17:13:00      -28.436      104.415      -17.567        9.669       12.150        9.914       93.491      147.633       98.297        0.618        0.017      108.218        2.923        0.001      337.234        9.072      867.332
01/01/2014  17:14:00      -30.931       52.700       -7.745       19.653       45.906       14.438      386.253     2107.366      208.467        0.325        0.135       61.106       18.914        0.096      337.117        8.874      867.350
01/01/2014  17:15:00      -45.703        7.042       -8.039       15.534       19.648        9.440      241.301      386.056       89.112        0.146        0.036       46.243        8.292        0.032      336.745        8.253      867.359
01/01/2014  17:16:00      -40.622        0.138       -8.964       15.774       10.267        9.204      248.803      105.405       84.719        0.108        0.022       40.622        5.217        0.016      336.432        7.731      867.370
01/01/2014  17:17:00      -29.016       15.345       -8.845       28.672       44.496        8.230      822.074     1979.869       67.735        0.201        0.143       32.824       14.014        0.182      336.494        7.834      867.387
01/01/2014  17:18:00       -8.964       89.397      -13.734       22.532       28.560       13.825      507.689      815.648      191.140        0.489        0.076       89.845       14.419        0.026      337.150        8.931      867.392
01/01/2014  17:19:00       -5.027       83.056       -6.211       28.402       38.527       16.365      806.674     1484.351      267.829        0.476        0.128       83.208       22.246        0.071      337.035        8.738      867.400
01/01/2014  17:20:00        7.827      109.441      -17.484       27.389       25.624       14.334      750.184      656.574      205.459        0.698        0.081      109.721       13.583        0.015      337.140        8.912      867.407
01/01/2014  17:21:00      -19.365       90.652      -12.032       28.961       39.369       14.427      838.749     1549.889      208.135        0.567        0.130       92.697        9.565        0.011      336.966        8.622      867.411
01/01/2014  17:22:00        0.981       89.868      -10.860       27.039       27.325       14.697      731.134      746.640      216.012        0.494        0.085       89.873       15.452        0.030      336.992        8.665      867.420
01/01/2014  17:23:00      -30.324        4.266       -1.282       20.613       24.215       15.379      424.887      586.389      236.515        0.109        0.062       30.622        9.156        0.089      336.438        7.740      867.432
01/01/2014  17:24:00      -27.559       30.582       -8.352       34.956       37.147       25.244     1221.920     1379.928      637.250        0.250        0.162       41.168       18.536        0.203      336.644        8.083      867.444
01/01/2014  17:25:00       -6.713       50.285       -3.183       22.828       34.909       14.995      521.096     1218.619      224.841        0.227        0.098       50.731       18.611        0.135      336.772        8.298      867.454
01/01/2014  17:26:00      -21.879       28.096       -7.901       31.088       25.732       16.276      966.485      662.121      264.901        0.161        0.095       35.610        4.379        0.015      336.669        8.126      867.465
01/01/2014  17:27:00      -11.144        5.905       -0.198       16.225       16.580       12.129      263.252      274.895      147.111        0.042        0.034       12.612       10.630        0.710      336.474        7.800      867.484
01/01/2014  17:28:00      -37.765      -22.651       -7.080       18.874       12.469       13.327      356.240      155.477      177.606        0.134        0.034       44.037        8.689        0.039      336.224        7.384      867.495
01/01/2014  17:29:00      -69.351      -16.832       -7.226       11.181       15.137       10.672      125.018      229.123      113.887        0.281        0.023       71.365        7.270        0.010      335.832        6.728      867.501
01/01/2014  17:30:00      -29.418       33.768      -11.813       22.562       34.978       10.206      509.043     1223.453      104.164        0.199        0.092       44.785        7.653        0.029      336.339        7.575      867.509
01/01/2014  17:31:00      -20.824       47.486       -9.770       38.083       35.791       13.645     1450.298     1280.976      186.182        0.285        0.146       51.851       10.998        0.045      336.662        8.114      867.513
01/01/2014  17:32:00      -50.037       29.111      -12.708       22.764       29.673       13.692      518.209      880.474      187.479        0.255        0.079       57.889       10.272        0.031      336.386        7.653      867.518
01/01/2014  17:33:00      -49.009       28.015      -10.821       27.140       37.777       15.025      736.588     1427.131      225.740        0.285        0.119       56.451       10.256        0.033      336.186        7.321      867.514
01/01/2014  17:34:00      -50.037       28.225       -9.472       20.550       25.338       14.423      422.322      642.034      208.029        0.233        0.064       57.449       13.347        0.054      336.277        7.471      867.515
01/01/2014  17:35:00      -36.773       14.729       -8.104       25.300       27.902       15.624      640.092      778.497      244.115        0.165        0.083       39.613       11.600        0.086      336.320        7.542      867.509
01/01/2014  17:36:00      -53.839      -21.309       -9.262        9.855       14.387       10.401       97.124      206.981      108.189        0.193        0.021       57.903        6.629        0.013      335.995        7.000      867.515
01/01/2014  17:37:00      -58.162      -25.763      -13.103       12.903       19.578       10.427      166.486      383.282      108.713        0.244        0.033       63.612        8.580        0.018      335.709        6.524      867.517
01/01/2014  17:38:00      -72.114       -2.042      -14.765       17.904       20.861       11.142      320.554      435.170      124.140        0.315        0.044       72.143        6.083        0.007      335.754        6.599      867.513
01/01/2014  17:39:00      -79.033        3.899      -14.000       19.604       15.281       12.386      384.330      233.520      153.412        0.361        0.039       79.130       10.881        0.019      335.731        6.559      867.523
01/01/2014  17:40:00      -81.167       -2.951      -12.762       14.749       18.067       15.131      217.523      326.427      228.962        0.377        0.039       81.220        9.720        0.014      335.729        6.557      867.528
01/01/2014  17:41:00      -74.067        2.540      -13.389       19.622       19.257       16.111      385.018      370.841      259.574        0.334        0.051       74.111       14.318        0.037      335.575        6.298      867.540
01/01/2014  17:42:00      -78.965      -10.994      -14.032       19.511       15.392       11.685      380.672      236.905      136.547        0.365        0.038       79.726       10.091        0.016      335.609        6.357      867.550
01/01/2014  17:43:00     -116.183       -0.528      -22.875       23.667       15.954       13.144      560.129      254.541      172.755        0.750        0.049      116.184        8.980        0.006      335.522        6.212      867.548
01/01/2014  17:44:00      -97.611       -4.328      -20.370       19.686       22.340       14.726      387.522      499.062      216.846        0.553        0.055       97.707       12.385        0.016      335.599        6.340      867.559
01/01/2014  17:45:00     -107.482        2.998      -23.227       15.957       15.942       10.375      254.616      254.160      107.645        0.636        0.031      107.524        8.339        0.006      335.460        6.110      867.567
01/01/2014  17:46:00     -108.446       11.296      -24.236       15.173       16.803       12.503      230.232      282.326      156.313        0.657        0.033      109.033        8.725        0.006      335.584        6.316      867.586
01/01/2014  17:47:00     -101.823        7.539      -24.270       19.375       16.023       12.345      375.381      256.744      152.395        0.590        0.039      102.102        6.867        0.005      335.425        6.050      867.596
01/01/2014  17:48:00     -106.032        4.879      -22.357       12.934       15.413        9.555      167.278      237.570       91.293        0.613        0.025      106.144        6.624        0.004      335.433        6.063      867.600
01/01/2014  17:49:00      -94.237        5.698      -19.363       21.711       15.907       13.707      471.380      253.036      187.884        0.510        0.046       94.409        9.172        0.009      335.329        5.889      867.605
01/01/2014  17:50:00      -78.576        7.006      -16.828       27.678       25.421       13.708      766.095      646.207      187.906        0.405        0.080       78.888       10.356        0.017      335.360        5.941      867.595
01/01/2014  17:51:00      -99.394       -0.719      -20.484       21.338       19.333       15.962      455.315      373.782      254.771        0.569        0.054       99.397       12.154        0.015      335.369        5.955      867.584
01/01/2014  17:52:00      -70.345      -15.681      -16.714       14.280       21.953       10.946      203.911      481.947      119.819        0.314        0.040       72.071        9.252        0.016      335.296        5.834      867.597
01/01/2014  17:53:00      -96.355        1.783      -19.344       18.798       16.502       12.436      353.368      272.315      154.663        0.522        0.039       96.371       10.985        0.013      335.445        6.083      867.597
01/01/2014  17:54:00      -76.812       -3.232      -16.878       16.521       12.452        9.198      272.951      155.059       84.606        0.335        0.026       76.880        6.142        0.006      335.182        5.646      867.605
01/01/2014  17:55:00      -76.077        0.832      -15.989       16.168       16.753       13.419      261.419      280.650      180.081        0.338        0.036       76.082       11.717        0.024      335.270        5.790      867.615
01/01/2014  17:56:00      -82.048        2.934      -19.203       11.976       20.173       13.858      143.423      406.947      192.052        0.393        0.037       82.101        4.335        0.003      335.376        5.969      867.608
01/01/2014  17:57:00      -76.646       -6.880      -16.969       15.938       17.683       13.118      254.024      312.682      172.081        0.347        0.037       76.954        8.525        0.012      335.401        6.010      867.599
01/01/2014  17:58:00      -71.342        0.967       -9.323       19.252       16.249       15.941      370.628      264.035      254.102        0.303        0.044       71.348       14.142        0.039      335.270        5.792      867.601
01/01/2014  17:59:00      -58.285        0.252       -9.511       24.483       21.329       17.782      599.423      454.947      316.190        0.243        0.069       58.286       11.078        0.036      335.463        6.114      867.593
01/01/2014  18:00:00      -51.734        4.852       -5.974       23.009       16.893       17.908      529.428      285.367      320.698        0.194        0.057       51.961       11.360        0.048      335.619        6.373      867.594
01/01/2014  18:01:00      -30.520       90.197       -8.562       34.077       43.532       27.633     1161.230     1895.005      763.572        0.648        0.191       95.221       22.270        0.055      336.126        7.218      867.599
01/01/2014  18:02:00      -21.807       87.796      -10.642       40.449       47.187       14.132     1636.125     2226.583      199.712        0.618        0.203       90.464       20.450        0.051      336.108        7.189      867.607
01/01/2014  18:03:00      -47.103       60.464      -11.812       24.787       41.002       17.966      614.382     1681.149      322.784        0.432        0.131       76.646       17.761        0.054      336.073        7.132      867.601
01/01/2014  18:04:00      -50.710       23.576      -12.013       22.667       30.093       15.210      513.772      905.599      231.353        0.246        0.083       55.923       11.582        0.043      335.541        6.243      867.618
01/01/2014  18:05:00      -48.695        5.884       -9.939       16.165       23.275       16.771      261.295      541.708      281.273        0.179        0.054       49.049        7.035        0.021      335.385        5.983      867.615
01/01/2014  18:06:00      -63.633       -1.293      -12.561       16.553       17.767       13.429      273.988      315.668      180.336        0.249        0.038       63.646        7.191        0.013      335.355        5.934      867.626
01/01/2014  18:07:00      -73.726       17.400      -16.716       24.003       32.150       15.800      576.131     1033.650      249.642        0.394        0.093       75.751       13.367        0.031      335.403        6.015      867.628
01/01/2014  18:08:00      -59.617       11.843      -18.164       22.279       26.547       12.466      496.360      704.718      155.406        0.269        0.068       60.782       10.195        0.028      335.360        5.944      867.632
01/01/2014  18:09:00      -79.669       26.682      -13.562       25.444       33.793       20.056      647.400     1141.991      402.252        0.472        0.110       84.018        8.254        0.010      335.641        6.410      867.628
01/01/2014  18:10:00      -64.287       -3.869      -13.720       21.419       20.528       10.453      458.783      421.415      109.261        0.266        0.049       64.404        4.697        0.005      335.298        5.839      867.618
01/01/2014  18:11:00      -89.251       -1.903      -16.318       27.031       17.341       10.843      730.666      300.694      117.567        0.469        0.057       89.271        8.844        0.010      335.163        5.614      867.622
01/01/2014  18:12:00      -97.891       -0.873      -19.213       27.545       18.360       16.671      758.736      337.091      277.907        0.566        0.069       97.895       16.656        0.029      335.301        5.844      867.622
01/01/2014  18:13:00      -80.874        1.471      -12.107       24.642       32.969       17.968      607.237     1086.939      322.843        0.435        0.101       80.888       11.378        0.020      335.257        5.772      867.628
01/01/2014  18:14:00      -65.904       -5.230      -10.763       15.781       13.536       10.770      249.044      183.230      115.994        0.252        0.027       66.111        4.106        0.004      335.149        5.591      867.635
01/01/2014  18:15:00      -65.733        0.812      -14.137       14.118       10.546        8.720      199.311      111.225       76.041        0.245        0.019       65.738        3.274        0.002      335.056        5.438      867.651
01/01/2014  18:16:00      -64.706        2.170      -12.546       19.796       18.158       14.672      391.900      329.718      215.266        0.264        0.047       64.743       10.682        0.027      335.347        5.922      867.656
01/01/2014  18:17:00     -100.474        0.142      -15.914       17.289       18.233       15.766      298.920      332.459      248.562        0.561        0.044      100.474        9.886        0.010      335.013        5.366      867.665
01/01/2014  18:18:00      -76.666       13.556      -15.563       17.678       23.812       15.623      312.518      566.991      244.086        0.371        0.056       77.855        4.588        0.003      335.229        5.724      867.667
01/01/2014  18:19:00      -57.841       -3.172       -6.859       22.757       19.801       13.252      517.894      392.095      175.625        0.224        0.054       57.928        8.808        0.023      335.205        5.685      867.683
01/01/2014  18:20:00      -68.348       -0.045      -12.914       18.288       22.691       13.718      334.458      514.898      188.178        0.294        0.052       68.348        9.443        0.019      335.245        5.751      867.691
01/01/2014  18:21:00      -61.569      -13.052      -10.755       21.450       15.187       10.520      460.111      230.654      110.676        0.244        0.040       62.937        9.281        0.022      335.105        5.519      867.717
01/01/2014  18:22:00      -79.182      -11.462      -16.349       16.867       16.391       11.233      284.509      268.674      126.170        0.367        0.034       80.008        9.716        0.015      335.048        5.425      867.726
01/01/2014  18:23:00      -78.956       -9.829      -14.102       14.039       11.549        9.967      197.085      133.376       99.337        0.348        0.021       79.565        8.407        0.011      334.967        5.289      867.753
01/01/2014  18:24:00      -67.158       13.633      -12.489       19.760       27.500       12.851      390.446      756.255      165.140        0.308        0.066       68.527       12.099        0.031      335.259        5.774      867.765
01/01/2014  18:25:00      -56.077       35.318      -14.220       28.252       28.711       17.464      798.175      824.317      304.997        0.326        0.096       66.273       12.747        0.037      335.530        6.227      867.777
01/01/2014  18:26:00      -65.039       26.028      -14.529       26.513       40.762       12.849      702.936     1661.520      165.088        0.382        0.126       70.053       16.489        0.055      335.330        5.893      867.782
01/01/2014  18:27:00      -61.289       57.155      -16.514       32.493       31.473       18.189     1055.814      990.544      330.843        0.484        0.119       83.804       10.746        0.016      335.591        6.326      867.791
01/01/2014  18:28:00      -30.439       22.952      -12.643       22.989       28.044       13.065      528.516      786.459      170.706        0.155        0.074       38.122        8.879        0.054      335.486        6.153      867.798
01/01/2014  18:29:00      -41.647       32.372       -8.195       20.589       27.804       13.008      423.896      773.043      169.197        0.211        0.068       52.749       12.793        0.059      335.587        6.320      867.801
01/01/2014  18:30:00      -31.815       12.804       -9.788       18.692       27.900        9.102      349.408      778.427       82.838        0.124        0.061       34.295        8.212        0.057      335.562        6.278      867.819
01/01/2014  18:31:00      -30.737       57.858      -12.760       33.819       52.792       21.475     1143.743     2786.948      461.184        0.442        0.220       65.516       24.769        0.143      335.767        6.620      867.839
01/01/2014  18:32:00      -32.837       13.968       -6.646       21.538       23.373       15.720      463.907      546.280      247.126        0.129        0.063       35.684       11.447        0.103      335.389        5.992      867.873
01/01/2014  18:33:00       -3.437       67.713      -17.755       31.776       26.972       14.978     1009.730      727.501      224.331        0.344        0.098       67.801        4.832        0.005      335.950        6.925      867.882
01/01/2014  18:34:00      -32.690       23.407       -6.980       27.933       27.120       12.021      780.268      735.503      144.498        0.166        0.083       40.206        7.770        0.037      335.562        6.278      867.887
01/01/2014  18:35:00      -16.860       68.264       -8.619       22.095       32.675       11.573      488.190     1067.675      133.923        0.335        0.084       70.315       13.309        0.036      336.078        7.139      867.892
01/01/2014  18:36:00      -28.395      105.267       -9.256       33.591       39.973       14.622     1128.322     1597.819      213.798        0.746        0.147      109.029        9.485        0.008      335.972        6.960      867.885
01/01/2014  18:37:00       14.582       91.490       -6.820       21.847       34.970       18.528      477.299     1222.884      343.297        0.534        0.102       92.645       16.880        0.033      335.981        6.977      867.890
01/01/2014  18:38:00       15.226      111.489      -11.337       28.684       18.708       12.960      822.766      349.995      167.962        0.707        0.067      112.524       10.226        0.008      336.009        7.021      867.902
01/01/2014  18:39:00       15.449      104.511      -12.039       26.754       30.678       15.645      715.782      941.156      244.757        0.660        0.095      105.646       14.824        0.020      335.907        6.854      867.901
01/01/2014  18:40:00       -8.599      117.862      -16.423       21.825       28.794       13.124      476.335      829.083      172.249        0.786        0.074      118.175       14.255        0.015      335.957        6.936      867.900
01/01/2014  18:41:00       21.272      119.221      -20.279       22.887       17.307       13.131      523.805      299.531      172.420        0.804        0.050      121.104       13.092        0.012      335.915        6.867      867.904
01/01/2014  18:42:00       -5.141      143.922      -24.382       34.335       37.007       15.506     1178.924     1369.543      240.448        1.206        0.139      144.014       10.021        0.005      335.872        6.794      867.899
01/01/2014  18:43:00       -4.848      108.806      -15.972       21.123       28.288       14.184      446.165      800.238      201.197        0.678        0.072      108.914       15.633        0.021      335.919        6.872      867.901
01/01/2014  18:44:00       -1.248      121.903      -20.598       20.905       19.764       11.757      437.018      390.599      138.222        0.813        0.048      121.909       11.400        0.009      335.856        6.767      867.916
01/01/2014  18:45:00      -18.131       72.196       -7.619       26.846       42.315       19.919      720.724     1790.535      396.752        0.425        0.145       74.438        9.649        0.017      335.823        6.714      867.904
01/01/2014  18:46:00      -54.867       -2.605      -11.548       19.230       22.222       10.580      369.779      493.801      111.927        0.206        0.049       54.929        7.836        0.020      335.243        5.747      867.898
01/01/2014  18:47:00      -68.561      -10.754       -9.363       14.580       19.509       12.602      212.581      380.589      158.804        0.283        0.038       69.399        5.074        0.005      334.862        5.115      867.899
01/01/2014  18:48:00      -96.147       -6.545      -17.043       18.051       13.030       11.012      325.821      169.791      121.271        0.510        0.031       96.369        7.776        0.007      334.733        4.900      867.908
01/01/2014  18:49:00     -101.340       -2.742      -20.012       15.994       12.703       12.727      255.795      161.375      161.981        0.563        0.029      101.377        8.354        0.007      334.709        4.860      867.910
01/01/2014  18:50:00      -98.876      -17.574      -22.245       16.763       19.172       13.323      281.013      367.561      177.493        0.570        0.041      100.426        8.075        0.006      334.752        4.932      867.901
01/01/2014  18:51:00      -84.490      -16.492      -14.857       15.735       16.430       12.497      247.599      269.939      156.181        0.415        0.034       86.085        8.402        0.010      334.728        4.892      867.894
01/01/2014  18:52:00     -103.555      -15.630      -13.144       18.064       21.045       17.686      326.315      442.899      312.787        0.611        0.054      104.727        8.866        0.007      334.792        4.998      867.895
01/01/2014  18:53:00     -116.251       -2.447      -13.446       34.883       20.651       19.134     1216.836      426.471      366.117        0.785        0.100      116.277       19.022        0.027      334.685        4.821      867.885
01/01/2014  18:54:00     -128.533        8.520      -16.738       34.887       27.835       19.397     1217.073      774.812      376.227        0.962        0.118      128.815       20.383        0.025      334.728        4.891      867.875
01/01/2014  18:55:00     -120.723       13.928      -22.171       37.193       19.922       21.345     1383.330      396.880      455.619        0.875        0.112      121.524       20.574        0.029      334.747        4.923      867.880
01/01/2014  18:56:00     -121.219        1.661      -23.132       23.983       17.685       12.439      575.181      312.760      154.735        0.814        0.052      121.230        8.930        0.005      334.671        4.798      867.883
01/01/2014  18:57:00     -132.737       19.420      -16.017       20.818       19.409       17.209      433.400      376.703      296.153        0.968        0.055      134.150       11.382        0.007      334.800        5.012      867.887
01/01/2014  18:58:00      -94.568        7.355      -13.703       32.374       30.858       17.135     1048.075      952.204      293.614        0.574        0.115       94.854       16.304        0.030      334.673        4.801      867.898
01/01/2014  18:59:00      -89.040       -2.591      -16.058       26.173       23.556       17.269      685.048      554.902      298.229        0.487        0.077       89.077       14.333        0.026      334.668        4.792      867.896
01/01/2014  19:00:00      -84.971        2.835      -15.657       28.549       21.731       17.297      815.053      472.244      299.191        0.453        0.079       85.018       13.026        0.023      334.684        4.819      867.880
01/01/2014  19:01:00      -67.869        1.346      -19.755       24.840       19.244       15.093      617.027      370.345      227.795        0.311        0.061       67.882       14.463        0.045      334.733        4.901      867.866
01/01/2014  19:02:00      -85.175       -7.460      -12.027       17.317       14.428       11.301      299.878      208.156      127.718        0.405        0.032       85.501        9.675        0.013      334.728        4.891      867.865
01/01/2014  19:03:00      -77.295       -3.613      -17.366       11.625       12.993        9.983      135.140      168.812       99.657        0.335        0.020       77.380        7.400        0.009      334.656        4.772      867.860
01/01/2014  19:04:00      -92.530       -3.964      -17.480       15.196       13.416       12.032      230.917      179.996      144.758        0.472        0.028       92.615        8.423        0.008      334.555        4.606      867.867
01/01/2014  19:05:00     -107.030      -22.765      -15.682       11.549       18.898       10.933      133.376      357.143      119.522        0.641        0.031      109.424        8.161        0.006      334.549        4.594      867.884
01/01/2014  19:06:00      -86.760      -19.950      -12.764       22.580       18.462       13.211      509.859      340.857      174.520        0.456        0.051       89.024       10.273        0.013      334.559        4.611      867.886
01/01/2014  19:07:00     -106.122        0.213      -18.702       26.555       17.869       16.333      705.155      319.289      266.783        0.645        0.065      106.122       11.507        0.012      334.498        4.511      867.897
01/01/2014  19:08:00     -109.509       -1.547      -10.205       31.568       15.015       16.777      996.561      225.451      281.456        0.680        0.075      109.520       15.842        0.021      334.482        4.484      867.905
01/01/2014  19:09:00      -93.415      -11.628      -10.148       47.387       20.910       17.759     2245.565      437.229      315.379        0.598        0.150       94.136       22.756        0.058      334.463        4.451      867.909
01/01/2014  19:10:00     -132.729        2.071      -12.423       30.284       22.747       18.271      917.126      517.416      333.847        0.977        0.088      132.745       16.125        0.015      334.552        4.600      867.924
01/01/2014  19:11:00     -122.904        0.600       -8.463       31.927       25.839       22.152     1019.358      667.646      490.722        0.868        0.109      122.906       19.074        0.024      334.577        4.642      867.932
01/01/2014  19:12:00     -138.744        8.844      -16.905       27.516       17.458       18.723      757.154      304.791      350.554        1.051        0.071      139.026        7.891        0.003      334.676        4.805      867.945
01/01/2014  19:13:00     -130.327        5.368      -15.827       27.896       25.183       18.021      778.180      634.186      324.773        0.950        0.087      130.437       12.020        0.008      334.667        4.790      867.960
01/01/2014  19:14:00     -104.929       -6.069      -11.935       33.783       15.352       15.151     1141.278      235.697      229.552        0.640        0.080      105.105       17.773        0.029      334.616        4.705      867.965
01/01/2014  19:15:00     -101.715       -3.686       -9.906       32.440       18.972       17.495     1052.366      359.948      306.062        0.609        0.086      101.782        7.325        0.005      334.534        4.570      867.965
01/01/2014  19:16:00     -100.679      -12.581      -10.179       30.160       23.056       16.289      909.606      531.579      265.316        0.605        0.085      101.462        7.612        0.006      334.590        4.662      867.963
01/01/2014  19:17:00      -83.783      -18.884      -14.891       15.705       17.222       11.858      246.642      296.603      140.607        0.414        0.034       85.885        9.051        0.011      334.621        4.715      867.962
01/01/2014  19:18:00      -78.251      -21.823      -11.160       12.646       13.153       11.117      159.932      173.006      123.589        0.359        0.023       81.237        6.435        0.006      334.648        4.759      867.967
01/01/2014  19:19:00      -67.828      -24.169      -13.312       17.099       13.484       10.178      292.390      181.817      103.600        0.297        0.029       72.006        6.249        0.008      334.639        4.744      867.973
01/01/2014  19:20:00      -58.289      -26.767      -12.988       10.969       10.071        8.238      120.323      101.435       67.866        0.229        0.014       64.141        5.626        0.008      334.593        4.669      867.964
01/01/2014  19:21:00      -42.091      -39.753       -9.698       13.782       10.265        9.045      189.951      105.370       81.805        0.191        0.019       57.896        4.735        0.007      334.583        4.651      867.962
01/01/2014  19:22:00      -53.509      -36.925      -11.520       13.748       14.025       10.746      189.005      196.707      115.473        0.243        0.025       65.013        7.385        0.013      334.608        4.693      867.961
01/01/2014  19:23:00      -74.899      -36.860      -16.553       11.592       10.350        9.204      134.374      107.120       84.717        0.378        0.016       83.477        6.137        0.005      334.551        4.597      867.955
01/01/2014  19:24:00      -76.131      -39.067       -9.322       13.282       11.511        7.137      176.420      132.497       50.940        0.388        0.018       85.570        4.920        0.003      334.562        4.615      867.961
01/01/2014  19:25:00     -102.037      -42.933      -17.422       10.360       13.273        7.026      107.321      176.176       49.363        0.645        0.017      110.702        5.188        0.002      334.574        4.637      867.960
01/01/2014  19:26:00      -89.423      -40.347      -12.857       13.768       13.304        9.188      189.567      176.993       84.421        0.512        0.023       98.104        7.284        0.006      334.561        4.614      867.957
01/01/2014  19:27:00      -78.538      -40.916       -8.195       10.580        9.587        6.417      111.929       91.920       41.175        0.408        0.012       88.557        2.552        0.001      334.529        4.561      867.963
01/01/2014  19:28:00      -86.953      -35.168       -9.429       10.896        7.625        7.346      118.726       58.144       53.969        0.456        0.012       93.795        3.118        0.001      334.598        4.677      867.981
01/01/2014  19:29:00      -74.133      -27.918      -13.675        8.314        8.309        5.932       69.130       69.032       35.187        0.332        0.009       79.216        2.150        0.001      334.684        4.820      867.978
01/01/2014  19:30:00      -73.111      -29.585      -10.382        4.644        5.237        4.027       21.568       27.423       16.218        0.320        0.003       78.870        1.878        0.001      334.656        4.773      867.977
01/01/2014  19:31:00      -76.446      -22.571      -17.434        7.123        7.037        5.615       50.743       49.525       31.524        0.339        0.007       79.709        3.597        0.002      334.670        4.797      867.985
01/01/2014  19:32:00      -66.029      -27.586      -13.050        6.304        8.203        6.517       39.745       67.286       42.475        0.272        0.007       71.560        5.732        0.006      334.637        4.740      867.995
01/01/2014  19:33:00      -64.808      -27.195      -11.572        6.869        7.029        5.942       47.188       49.410       35.306        0.260        0.007       70.283        3.724        0.003      334.588        4.661      867.996
01/01/2014  19:34:00      -62.947      -29.919      -11.362        7.330        4.772        5.627       53.733       22.776       31.665        0.255        0.005       69.696        2.238        0.001      334.538        4.577      867.995
01/01/2014  19:35:00      -69.605      -18.423      -11.493        5.940        6.674        5.142       35.278       44.538       26.442        0.271        0.005       72.002        2.965        0.002      334.546        4.588      867.999
01/01/2014  19:36:00      -83.237      -14.205      -14.817       12.434        8.804        7.868      154.615       77.508       61.898        0.382        0.015       84.441        4.335        0.003      334.558        4.610      867.997
01/01/2014  19:37:00      -96.386      -29.956      -12.751        7.695        8.656        6.064       59.209       74.929       36.768        0.526        0.009      100.934        3.630        0.001      334.465        4.455      867.974
01/01/2014  19:38:00      -87.519      -37.579      -13.918        8.140        8.403        7.872       66.265       70.615       61.971        0.473        0.010       95.246        4.539        0.002      334.442        4.418      867.959
01/01/2014  19:39:00      -86.659      -39.652      -14.192       13.949       12.916       10.269      194.589      166.831      105.461        0.488        0.023       95.300        6.943        0.005      334.373        4.303      867.947
01/01/2014  19:40:00      -86.311      -13.845       -7.084       25.417       25.454       14.661      646.046      647.888      214.951        0.460        0.075       87.414        9.910        0.013      334.373        4.303      867.932
01/01/2014  19:41:00      -28.829       -8.581       -0.966       20.337       17.930       12.670      413.591      321.481      160.520        0.090        0.045       30.079        9.794        0.106      334.308        4.197      867.919
01/01/2014  19:42:00      -46.850      -18.622       -7.918       29.698       14.570       13.255      881.945      212.294      175.686        0.194        0.063       50.416       16.455        0.107      334.329        4.231      867.917
01/01/2014  19:43:00      -77.847      -16.381       -5.899       22.493       25.092       14.630      505.950      629.627      214.039        0.386        0.067       79.551       11.133        0.020      334.319        4.214      867.921
01/01/2014  19:44:00      -76.637       -5.138       -9.337       34.336       16.785       12.008     1178.950      281.752      144.187        0.380        0.080       76.809        9.015        0.014      334.333        4.238      867.936
01/01/2014  19:45:00      -92.413      -12.905       -8.223       40.173       27.208       16.291     1613.887      740.274      265.407        0.570        0.131       93.310       20.324        0.047      334.195        4.009      867.943
01/01/2014  19:46:00     -101.074      -30.352      -16.999       19.679       25.742       13.978      387.245      662.656      195.396        0.634        0.062      105.533        8.711        0.007      334.200        4.015      867.944
01/01/2014  19:47:00      -59.899      -41.000      -12.422       31.506       21.597       16.640      992.598      466.421      276.887        0.358        0.087       72.587       15.388        0.045      334.171        3.967      867.948
01/01/2014  19:48:00      -75.215      -23.304       -9.668       20.685       17.865       11.043      427.881      319.167      121.950        0.358        0.043       78.742        7.342        0.009      334.221        4.052      867.969
01/01/2014  19:49:00      -71.990      -34.451       -7.012       17.668       20.345       13.537      312.171      413.917      183.246        0.366        0.045       79.808       12.253        0.024      334.239        4.081      867.980
01/01/2014  19:50:00     -101.062      -29.711      -12.785       18.495       13.183       11.324      342.074      173.788      128.232        0.595        0.032      105.339        7.567        0.005      334.207        4.028      867.976
01/01/2014  19:51:00     -108.761      -21.131       -7.755       26.511       18.313       17.069      702.823      335.381      291.340        0.683        0.066      110.794       14.457        0.017      334.200        4.016      867.966
01/01/2014  19:52:00     -109.861       -7.084       -8.532       32.019       22.097       15.243     1025.204      488.286      232.356        0.697        0.087      110.090       12.949        0.014      334.261        4.116      867.972
01/01/2014  19:53:00      -57.969       -0.848       -5.779       43.841       30.865       20.088     1922.039      952.665      403.546        0.334        0.164       57.975       20.231        0.122      334.300        4.182      867.971
01/01/2014  19:54:00      -60.579       -7.600      -12.327       22.598       19.904       15.432      510.671      396.154      238.150        0.251        0.057       61.054       12.907        0.045      334.320        4.215      867.964
01/01/2014  19:55:00      -73.043       -8.345      -17.605       12.119       15.350       10.249      146.864      235.623      105.048        0.310        0.024       73.518        7.581        0.011      334.276        4.142      867.966
01/01/2014  19:56:00      -61.430      -18.942      -12.065       22.178       16.368       11.262      491.878      267.907      126.844        0.258        0.044       64.284        8.586        0.018      334.293        4.171      867.982
01/01/2014  19:57:00      -49.980      -13.612      -10.528       28.529       19.310       11.158      813.892      372.891      124.503        0.205        0.066       51.800       10.429        0.041      334.272        4.137      867.986
01/01/2014  19:58:00      -50.727      -15.503      -18.525       26.169       20.018       11.873      684.828      400.716      140.976        0.219        0.061       53.043       13.511        0.065      334.300        4.182      867.992
01/01/2014  19:59:00      -64.220      -15.268      -12.716       17.102       14.438       11.405      292.475      208.464      130.076        0.257        0.032       66.009        5.387        0.007      334.241        4.084      867.996
01/01/2014  20:00:00      -63.081      -12.879      -11.598       18.823       14.934        9.209      354.307      223.019       84.801        0.247        0.033       64.382        7.496        0.014      334.210        4.032      868.013
01/01/2014  20:01:00      -74.007      -25.018      -11.228       25.150       19.287       12.362      632.543      371.981      152.811        0.369        0.058       78.121        7.022        0.008      334.213        4.037      868.028
01/01/2014  20:02:00      -70.429      -20.806       -9.793       17.109       22.467       13.432      292.711      504.758      180.417        0.323        0.049       73.438       10.296        0.020      334.230        4.066      868.029
01/01/2014  20:03:00     -112.784      -12.085      -16.755       19.067       19.806       13.899      363.538      392.266      193.180        0.705        0.047      113.430       10.071        0.008      334.213        4.037      868.034
01/01/2014  20:04:00      -85.925      -15.413      -11.970       27.582       18.654       12.993      760.767      347.983      168.822        0.452        0.064       87.296        7.629        0.008      334.239        4.080      868.033
01/01/2014  20:05:00      -80.307       -1.948       -8.951       23.325       15.182       12.603      544.046      230.485      158.828        0.373        0.047       80.331       10.861        0.018      334.228        4.062      868.049
01/01/2014  20:06:00     -103.138        5.096      -16.471       27.724       24.932       15.676      768.624      621.629      245.731        0.629        0.082      103.264       13.168        0.016      334.263        4.121      868.054
01/01/2014  20:07:00      -78.741        1.501       -9.388       28.854       14.264       15.382      832.562      203.475      236.602        0.378        0.064       78.755       15.796        0.040      334.283        4.154      868.060
01/01/2014  20:08:00      -52.299       -8.095       -8.699       26.169       18.633       13.399      684.831      347.177      179.523        0.204        0.061       52.922       15.086        0.081      334.241        4.083      868.062
01/01/2014  20:09:00      -62.866        1.079      -12.575       19.771       16.964        9.395      390.909      287.775       88.264        0.244        0.038       62.875        6.907        0.012      334.257        4.111      868.077
01/01/2014  20:10:00      -67.262        0.723      -11.221       17.974       13.835       10.442      323.075      191.407      109.045        0.264        0.031       67.265        7.996        0.014      334.276        4.142      868.076
01/01/2014  20:11:00      -69.925       -5.346      -17.218       13.831       10.705       10.725      191.299      114.606      115.021        0.282        0.021       70.129        3.935        0.003      334.221        4.050      868.086
01/01/2014  20:12:00      -46.265       -7.702       -7.197       16.631       13.992       10.025      276.593      195.777      100.498        0.141        0.029       46.901        9.403        0.040      334.182        3.986      868.093
01/01/2014  20:13:00      -25.507      -24.945       -5.622       16.091       12.669       10.889      258.906      160.502      118.566        0.092        0.027       35.677        9.084        0.065      334.245        4.091      868.112
01/01/2014  20:14:00      -22.176      -30.593       -9.902       12.694       13.768       10.289      161.135      189.553      105.857        0.099        0.023       37.785        8.691        0.053      334.274        4.139      868.117
01/01/2014  20:15:00      -25.964      -30.508       -4.784       10.417        7.225        8.067      108.508       52.203       65.077        0.093        0.011       40.060        3.195        0.006      334.445        4.423      868.115
01/01/2014  20:16:00      -32.692      -27.277       -5.092       17.711        9.565        6.940      313.681       91.493       48.166        0.115        0.023       42.577        3.118        0.005      334.407        4.358      868.110
01/01/2014  20:17:00      -48.336      -20.340       -7.412        6.006        8.247        6.067       36.073       68.020       36.813        0.147        0.007       52.442        2.926        0.003      334.255        4.108      868.117
01/01/2014  20:18:00      -66.588       -8.533      -11.049       10.626       10.755        7.379      112.912      115.666       54.457        0.246        0.014       67.133        3.916        0.003      334.263        4.121      868.125
01/01/2014  20:19:00      -88.272      -20.488      -11.153       13.925       15.211        8.594      193.907      231.365       73.849        0.442        0.025       90.618        6.277        0.005      334.077        3.812      868.126
01/01/2014  20:20:00      -87.769      -37.649      -11.664        8.456       11.610        6.918       71.504      134.785       47.861        0.476        0.013       95.503        3.397        0.001      334.057        3.778      868.125
01/01/2014  20:21:00      -69.821      -37.890       -8.221       14.102        8.817        6.724      198.864       77.732       45.212        0.335        0.016       79.439        2.865        0.001      334.012        3.704      868.133
01/01/2014  20:22:00      -62.549      -38.764       -8.760        8.176        7.345        7.615       66.847       53.950       57.991        0.284        0.009       73.587        3.235        0.002      334.108        3.861      868.128
01/01/2014  20:23:00      -57.618      -38.390       -8.381        8.033        6.403        4.565       64.535       40.995       20.838        0.250        0.006       69.236        1.963        0.001      334.144        3.923      868.114
01/01/2014  20:24:00      -52.596      -35.986      -10.579        7.439        9.369        6.800       55.343       87.783       46.236        0.218        0.009       63.729        5.603        0.008      334.193        4.005      868.108
01/01/2014  20:25:00      -74.882      -28.325      -10.723       10.198        9.005        5.924      103.994       81.092       35.091        0.337        0.011       80.060        5.449        0.005      334.217        4.044      868.102
01/01/2014  20:26:00      -78.112      -30.423      -11.002        4.906        5.297        4.848       24.071       28.061       23.500        0.361        0.004       83.828        2.163        0.001      334.112        3.872      868.095
01/01/2014  20:27:00      -78.380      -35.635      -10.853        6.962        6.287        4.649       48.470       39.522       21.615        0.382        0.005       86.100        2.544        0.001      334.141        3.917      868.087
01/01/2014  20:28:00      -74.548      -32.118       -8.793        6.666        7.032        7.044       44.432       49.445       49.612        0.340        0.007       81.173        2.995        0.001      333.967        3.628      868.083
01/01/2014  20:29:00      -68.929      -26.976      -13.178        5.529        7.024        4.730       30.566       49.340       22.372        0.288        0.005       74.020        3.067        0.002      334.112        3.871      868.073
01/01/2014  20:30:00      -61.312      -18.368      -11.781        7.637        8.691        7.032       58.327       75.530       49.443        0.221        0.009       64.005        5.449        0.007      334.127        3.895      868.054
01/01/2014  20:31:00      -63.894      -33.685       -7.539        9.157       10.371        5.445       83.852      107.565       29.649        0.275        0.011       72.230        5.088        0.005      333.936        3.579      868.040
01/01/2014  20:32:00      -59.033      -27.913       -7.269        5.631        6.177        3.756       31.705       38.151       14.109        0.220        0.004       65.300        3.292        0.003      334.093        3.837      868.023
01/01/2014  20:33:00      -61.624      -21.167      -11.137       10.444        5.962        5.509      109.077       35.547       30.353        0.227        0.009       65.158        4.746        0.005      334.199        4.014      868.017
01/01/2014  20:34:00      -69.213      -27.406       -8.705        9.920       10.509        8.014       98.398      110.439       64.229        0.295        0.014       74.441        5.932        0.006      334.161        3.950      868.009
01/01/2014  20:35:00      -62.183      -27.209      -12.128        6.208        6.859        7.729       38.536       47.051       59.738        0.245        0.007       67.875        6.330        0.009      334.163        3.955      868.005
01/01/2014  20:36:00      -61.975      -23.271       -8.971        7.757        6.364        7.058       60.165       40.500       49.818        0.231        0.008       66.200        3.971        0.004      334.070        3.798      868.006
01/01/2014  20:37:00      -49.602      -21.083       -5.739       12.446       10.031        7.040      154.894      100.614       49.558        0.162        0.015       53.897        4.066        0.006      334.107        3.861      868.007
01/01/2014  20:38:00      -46.652      -26.616       -7.994        9.444        7.031        5.708       89.182       49.435       32.585        0.156        0.009       53.710        4.195        0.006      334.118        3.879      867.998
01/01/2014  20:39:00      -61.836      -32.931       -9.736        7.590        7.039        6.034       57.607       49.544       36.413        0.257        0.007       70.058        3.452        0.002      334.105        3.859      867.988
01/01/2014  20:40:00      -71.553      -25.915       -6.862        9.448        5.853        3.905       89.274       34.253       15.250        0.299        0.007       76.101        3.245        0.002      334.104        3.857      867.972
01/01/2014  20:41:00      -75.140      -22.719      -10.224        5.608        6.514        4.484       31.448       42.428       20.108        0.318        0.005       78.500        1.497        0.000      334.063        3.788      867.975
01/01/2014  20:42:00      -60.489      -30.736        0.005       20.863       17.917       11.831      435.244      321.033      139.983        0.275        0.045       67.850       10.128        0.022      333.863        3.456      867.981
01/01/2014  20:43:00     -104.249      -42.299       -9.225       16.048       15.981       12.560      257.544      255.379      157.759        0.671        0.034      112.504        9.926        0.008      333.879        3.483      867.984
01/01/2014  20:44:00      -84.336      -42.392       -4.851       29.559       32.732       18.137      873.707     1071.413      328.962        0.560        0.114       94.391        9.819        0.011      333.686        3.164      867.989
01/01/2014  20:45:00     -109.687      -73.342       -5.974       33.688       25.479       18.260     1134.848      649.196      333.431        0.978        0.106      131.948       11.905        0.008      333.637        3.081      867.996
01/01/2014  20:46:00      -90.574      -56.553       -6.319       23.474       18.040       15.830      551.036      325.452      250.593        0.628        0.056      106.780       12.824        0.014      333.593        3.008      868.002
01/01/2014  20:47:00      -91.275      -53.229       -9.049       28.618       20.740       14.202      818.980      430.143      201.689        0.635        0.073      105.662        4.062        0.001      333.629        3.070      868.000
01/01/2014  20:48:00     -107.250      -51.319      -16.066       19.689       14.406        9.548      387.654      207.542       91.164        0.754        0.034      118.895        2.794        0.001      333.585        2.995      868.010
01/01/2014  20:49:00      -98.168      -49.615      -15.171       18.433       16.246       10.984      339.774      263.923      120.651        0.653        0.036      109.994        5.156        0.002      333.648        3.100      868.020
01/01/2014  20:50:00      -88.586      -55.638       -6.289       23.187       21.219       10.940      537.622      450.254      119.691        0.604        0.055      104.609       11.482        0.012      333.603        3.024      868.027
01/01/2014  20:51:00      -80.807      -51.278       -0.773       25.866       18.688       17.258      669.067      349.257      297.827        0.524        0.066       95.704       15.339        0.026      333.627        3.066      868.027
01/01/2014  20:52:00      -97.923      -44.102       -7.227       32.880       26.483       14.751     1081.080      701.352      217.604        0.679        0.100      107.396       16.892        0.025      333.617        3.048      868.021
01/01/2014  20:53:00      -53.774      -32.106       -1.906       13.029       19.764       10.924      169.758      390.597      119.330        0.230        0.034       62.630        8.456        0.018      333.669        3.135      868.025
01/01/2014  20:54:00      -69.364      -33.195       -5.645       17.206       12.471        8.308      296.061      155.535       69.031        0.323        0.026       76.898        9.326        0.015      333.677        3.150      868.034
01/01/2014  20:55:00      -74.897      -59.635      -13.086       17.420       15.852       11.132      303.461      251.279      123.912        0.501        0.034       95.739        8.875        0.009      333.665        3.127      868.029
01/01/2014  20:56:00      -78.927      -57.623      -10.257       18.912       15.874       13.650      357.651      251.994      186.309        0.523        0.040       97.723        6.731        0.005      333.604        3.026      868.021
01/01/2014  20:57:00      -72.807      -39.926      -11.682       11.326       11.814        9.552      128.279      139.563       91.232        0.370        0.018       83.036        5.598        0.005      333.576        2.982      868.014
01/01/2014  20:58:00      -54.698      -35.079       -7.269       14.162       17.600       12.879      200.575      309.751      165.859        0.248        0.034       64.980        7.683        0.014      333.603        3.026      868.016
01/01/2014  20:59:00      -74.738      -22.241       -9.280       16.160       19.908       12.080      261.160      396.325      145.924        0.348        0.040       77.978        9.196        0.014      333.629        3.067      868.017
01/01/2014  21:00:00      -83.886      -15.697      -13.858       23.703       19.921       11.304      561.849      396.839      127.770        0.428        0.054       85.342        9.983        0.014      333.722        3.223      868.021
01/01/2014  21:01:00      -70.026      -11.671       -7.757       13.639       11.784       11.136      186.032      138.868      124.007        0.277        0.022       70.992        3.956        0.003      333.742        3.256      868.017
01/01/2014  21:02:00      -70.518       -3.643      -12.818       12.443        9.968        7.711      154.830       99.370       59.458        0.273        0.016       70.612        5.851        0.007      333.878        3.482      868.011
01/01/2014  21:03:00      -60.681       -6.275      -13.888        8.764        8.405        7.338       76.808       70.650       53.852        0.206        0.010       61.005        6.346        0.011      333.783        3.325      868.013
01/01/2014  21:04:00      -73.133       -6.496      -14.801       10.629        8.761        6.682      112.979       76.758       44.652        0.292        0.012       73.421        4.817        0.004      333.858        3.449      868.029
01/01/2014  21:05:00      -70.994      -17.016      -17.137       17.183       14.018       12.294      295.246      196.496      151.131        0.313        0.032       73.005        7.378        0.010      333.749        3.268      868.043
01/01/2014  21:06:00      -95.548      -16.640      -15.729       16.589       16.587       11.069      275.199      275.119      122.513        0.516        0.034       96.986        7.991        0.007      333.615        3.045      868.051
01/01/2014  21:07:00      -93.146      -15.776      -15.177       18.365       15.064       13.664      337.290      226.934      186.714        0.495        0.038       94.472        7.359        0.006      333.623        3.059      868.064
01/01/2014  21:08:00      -87.437      -30.178      -15.653       18.333       13.302       10.819      336.106      176.938      117.061        0.472        0.032       92.498        8.229        0.008      333.542        2.924      868.064
01/01/2014  21:09:00      -75.534      -22.740      -12.693       18.855       18.579        9.780      355.513      345.189       95.650        0.359        0.040       78.883       10.841        0.019      333.570        2.970      868.065
01/01/2014  21:10:00      -63.279       -8.280      -15.304       20.859       10.743       12.515      435.117      115.409      156.622        0.251        0.035       63.818       13.077        0.042      333.622        3.058      868.067
01/01/2014  21:11:00      -68.527        4.451       -8.012       24.787       11.229       11.879      614.407      126.099      141.115        0.283        0.044       68.672       12.785        0.035      333.748        3.266      868.064
01/01/2014  21:12:00      -76.329       -5.941      -11.953       11.786       13.300       12.590      138.913      176.877      158.497        0.324        0.024       76.560        8.830        0.013      333.844        3.426      868.061
01/01/2014  21:13:00      -76.041       -6.277      -15.929       12.123       11.166        7.465      146.962      124.687       55.722        0.320        0.016       76.300        2.390        0.001      333.889        3.500      868.063
01/01/2014  21:14:00      -74.605       -9.259       -5.485       23.358       19.706       22.535      545.609      388.331      507.819        0.356        0.072       75.177       21.361        0.081      333.810        3.369      868.070
01/01/2014  21:15:00      -86.509       -7.529      -13.334       15.341       15.464       11.366      235.335      239.144      129.177        0.416        0.030       86.836        5.395        0.004      333.788        3.333      868.065
01/01/2014  21:16:00      -90.198       -7.536      -11.741       20.798       22.255       15.251      432.537      495.286      232.581        0.475        0.058       90.513        9.095        0.010      333.704        3.195      868.064
01/01/2014  21:17:00     -105.283       -0.474      -15.419       14.415       11.590       10.883      207.793      134.340      118.445        0.589        0.023      105.284        7.351        0.005      333.662        3.124      868.066
01/01/2014  21:18:00      -84.510       -3.748      -16.870       16.922       11.989       10.442      286.349      143.738      109.043        0.399        0.027       84.593        5.136        0.004      333.762        3.289      868.071
01/01/2014  21:19:00      -73.632      -11.022      -10.167       18.476       14.271       12.749      341.373      203.662      162.537        0.318        0.035       74.453        8.977        0.015      333.588        3.001      868.083
01/01/2014  21:20:00      -74.983      -20.627      -11.325       19.409       16.277       11.372      376.697      264.930      129.323        0.347        0.039       77.768        9.710        0.016      333.590        3.005      868.090
01/01/2014  21:21:00      -52.267      -32.483       -9.158       18.362       17.075        9.256      337.157      291.570       85.673        0.229        0.036       61.538        6.925        0.013      333.678        3.150      868.098
01/01/2014  21:22:00      -69.449      -25.547      -12.612       19.003       12.201        9.472      361.123      148.857       89.710        0.312        0.030       73.999        7.577        0.010      333.620        3.053      868.112
01/01/2014  21:23:00      -77.547      -20.556      -14.960        8.778       10.759        7.714       77.054      115.766       59.511        0.346        0.013       80.225        7.670        0.009      333.636        3.081      868.121
01/01/2014  21:24:00      -77.357      -10.577      -15.079        8.344        6.798        6.243       69.617       46.216       38.978        0.324        0.008       78.076        4.656        0.004      333.794        3.343      868.128
01/01/2014  21:25:00      -76.764      -10.775      -17.357        8.007        9.870        6.522       64.105       97.411       42.539        0.326        0.010       77.517        4.105        0.003      333.717        3.215      868.130
01/01/2014  21:26:00      -71.024      -24.349      -12.100        8.372        9.060        6.528       70.088       82.091       42.616        0.299        0.010       75.081        3.958        0.003      333.729        3.235      868.131
01/01/2014  21:27:00      -80.760      -32.178      -10.032       13.176        9.953        6.828      173.613       99.056       46.625        0.399        0.016       86.934        6.366        0.005      333.657        3.115      868.133
01/01/2014  21:28:00      -76.547      -40.489       -7.545       13.314        9.834        9.198      177.269       96.705       84.597        0.396        0.018       86.595        4.196        0.002      333.581        2.989      868.135
01/01/2014  21:29:00      -86.550      -50.342       -7.979       23.829       12.611        9.990      567.816      159.042       99.801        0.546        0.041      100.126        5.732        0.003      333.548        2.935      868.142
01/01/2014  21:30:00      -95.864      -48.106      -10.541       24.823       16.911       16.467      616.171      285.966      271.172        0.639        0.059      107.257        9.058        0.007      333.520        2.887      868.139
01/01/2014  21:31:00      -86.034      -40.166       -3.926       26.765       25.556       16.950      716.346      653.090      287.309        0.534        0.083       94.949       14.136        0.022      333.476        2.816      868.132
01/01/2014  21:32:00      -82.868      -43.868       -4.777       16.898       16.309       12.016      285.536      265.980      144.379        0.475        0.035       93.763        7.101        0.006      333.475        2.811      868.133
01/01/2014  21:33:00      -75.794      -40.092        0.859       24.992       21.113       14.226      624.598      445.772      202.378        0.431        0.064       85.744       13.353        0.024      333.428        2.734      868.141
01/01/2014  21:34:00      -80.563      -35.362       -1.598       25.238       20.812       13.053      636.958      433.130      170.386        0.449        0.062       87.982       13.879        0.025      333.425        2.731      868.149
01/01/2014  21:35:00      -67.077      -39.934       -0.431       30.821       21.121       14.879      949.958      446.093      221.390        0.386        0.081       78.065       14.246        0.033      333.448        2.769      868.157
01/01/2014  21:36:00     -107.515      -48.424      -12.037       22.978       16.789        9.632      528.003      281.878       92.779        0.748        0.045      117.917        8.665        0.005      333.410        2.708      868.158
01/01/2014  21:37:00      -79.589      -46.272       -5.989       40.938       24.241       16.062     1675.902      587.649      257.995        0.552        0.126       92.063       15.968        0.030      333.401        2.692      868.156
01/01/2014  21:38:00      -82.098      -52.307        1.455       33.587       26.965       18.489     1128.114      727.117      341.836        0.584        0.110       97.345       15.427        0.025      333.371        2.642      868.156
01/01/2014  21:39:00     -101.850      -54.018       -4.761       46.831       19.789       17.627     2193.135      391.608      310.721        0.810        0.145      115.288       19.042        0.027      333.394        2.680      868.157
01/01/2014  21:40:00     -107.829      -52.487       -5.157       36.136       26.617       18.721     1305.798      708.466      350.475        0.839        0.118      119.925       17.235        0.021      333.421        2.724      868.156
01/01/2014  21:41:00     -113.118      -53.301       -1.789       28.507       21.372       13.960      812.658      456.778      194.878        0.855        0.073      125.046       11.499        0.008      333.366        2.635      868.163
01/01/2014  21:42:00     -104.454      -47.367      -13.779       10.109       14.714        8.138      102.201      216.513       66.227        0.686        0.019      114.692        4.123        0.001      333.381        2.660      868.171
01/01/2014  21:43:00      -86.110      -46.075       -1.533       18.689       13.235       10.580      349.270      175.177      111.926        0.509        0.032       97.662       10.022        0.011      333.431        2.739      868.174
01/01/2014  21:44:00      -73.746      -35.448        3.642       25.569       12.478       13.596      653.783      155.693      184.853        0.385        0.050       81.824       12.593        0.024      333.450        2.771      868.172
01/01/2014  21:45:00     -112.218      -52.214       -7.790       14.502       13.645       10.428      210.318      186.177      108.748        0.794        0.025      123.771        8.668        0.005      333.426        2.733      868.171
01/01/2014  21:46:00     -111.893      -52.257      -12.514       16.544       19.886        8.043      273.717      395.438       64.682        0.807        0.037      123.494        7.000        0.003      333.386        2.668      868.173
01/01/2014  21:47:00     -117.349      -37.213      -13.854       17.169       11.944        9.485      294.788      142.649       89.968        0.794        0.026      123.108        8.343        0.005      333.343        2.595      868.181
01/01/2014  21:48:00     -102.254      -52.248      -10.440       16.125       18.306       10.185      260.010      335.102      103.739        0.700        0.035      114.830        4.456        0.002      333.297        2.517      868.188
01/01/2014  21:49:00      -99.863      -34.480      -16.489       22.441       13.821       10.818      503.597      191.010      117.034        0.612        0.041      105.648        5.436        0.003      333.316        2.551      868.190
01/01/2014  21:50:00      -84.022      -45.784       -6.732       25.623       18.263       14.802      656.548      333.551      219.089        0.520        0.060       95.686       14.179        0.022      333.332        2.578      868.186
01/01/2014  21:51:00      -77.499      -43.631      -11.931       19.163       14.830       11.502      367.207      219.937      132.301        0.439        0.036       88.937        5.606        0.004      333.318        2.555      868.181
01/01/2014  21:52:00     -102.017      -34.093      -11.254       11.732        9.759        6.656      137.632       95.244       44.308        0.599        0.014      107.563        4.031        0.001      333.364        2.632      868.181
01/01/2014  21:53:00     -102.158      -51.420       -9.448       11.631       11.479        7.162      135.288      131.773       51.295        0.674        0.016      114.368        2.482        0.000      333.357        2.620      868.192
01/01/2014  21:54:00     -106.589      -56.377      -10.419       15.206       13.473       10.126      231.228      181.526      102.541        0.758        0.026      120.580        9.068        0.006      333.363        2.629      868.218
01/01/2014  21:55:00     -101.840      -56.907       -9.354       21.866       15.391       12.770      478.140      236.868      163.072        0.729        0.044      116.661        3.564        0.001      333.333        2.579      868.240
01/01/2014  21:56:00      -95.498      -55.084       -3.862       28.674       19.110       15.590      822.226      365.191      243.049        0.680        0.072      110.246       16.799        0.023      333.300        2.525      868.270
01/01/2014  21:57:00      -88.043      -37.600       -5.940       19.015       22.266       16.195      361.582      495.766      262.263        0.516        0.056       95.736       13.600        0.020      333.352        2.612      868.290
01/01/2014  21:58:00      -84.601      -35.179      -10.464       13.986       14.220       10.059      195.602      202.222      101.191        0.450        0.025       91.624        4.108        0.002      333.317        2.553      868.305
01/01/2014  21:59:00      -79.899      -28.736       -9.099       20.470       13.913       11.832      419.018      193.561      140.002        0.402        0.038       84.909       11.120        0.017      333.383        2.662      868.309
01/01/2014  22:00:00      -82.605      -12.868       -5.868       24.468       28.773       17.531      598.693      827.860      307.319        0.438        0.087       83.601       14.896        0.032      333.533        2.909      868.315
01/01/2014  22:01:00      -99.093       10.417      -10.455       34.856       28.271       16.001     1214.927      799.245      256.018        0.615        0.114       99.639       10.783        0.012      333.569        2.971      868.316
01/01/2014  22:02:00      -51.714       -1.123       -7.660       23.100       21.493       16.499      533.613      461.943      272.222        0.200        0.063       51.727       12.188        0.056      333.565        2.964      868.320
01/01/2014  22:03:00      -57.832       -5.393        3.120       40.750       28.484       19.370     1660.571      811.355      375.214        0.311        0.142       58.083       22.364        0.148      333.530        2.905      868.322
01/01/2014  22:04:00      -83.305      -21.539       -2.450       34.068       20.295       13.940     1160.602      411.906      194.336        0.459        0.088       86.045       17.133        0.040      333.473        2.809      868.321
01/01/2014  22:05:00      -56.370      -15.269        1.343       28.078       22.540       13.687      788.359      508.029      187.326        0.245        0.074       58.401       10.649        0.033      333.410        2.705      868.325
01/01/2014  22:06:00      -44.341      -24.106       -0.469       33.347       17.611       14.300     1112.016      310.149      204.501        0.209        0.081       50.470       16.559        0.108      333.448        2.768      868.334
01/01/2014  22:07:00      -79.877      -24.522      -15.541       17.411       26.705       12.584      303.132      713.151      158.366        0.420        0.059       83.556        7.194        0.007      333.434        2.745      868.343
01/01/2014  22:08:00      -71.592      -27.958      -14.543       13.759       16.059       13.696      189.321      257.898      187.587        0.338        0.032       76.857        6.692        0.008      333.432        2.742      868.348
01/01/2014  22:09:00      -69.260      -29.518      -19.154       21.718       20.164       13.810      471.691      406.582      190.714        0.355        0.053       75.288       12.703        0.028      333.445        2.763      868.363
01/01/2014  22:10:00      -81.555      -12.024      -12.356       18.009       14.896       12.818      324.323      221.880      164.290        0.383        0.036       82.437        9.007        0.012      333.448        2.768      868.366
01/01/2014  22:11:00      -67.618      -15.418       -7.741       18.087       19.032       13.099      327.122      362.231      171.595        0.287        0.043       69.354       10.752        0.024      333.460        2.788      868.359
01/01/2014  22:12:00      -79.728      -14.921      -10.877       15.844       17.058       10.408      251.033      290.977      108.327        0.367        0.033       81.113        7.654        0.009      333.440        2.754      868.352
01/01/2014  22:13:00      -80.024      -27.005      -11.993       13.429       10.921        8.963      180.328      119.262       80.328        0.383        0.019       84.458        4.349        0.003      333.485        2.828      868.341
01/01/2014  22:14:00      -60.828      -40.563      -10.514       15.841       10.396       10.477      250.940      108.084      109.758        0.296        0.023       73.112        7.425        0.010      333.514        2.876      868.329
01/01/2014  22:15:00      -79.886      -31.672      -10.631       19.720       11.201       10.697      388.884      125.452      114.416        0.406        0.031       85.936       10.048        0.014      333.473        2.810      868.314
01/01/2014  22:16:00      -79.130      -33.408       -7.581       15.474       11.991        9.497      239.439      143.777       90.194        0.395        0.024       85.893        9.080        0.011      333.480        2.819      868.301
01/01/2014  22:17:00      -84.703      -36.777      -10.789        8.034        9.402        7.146       64.540       88.399       51.061        0.442        0.010       92.343        3.937        0.002      333.496        2.846      868.282
01/01/2014  22:18:00      -59.784      -31.830       -2.970       12.719       15.628        8.303      161.785      244.243       68.933        0.254        0.024       67.729        6.103        0.008      333.507        2.868      868.278
01/01/2014  22:19:00      -76.080      -41.339       -9.115        9.261        7.671        7.079       85.770       58.850       50.115        0.389        0.010       86.586        2.962        0.001      333.431        2.741      868.272
01/01/2014  22:20:00      -88.056      -47.492      -12.164       11.677        9.371        7.352      136.344       87.809       54.045        0.522        0.014      100.047        5.024        0.003      333.371        2.643      868.276
01/01/2014  22:21:00      -89.494      -40.210      -13.539       10.641        9.478        8.389      113.233       89.834       70.373        0.504        0.014       98.112        3.233        0.001      333.318        2.554      868.280
01/01/2014  22:22:00      -89.710      -49.770      -15.693       11.644       11.787        7.163      135.582      138.943       51.307        0.555        0.016      102.591        5.375        0.003      333.346        2.601      868.284
01/01/2014  22:23:00      -88.728      -51.666      -11.311       15.236       11.908        9.785      232.147      141.804       95.748        0.557        0.023      102.675        3.709        0.001      333.315        2.549      868.288
01/01/2014  22:24:00      -82.510      -48.316      -10.554       12.627        9.212        6.593      159.441       84.866       43.468        0.477        0.014       95.615        3.122        0.001      333.270        2.474      868.282
01/01/2014  22:25:00      -79.831      -43.990       -9.703        9.129        6.905        8.080       83.333       47.678       65.292        0.430        0.010       91.148        5.878        0.004      333.191        2.343      868.281
01/01/2014  22:26:00      -81.942      -44.342      -10.762        9.480        8.571        7.360       89.872       73.464       54.174        0.451        0.011       93.170        3.228        0.001      333.195        2.349      868.286
01/01/2014  22:27:00      -89.010      -52.429       -7.177       11.235       16.545        7.196      126.224      273.734       51.781        0.559        0.023      103.303        3.268        0.001      333.187        2.337      868.289
01/01/2014  22:28:00      -91.079      -60.056       -7.222       25.339       21.552       16.538      642.058      464.474      273.513        0.667        0.069      109.097       12.629        0.013      333.244        2.431      868.300
01/01/2014  22:29:00      -89.869      -55.453       -2.586       30.501       18.131       18.707      930.336      328.722      349.968        0.638        0.080      105.601       16.099        0.023      333.214        2.381      868.294
01/01/2014  22:30:00     -101.157      -66.739       -5.928       25.450       17.696       15.086      647.690      313.165      227.584        0.795        0.059      121.189       15.406        0.016      333.214        2.381      868.287
01/01/2014  22:31:00      -97.815      -58.023       -5.098       17.477       13.060       11.298      305.432      170.558      127.636        0.678        0.030      113.730        6.514        0.003      333.229        2.405      868.284
01/01/2014  22:32:00      -90.140      -53.713       -5.149       15.871       14.337       14.920      251.882      205.536      222.594        0.586        0.034      104.930        5.409        0.003      333.181        2.327      868.273
01/01/2014  22:33:00      -84.992      -48.495       -8.707       13.479       12.257        8.969      181.692      150.225       80.439        0.503        0.021       97.854        4.350        0.002      333.171        2.310      868.267
01/01/2014  22:34:00      -85.456      -43.862       -6.371       13.474        9.437       10.311      181.559       89.065      106.324        0.482        0.019       96.055        7.898        0.007      333.179        2.323      868.256
01/01/2014  22:35:00      -73.556      -43.673       -7.874        8.371        9.630       10.054       70.080       92.743      101.086        0.382        0.013       85.544        4.921        0.003      333.184        2.331      868.250
01/01/2014  22:36:00      -60.359      -31.394       -8.030        7.549        8.316        5.896       56.993       69.161       34.765        0.243        0.008       68.035        1.689        0.001      333.180        2.326      868.231
01/01/2014  22:37:00      -58.926      -30.418      -12.703       10.747        8.236        6.866      115.503       67.827       47.145        0.239        0.012       66.314        3.415        0.003      333.211        2.375      868.214
01/01/2014  22:38:00      -78.825      -24.491       -6.150       15.534       10.753        7.075      241.292      115.618       50.053        0.363        0.020       82.542        5.387        0.004      333.214        2.380      868.198
01/01/2014  22:39:00      -90.378      -34.595       -8.917       12.907        9.931        8.129      166.589       98.630       66.084        0.489        0.017       96.773        3.158        0.001      333.218        2.388      868.180
01/01/2014  22:40:00     -110.938      -40.171      -10.410       15.418       11.326        8.954      237.706      128.272       80.180        0.724        0.022      117.987        5.887        0.002      333.176        2.317      868.161
01/01/2014  22:41:00      -79.459      -23.778        0.898       26.729       16.075       14.885      714.450      258.417      221.573        0.404        0.060       82.941       15.383        0.034      333.146        2.269      868.149
01/01/2014  22:42:00      -68.989      -27.940       -2.732       21.117       16.355       12.287      445.918      267.477      150.967        0.321        0.043       74.432       11.494        0.024      333.144        2.267      868.134
01/01/2014  22:43:00      -76.717      -34.269       -8.914       11.264        8.868        8.174      126.887       78.648       66.815        0.371        0.014       84.023        4.978        0.004      333.126        2.238      868.131
01/01/2014  22:44:00      -77.116      -27.413       -9.262       10.115       12.422        8.618      102.315      154.305       74.276        0.356        0.017       81.843        4.475        0.003      333.118        2.225      868.131
01/01/2014  22:45:00      -74.549      -29.942       -7.778        8.562        9.916        7.158       73.305       98.336       51.237        0.337        0.011       80.337        3.191        0.002      333.086        2.172      868.132
01/01/2014  22:46:00      -83.932      -25.795      -11.334        9.508        9.597        9.221       90.406       92.093       85.020        0.405        0.013       87.806        5.995        0.005      333.095        2.188      868.127
01/01/2014  22:47:00      -78.079      -23.724      -11.880       18.380       13.414        8.742      337.833      179.931       76.414        0.370        0.030       81.603        8.561        0.011      333.128        2.239      868.125
01/01/2014  22:48:00      -75.156      -19.806       -9.628       15.502       10.056        8.086      240.300      101.118       65.391        0.327        0.020       77.722        3.657        0.002      333.141        2.262      868.116
01/01/2014  22:49:00      -73.851      -29.866       -9.889       10.131       10.080        6.723      102.641      101.608       45.201        0.335        0.012       79.662        4.314        0.003      333.171        2.310      868.109
01/01/2014  22:50:00      -51.232      -25.073       -9.199       10.165        5.727        7.481      103.327       32.798       55.961        0.177        0.010       57.038        5.498        0.009      333.147        2.270      868.095
01/01/2014  22:51:00      -49.561      -21.089      -11.323        8.038        6.299        6.847       64.602       39.672       46.881        0.159        0.008       53.861        2.858        0.003      333.149        2.272      868.084
01/01/2014  22:52:00      -73.313      -16.214       -7.024       12.796        9.974        8.828      163.737       99.490       77.934        0.301        0.017       75.085        4.550        0.004      333.133        2.248      868.076
01/01/2014  22:53:00      -91.218       -9.765      -12.509       14.318       10.838        9.313      205.009      117.462       86.733        0.449        0.020       91.739        5.435        0.004      333.094        2.184      868.078
01/01/2014  22:54:00      -84.781      -16.314       -8.507       19.632       11.710       10.695      385.432      137.120      114.382        0.408        0.032       86.336        7.227        0.007      333.072        2.149      868.079
01/01/2014  22:55:00      -97.438      -17.216       -5.377       20.657       16.140       12.837      426.712      260.491      164.796        0.534        0.043       98.947       10.978        0.012      333.042        2.098      868.096
01/01/2014  22:56:00      -92.963      -25.791       -4.356       20.222       13.912       11.774      408.931      193.534      138.622        0.503        0.037       96.475        8.196        0.007      333.059        2.127      868.121
01/01/2014  22:57:00     -105.887      -40.050       -7.353       15.675       15.856       10.692      245.693      251.397      114.310        0.674        0.031      113.208        8.249        0.005      332.995        2.018      868.139
01/01/2014  22:58:00      -97.948      -46.191       -6.414       18.986       18.344       11.718      360.467      336.513      137.321        0.630        0.042      108.293        7.115        0.004      332.939        1.927      868.145
01/01/2014  22:59:00     -103.860      -44.032       -6.464       12.440       15.592       12.689      154.752      243.114      160.999        0.666        0.028      112.808        6.715        0.004      332.876        1.824      868.149
01/01/2014  23:00:00      -98.865      -31.726       -4.461       19.614       12.657       13.255      384.717      160.208      175.683        0.576        0.036      103.830       10.213        0.010      332.882        1.834      868.149
01/01/2014  23:01:00     -103.546      -26.141       -3.290       18.792       18.335       12.041      353.143      336.168      144.996        0.612        0.042      106.795        8.386        0.006      332.848        1.778      868.146
01/01/2014  23:02:00      -99.332      -30.811       -1.582       29.146       20.285       14.027      849.492      411.467      196.769        0.614        0.073      104.001       10.064        0.009      332.816        1.726      868.150
01/01/2014  23:03:00     -123.830      -30.368       -9.320       21.917       16.648       13.879      480.364      277.143      192.615        0.865        0.048      127.499        9.169        0.005      332.804        1.706      868.139
01/01/2014  23:04:00      -99.310      -31.442        2.367       37.277       23.414       18.937     1389.545      548.219      358.603        0.658        0.115      104.169       20.357        0.038      332.790        1.682      868.132
01/01/2014  23:05:00      -93.784      -37.671        4.723       26.119       21.169       15.760      682.190      448.124      248.370        0.581        0.069      101.067       12.724        0.016      332.793        1.688      868.130
01/01/2014  23:06:00      -76.725      -43.151        2.367       28.603       27.561       16.283      818.126      759.587      265.125        0.480        0.092       88.027       13.035        0.022      332.828        1.745      868.130
01/01/2014  23:07:00     -103.956      -40.217      -10.848       13.279       11.085        8.931      176.331      122.886       79.763        0.646        0.019      111.465        5.693        0.003      332.850        1.783      868.130
01/01/2014  23:08:00      -99.939      -36.918      -14.935        5.493        8.663        5.946       30.176       75.043       35.360        0.586        0.007      106.540        2.297        0.000      332.809        1.715      868.126
01/01/2014  23:09:00      -95.553      -46.935      -11.027        5.869        6.066        5.900       34.444       36.795       34.811        0.578        0.005      106.458        3.471        0.001      332.811        1.717      868.138
01/01/2014  23:10:00      -87.813      -39.941      -11.084        6.456        7.912        6.028       41.677       62.599       36.332        0.478        0.007       96.470        3.500        0.001      332.797        1.695      868.136
01/01/2014  23:11:00      -89.683      -29.661       -8.942        7.690       10.831        5.804       59.129      117.312       33.685        0.461        0.011       94.461        1.622        0.000      332.852        1.785      868.134
01/01/2014  23:12:00      -93.718      -17.349       -9.889       15.778       11.948        9.399      248.947      142.748       88.348        0.483        0.024       95.310        9.024        0.009      332.841        1.766      868.126
01/01/2014  23:13:00     -110.069      -27.131      -19.035       10.779       12.091       10.644      116.196      146.199      113.301        0.679        0.019      113.363        5.093        0.002      332.817        1.728      868.124
01/01/2014  23:14:00     -108.791      -44.306      -15.441       10.350       13.645        8.853      107.121      186.174       78.373        0.720        0.019      117.467        6.609        0.003      332.787        1.678      868.125
01/01/2014  23:15:00     -103.158      -41.335      -14.527       11.735       10.876        9.129      137.719      118.293       83.337        0.645        0.017      111.131        6.096        0.003      332.728        1.578      868.125
01/01/2014  23:16:00     -108.553      -54.744      -14.562       16.333       17.144       11.236      266.767      293.919      126.252        0.784        0.034      121.576       10.068        0.007      332.659        1.464      868.122
01/01/2014  23:17:00     -108.712      -32.743      -17.093       11.251        9.305        7.863      126.580       86.591       61.834        0.673        0.014      113.536        6.007        0.003      332.650        1.448      868.124
01/01/2014  23:18:00      -96.849      -29.961      -13.989       11.563       12.054        8.681      133.704      145.293       75.368        0.541        0.018      101.377        2.311        0.001      332.648        1.446      868.127
01/01/2014  23:19:00      -95.527      -36.401      -17.681       12.773       15.078        9.381      163.157      227.357       87.997        0.562        0.024      102.227        7.171        0.005      332.644        1.439      868.133
01/01/2014  23:20:00      -98.335      -43.428       -5.303       29.428       22.214       15.255      866.005      493.471      232.729        0.659        0.080      107.498       13.803        0.016      332.617        1.395      868.122
01/01/2014  23:21:00     -119.301      -55.071       -9.756       13.451       14.421       11.829      180.932      207.969      139.917        0.894        0.026      131.399        6.718        0.003      332.593        1.355      868.117
01/01/2014  23:22:00     -121.527      -50.104      -14.378       12.801       13.779       10.736      163.865      189.863      115.266        0.898        0.023      131.450        5.173        0.002      332.678        1.495      868.109
01/01/2014  23:23:00     -107.422      -60.894      -10.350       31.253       19.983       14.584      976.740      399.313      212.688        0.847        0.079      123.481       14.419        0.014      332.683        1.505      868.120
01/01/2014  23:24:00     -119.203      -58.736       -9.714       17.899       18.251       11.407      320.367      333.113      130.128        0.927        0.039      132.888        7.351        0.003      332.655        1.460      868.127
01/01/2014  23:25:00     -108.333      -48.398      -10.592       13.524       15.793       10.771      182.896      249.431      116.011        0.737        0.027      118.652        4.762        0.002      332.639        1.434      868.127
01/01/2014  23:26:00     -109.066      -36.345      -10.932       21.123       11.359       11.216      446.174      129.019      125.809        0.702        0.035      114.962        7.937        0.005      332.633        1.421      868.120
01/01/2014  23:27:00     -115.169      -53.853       -5.412       12.032       12.223        9.299      144.762      149.400       86.464        0.829        0.019      127.137        7.320        0.003      332.661        1.470      868.112
01/01/2014  23:28:00     -111.568      -45.855       -1.988       24.780       18.933       16.069      614.057      358.468      258.214        0.789        0.062      120.623       14.740        0.015      332.655        1.459      868.100
01/01/2014  23:29:00     -104.464      -54.617       -7.335       13.623       17.882       10.746      185.574      319.769      115.475        0.729        0.031      117.880        6.677        0.003      332.680        1.499      868.096
01/01/2014  23:30:00      -98.558      -39.535       -6.943       10.803       12.031        8.289      116.697      144.734       68.713        0.583        0.017      106.191        5.632        0.003      332.651        1.453      868.089
01/01/2014  23:31:00      -97.782      -43.708      -12.327       10.183       15.369        8.630      103.696      236.193       74.469        0.602        0.021      107.106        3.369        0.001      332.654        1.456      868.077
01/01/2014  23:32:00     -104.671      -35.527      -11.390       12.780        9.727        6.523      163.330       94.609       42.544        0.632        0.015      110.536        4.728        0.002      332.667        1.477      868.071
01/01/2014  23:33:00     -114.094      -25.646      -13.031       12.833       11.307       11.353      164.682      127.842      128.880        0.713        0.021      116.940        7.221        0.004      332.671        1.484      868.056
01/01/2014  23:34:00     -115.967      -33.518      -14.127       20.075       15.529       13.790      403.005      241.151      190.176        0.780        0.042      120.713       11.792        0.010      332.607        1.379      868.047
01/01/2014  23:35:00     -105.830      -66.315       -9.493       25.179       25.171       14.887      633.972      633.578      221.618        0.859        0.074      124.890       13.947        0.012      332.550        1.284      868.048
01/01/2014  23:36:00     -104.062      -51.236      -12.010       21.116       22.817       12.411      445.877      520.618      154.021        0.736        0.056      115.992        9.511        0.007      332.520        1.235      868.045
01/01/2014  23:37:00     -106.762      -70.809       -7.082       18.475       19.950       15.243      341.325      397.985      232.351        0.872        0.049      128.110       12.322        0.009      332.452        1.123      868.040
01/01/2014  23:38:00     -124.944      -39.601      -12.793       18.447       15.940       10.837      340.287      254.072      117.437        0.903        0.036      131.069        7.347        0.003      332.388        1.016      868.028
01/01/2014  23:39:00     -111.502      -37.742      -12.299       16.701       16.515       15.111      278.940      272.758      228.332        0.739        0.039      117.716       12.509        0.011      332.396        1.031      868.015
01/01/2014  23:40:00     -102.766      -18.007       -6.314       35.252       24.960       16.842     1242.710      623.023      283.668        0.654        0.107      104.331       12.471        0.014      332.347        0.950      868.001
01/01/2014  23:41:00      -88.244       -8.634       -6.048       39.350       34.304       20.917     1548.433     1176.765      437.515        0.553        0.158       88.666       20.913        0.056      332.378        1.001      867.992
01/01/2014  23:42:00      -90.527      -13.170       -5.293       38.484       19.696       16.069     1480.993      387.930      258.210        0.526        0.106       91.480       15.155        0.027      332.349        0.954      867.990
01/01/2014  23:43:00      -75.923      -33.586      -10.551       23.176       20.222       16.440      537.133      408.912      270.260        0.411        0.061       83.020       14.442        0.030      332.304        0.877      867.992
01/01/2014  23:44:00      -88.596       -4.305      -15.651       31.522       21.518       15.302      993.651      463.042      234.156        0.490        0.085       88.700       17.061        0.037      332.281        0.842      867.999
01/01/2014  23:45:00      -80.594      -13.871       -9.538       26.362       22.761       13.622      694.932      518.062      185.566        0.409        0.070       81.779        9.281        0.013      332.280        0.841      868.002
01/01/2014  23:46:00      -68.328      -39.817      -16.593       13.620       14.276       13.282      185.494      203.790      176.411        0.355        0.028       79.083        8.427        0.011      332.345        0.947      868.003
01/01/2014  23:47:00      -56.696      -37.824      -12.428       17.371       13.320       12.788      301.762      177.433      163.520        0.272        0.032       68.155        6.831        0.010      332.384        1.011      868.009
01/01/2014  23:48:00      -44.121      -25.826       -3.204       10.660       11.929        8.708      113.637      142.308       75.835        0.148        0.017       51.124        5.174        0.010      332.515        1.226      867.995
01/01/2014  23:49:00      -13.656      -18.288       -2.313       12.466       13.235       10.172      155.397      175.171      103.473        0.048        0.022       22.824        5.900        0.067      332.685        1.508      868.000
01/01/2014  23:50:00       -8.204      -18.003        0.210        6.968        5.948        6.850       48.557       35.380       46.918        0.026        0.007       19.784        3.195        0.026      332.714        1.558      868.007
01/01/2014  23:51:00      -28.087      -15.378       -0.513       14.302        9.014        7.451      204.560       81.252       55.523        0.068        0.017       32.021        1.805        0.003      332.417        1.067      868.027
01/01/2014  23:52:00      -52.112      -12.567       -3.299       10.962        9.738        5.611      120.170       94.825       31.486        0.157        0.012       53.606        2.036        0.001      332.349        0.953      868.035
01/01/2014  23:53:00      -45.236      -21.785       -4.584       10.407        9.532        7.442      108.303       90.857       55.382        0.140        0.013       50.208        4.543        0.008      332.357        0.965      868.035
01/01/2014  23:54:00      -25.355      -14.280       -0.120       18.213        9.548       10.589      331.723       91.174      112.126        0.069        0.027       29.100       10.174        0.122      332.320        0.906      868.021
01/01/2014  23:55:00      -46.420      -18.723       -3.440       10.508        9.486        9.568      110.413       89.990       91.541        0.140        0.015       50.054        3.058        0.004      332.353        0.959      868.006
01/01/2014  23:56:00      -61.548      -25.136       -5.575       10.887        7.053        6.420      118.533       49.745       41.213        0.233        0.010       66.484        2.518        0.001      332.317        0.901      867.991
01/01/2014  23:57:00      -74.373      -29.209       -9.756        9.562        7.723        7.337       91.432       59.651       53.835        0.334        0.010       79.903        5.234        0.004      332.242        0.779      867.982
01/01/2014  23:58:00      -81.248      -30.644      -10.989       11.701        9.184        6.623      136.911       84.337       43.870        0.396        0.013       86.835        4.780        0.003      332.257        0.802      867.991
01/01/2014  23:59:00      -98.109      -35.180      -11.005       12.318        9.277        5.952      151.723       86.069       35.421        0.563        0.014      104.226        2.880        0.001      332.294        0.862      867.997
